[[{"header":{"parameterUnit":"m.s-1","parameterCategory":1,"la1":31.0,"la2":29.5877,"lo1":-88.7671,"lo2":-86.6584,"dy":0.0162,"dx":0.0185,"nx":115,"ny":88,"refTime":"2023-04-30T12:00:00:Z","depth":0,"parameterNumber":2,"parameterNumberName":"U-component_of_WINDS"},"data":[0.0,0.0,0.0,0.0,0.0,0.0,0.0,0.0,0.0,0.0,0.0,0.0,0.0,0.0,0.0,0.0,0.0,0.0,0.0,0.0,0.0,0.0,0.0,0.0,0.0,0.0,0.0,0.0,0.0,0.0,0.0,0.0,0.0,0.0,0.0,0.0,0.0,0.0,0.0,0.0,0.0,0.0,0.0,0.0,0.0,0.0,0.0,0.0,0.0,0.0,0.0,0.0,0.0,0.0,0.0,0.0,0.0,0.0,0.0,0.0,0.0,0.0,0.0,0.0,0.0,0.0,0.0,0.0,0.0,0.0,0.0,0.0,0.0,0.0,0.0,0.0,0.0,0.0,0.0,0.0,0.0,0.0,0.0,0.0,0.0,0.0,0.0,0.0,0.0,0.0,0.0,0.0,0.0,0.0,0.0,0.0,0.0,0.0,0.0,0.0,0.0,0.0,0.0,0.0,0.0,0.0,0.0,0.0,0.0,0.0,0.0,0.0,0.0,0.0,0.0,0.0,0.0,0.0,0.0,0.0,0.0,0.0,0.0,0.0,0.0,0.0,0.0,0.0,0.0,0.0,0.0,0.0,0.0,0.0,0.0,0.0,0.0,0.0,0.0,0.0,0.0,0.0,0.0,0.0,0.0,0.0,0.0,0.0,0.0,0.0,0.0,0.0,0.0,0.0,0.0,0.0,0.0,0.0,0.0,0.0,0.0,0.0,0.0,0.0,0.0,0.0,0.0,0.0,0.0,0.0,0.0,0.0,0.0,0.0,0.0,0.0,0.0,0.0,0.0,0.0,0.0,0.0,0.0,0.0,0.0,0.0,0.0,0.0,0.0,0.0,0.0,0.0,0.0,0.0,0.0,0.0,0.0,0.0,0.0,0.0,0.0,0.0,0.0,0.0,0.0,0.0,0.0,0.0,0.0,0.0,0.0,0.0,0.0,0.0,0.0,0.0,0.0,0.0,0.0,0.0,0.0,0.0,0.0,0.0,0.0,0.0,0.0,0.0,0.0,0.0,0.0,0.0,0.0,0.0,0.0,0.0,0.0,0.0,0.0,0.0,0.0,0.0,0.0,0.0,0.0,0.0,0.0,0.0,0.0,0.0,0.0,0.0,0.0,0.0,0.0,0.0,0.0,0.0,0.0,0.0,0.0,0.0,0.0,0.0,0.0,0.0,0.0,0.0,0.0,0.0,0.0,0.0,0.0,0.0,0.0,0.0,0.0,0.0,0.0,0.0,0.0,0.0,0.0,0.0,0.0,0.0,0.0,0.0,0.0,0.0,0.0,0.0,0.0,0.0,0.0,0.0,0.0,0.0,0.0,0.0,0.0,0.0,0.0,0.0,0.0,0.0,0.0,0.0,0.0,0.0,0.0,0.0,0.0,0.0,0.0,0.0,0.0,0.0,0.0,0.0,0.0,0.0,0.0,0.0,0.0,0.0,0.0,0.0,0.0,0.0,0.0,0.0,0.0,0.0,0.0,0.0,0.0,0.0,0.0,0.0,0.0,0.0,0.0,0.0,0.0,0.0,0.0,0.0,0.0,0.0,0.0,0.0,0.0,0.0,0.0,0.0,0.0,0.0,0.0,0.0,0.0,0.0,0.0,0.0,0.0,0.0,0.0,0.0,0.0,0.0,0.0,0.0,0.0,0.0,0.0,0.0,0.0,0.0,0.0,0.0,0.0,0.0,0.0,0.0,0.0,0.0,0.0,0.0,0.0,0.0,0.0,0.0,0.0,0.0,0.0,0.0,0.0,0.0,0.0,0.0,0.0,0.0,0.0,0.0,0.0,0.0,0.0,0.0,0.0,0.0,0.0,0.0,0.0,0.0,0.0,0.0,0.0,0.0,0.0,0.0,0.0,0.0,0.0,0.0,0.0,0.0,0.0,0.0,0.0,0.0,0.0,0.0,0.0,0.0,0.0,0.0,0.0,0.0,0.0,0.0,0.0,0.0,0.0,0.0,0.0,0.0,0.0,0.0,0.0,0.0,0.0,0.0,0.0,0.0,0.0,0.0,0.0,0.0,0.0,0.0,0.0,0.0,0.0,0.0,0.0,0.0,0.0,0.0,0.0,0.0,0.0,0.0,0.0,0.0,0.0,0.0,0.0,0.0,0.0,0.0,0.0,0.0,0.0,0.0,0.0,0.0,0.0,0.0,0.0,0.0,0.0,0.0,0.0,0.0,0.0,0.0,0.0,0.0,0.0,0.0,0.0,0.0,0.0,0.0,0.0,0.0,0.0,0.0,0.0,0.0,0.0,0.0,0.0,0.0,0.0,0.0,0.0,0.0,0.0,0.0,0.0,0.0,0.0,0.0,0.0,0.0,0.0,0.0,0.0,0.0,0.0,0.0,0.0,0.0,0.0,0.0,0.0,0.0,0.0,0.0,0.0,0.0,0.0,0.0,0.0,0.0,0.0,0.0,0.0,0.0,0.0,0.0,0.0,0.0,0.0,0.0,0.0,0.0,0.0,0.0,0.0,0.0,0.0,0.0,0.0,0.0,0.0,0.0,0.0,0.0,0.0,0.0,0.0,0.0,0.0,0.0,0.0,0.0,0.0,0.0,0.0,0.0,0.0,0.0,0.0,0.0,0.0,0.0,0.0,0.0,0.0,0.0,0.0,0.0,0.0,0.0,0.0,0.0,0.0,0.0,0.0,0.0,0.0,0.0,0.0,0.0,0.0,0.0,0.0,0.0,0.0,0.0,0.0,0.0,0.0,0.0,0.0,0.0,0.0,0.0,0.0,0.0,0.0,0.0,0.0,0.0,0.0,0.0,0.0,0.0,0.0,0.0,0.0,0.0,0.0,0.0,0.0,0.0,0.0,0.0,0.0,0.0,0.0,0.0,0.0,0.0,0.0,0.0,0.0,0.0,0.0,0.0,0.0,0.0,0.0,0.0,0.0,0.0,0.0,0.0,0.0,0.0,0.0,0.0,0.0,0.0,0.0,0.0,0.0,0.0,0.0,0.0,0.0,0.0,0.0,0.0,0.0,0.0,0.0,0.0,0.0,0.0,0.0,0.0,0.0,0.0,0.0,0.0,0.0,0.0,0.0,0.0,0.0,0.0,0.0,0.0,0.0,0.0,0.0,0.0,0.0,0.0,0.0,0.0,0.0,0.0,0.0,0.0,0.0,0.0,0.0,0.0,0.0,0.0,0.0,0.0,0.0,0.0,0.0,0.0,0.0,0.0,0.0,0.0,0.0,0.0,0.0,0.0,0.0,0.0,0.0,0.0,0.0,0.0,0.0,0.0,0.0,0.0,0.0,0.0,0.0,0.0,0.0,0.0,0.0,0.0,0.0,0.0,0.0,0.0,0.0,0.0,0.0,0.0,0.0,0.0,0.0,0.0,0.0,0.0,0.0,0.0,0.0,0.0,0.0,0.0,0.0,0.0,0.0,0.0,0.0,0.0,0.0,0.0,0.0,0.0,0.0,0.0,0.0,0.0,0.0,0.0,0.0,0.0,0.0,0.0,0.0,0.0,0.0,0.0,0.0,0.0,0.0,0.0,0.0,0.0,0.0,0.0,0.0,0.0,0.0,0.0,0.0,0.0,0.0,0.0,0.0,0.0,0.0,0.0,0.0,0.0,0.0,0.0,0.0,0.0,0.0,0.0,0.0,0.0,0.0,0.0,0.0,0.0,0.0,0.0,0.0,0.0,0.0,0.0,0.0,0.0,0.0,0.0,0.0,0.0,0.0,0.0,0.0,0.0,0.0,0.0,0.0,0.0,0.0,0.0,0.0,0.0,0.0,0.0,0.0,0.0,0.0,0.0,0.0,0.0,0.0,0.0,0.0,0.0,0.0,0.0,0.0,0.0,0.0,0.0,0.0,0.0,0.0,0.0,0.0,0.0,0.0,0.0,0.0,0.0,0.0,0.0,0.0,0.0,0.0,0.0,0.0,0.0,0.0,0.0,0.0,0.0,0.0,0.0,0.0,0.0,0.0,0.0,0.0,0.0,0.0,0.0,0.0,0.0,0.0,0.0,0.0,0.0,0.0,0.0,0.0,0.0,0.0,0.0,0.0,0.0,0.0,0.0,0.0,0.0,0.0,0.0,0.0,0.0,0.0,0.0,0.0,0.0,0.0,0.0,0.0,0.0,0.0,0.0,0.0,0.0,0.0,0.0,0.0,0.0,0.0,0.0,0.0,0.0,0.0,0.0,0.0,0.0,0.0,0.0,0.0,0.0,0.0,0.0,0.0,0.0,0.0,0.0,0.0,0.0,0.0,0.0,0.0,0.0,0.0,0.0,0.0,0.0,0.0,0.0,-1.9712,0.0,0.0,0.0,0.0,0.0,0.0,0.0,0.0,0.0,0.0,0.0,0.0,0.0,0.0,0.0,0.0,0.0,0.0,0.0,0.0,0.0,0.0,0.0,0.0,0.0,0.0,0.0,0.0,0.0,0.0,0.0,0.0,0.0,0.0,0.0,0.0,0.0,0.0,0.0,0.0,0.0,0.0,0.0,0.0,0.0,0.0,0.0,0.0,0.0,0.0,0.0,0.0,0.0,0.0,0.0,0.0,0.0,0.0,0.0,0.0,0.0,0.0,0.0,0.0,0.0,0.0,0.0,0.0,0.0,0.0,0.0,0.0,0.0,0.0,0.0,0.0,0.0,0.0,0.0,0.0,0.0,0.0,0.0,0.0,0.0,0.0,0.0,0.0,0.0,0.0,0.0,0.0,0.0,0.0,0.0,0.0,0.0,0.0,0.0,0.0,0.0,0.0,0.0,0.0,0.0,0.0,0.0,0.0,0.0,0.0,-1.9232,-1.9344,-1.9341,-1.9416,-1.9546,0.0,0.0,0.0,0.0,0.0,0.0,0.0,0.0,0.0,0.0,0.0,0.0,0.0,0.0,0.0,0.0,0.0,0.0,0.0,0.0,0.0,0.0,0.0,0.0,0.0,0.0,0.0,0.0,0.0,0.0,0.0,0.0,0.0,0.0,0.0,0.0,0.0,0.0,0.0,0.0,0.0,0.0,0.0,0.0,0.0,0.0,0.0,0.0,0.0,0.0,0.0,0.0,0.0,0.0,0.0,0.0,0.0,0.0,0.0,0.0,0.0,0.0,0.0,0.0,0.0,0.0,0.0,0.0,0.0,0.0,0.0,0.0,0.0,0.0,0.0,0.0,0.0,0.0,0.0,0.0,0.0,0.0,0.0,0.0,0.0,0.0,0.0,0.0,0.0,0.0,0.0,0.0,0.0,0.0,0.0,0.0,0.0,0.0,0.0,0.0,0.0,0.0,0.0,0.0,0.0,0.0,0.0,0.0,0.0,0.0,0.0,0.0,-1.9248,-1.9295,-1.9383,0.0,0.0,0.0,0.0,0.0,0.0,0.0,0.0,0.0,0.0,0.0,0.0,0.0,0.0,0.0,0.0,0.0,0.0,0.0,0.0,0.0,0.0,0.0,0.0,0.0,0.0,0.0,0.0,0.0,0.0,0.0,0.0,0.0,0.0,0.0,0.0,0.0,0.0,0.0,0.0,0.0,0.0,0.0,0.0,0.0,0.0,0.0,0.0,0.0,0.0,0.0,0.0,0.0,0.0,0.0,0.0,0.0,0.0,0.0,0.0,0.0,0.0,0.0,0.0,0.0,0.0,0.0,0.0,0.0,0.0,0.0,0.0,0.0,0.0,0.0,0.0,0.0,0.0,0.0,0.0,0.0,0.0,0.0,0.0,0.0,0.0,0.0,0.0,0.0,0.0,0.0,0.0,0.0,0.0,0.0,0.0,0.0,0.0,0.0,0.0,0.0,0.0,0.0,0.0,0.0,0.0,0.0,0.0,0.0,0.0,-1.9102,-1.9115,-1.9115,0.0,-1.9298,0.0,0.0,0.0,0.0,0.0,0.0,0.0,0.0,0.0,0.0,0.0,0.0,0.0,0.0,0.0,0.0,0.0,0.0,0.0,0.0,0.0,0.0,0.0,0.0,0.0,0.0,0.0,0.0,0.0,0.0,0.0,0.0,0.0,0.0,0.0,0.0,0.0,0.0,0.0,0.0,0.0,0.0,0.0,0.0,0.0,0.0,0.0,0.0,0.0,0.0,0.0,0.0,0.0,0.0,0.0,0.0,0.0,0.0,0.0,0.0,0.0,0.0,0.0,0.0,0.0,0.0,0.0,0.0,0.0,0.0,0.0,0.0,0.0,0.0,0.0,0.0,0.0,0.0,0.0,0.0,0.0,0.0,0.0,0.0,0.0,0.0,0.0,0.0,0.0,0.0,0.0,0.0,0.0,0.0,0.0,0.0,0.0,0.0,0.0,0.0,0.0,0.0,0.0,0.0,0.0,0.0,0.0,0.0,0.0,0.0,-1.9104,-1.9102,-1.9117,-1.9134,0.0,0.0,0.0,0.0,0.0,0.0,0.0,0.0,0.0,0.0,0.0,0.0,0.0,0.0,0.0,0.0,0.0,0.0,0.0,0.0,0.0,0.0,0.0,0.0,0.0,0.0,0.0,0.0,0.0,0.0,0.0,0.0,0.0,0.0,0.0,0.0,0.0,0.0,0.0,0.0,0.0,0.0,0.0,0.0,0.0,0.0,0.0,0.0,0.0,0.0,0.0,0.0,0.0,0.0,0.0,0.0,0.0,0.0,0.0,0.0,0.0,0.0,0.0,0.0,0.0,0.0,0.0,0.0,0.0,0.0,0.0,0.0,0.0,0.0,0.0,0.0,0.0,0.0,0.0,0.0,0.0,0.0,0.0,0.0,0.0,0.0,0.0,0.0,0.0,0.0,0.0,0.0,0.0,0.0,0.0,0.0,0.0,0.0,0.0,0.0,0.0,0.0,0.0,0.0,0.0,0.0,0.0,0.0,0.0,0.0,-1.9431,-1.9431,-1.9431,-1.9429,-1.9319,-1.9117,0.0,0.0,0.0,0.0,0.0,0.0,0.0,0.0,0.0,0.0,0.0,0.0,0.0,0.0,0.0,0.0,0.0,0.0,0.0,0.0,0.0,0.0,0.0,0.0,0.0,0.0,0.0,0.0,0.0,0.0,0.0,0.0,0.0,0.0,0.0,0.0,0.0,0.0,0.0,0.0,0.0,0.0,0.0,0.0,0.0,0.0,0.0,0.0,0.0,0.0,0.0,0.0,0.0,0.0,0.0,0.0,0.0,0.0,0.0,0.0,0.0,0.0,0.0,0.0,0.0,0.0,0.0,0.0,0.0,0.0,0.0,0.0,0.0,0.0,0.0,0.0,0.0,0.0,0.0,0.0,0.0,0.0,0.0,0.0,0.0,0.0,0.0,0.0,0.0,0.0,0.0,0.0,0.0,0.0,0.0,0.0,0.0,0.0,0.0,0.0,0.0,0.0,0.0,0.0,0.0,0.0,0.0,0.0,-2.021,-2.0246,-2.0264,-2.0246,-2.0246,-1.9884,0.0,0.0,0.0,0.0,0.0,0.0,0.0,0.0,0.0,0.0,0.0,0.0,0.0,0.0,0.0,0.0,0.0,0.0,0.0,0.0,0.0,0.0,0.0,0.0,0.0,0.0,0.0,0.0,0.0,0.0,0.0,0.0,0.0,0.0,0.0,0.0,0.0,0.0,0.0,0.0,0.0,0.0,0.0,0.0,0.0,0.0,0.0,0.0,0.0,0.0,0.0,0.0,0.0,0.0,0.0,0.0,0.0,0.0,0.0,0.0,0.0,0.0,0.0,0.0,0.0,0.0,0.0,0.0,0.0,0.0,0.0,0.0,0.0,0.0,0.0,0.0,0.0,0.0,0.0,0.0,0.0,0.0,0.0,0.0,0.0,0.0,0.0,0.0,0.0,0.0,0.0,0.0,0.0,0.0,0.0,0.0,0.0,0.0,0.0,0.0,0.0,0.0,0.0,0.0,0.0,0.0,0.0,0.0,0.0,-2.0282,-2.0789,-2.1061,-2.1061,-2.0572,-2.0155,0.0,0.0,0.0,0.0,0.0,0.0,0.0,0.0,0.0,0.0,0.0,0.0,0.0,0.0,0.0,0.0,0.0,0.0,0.0,0.0,0.0,0.0,0.0,0.0,0.0,0.0,0.0,0.0,0.0,0.0,0.0,0.0,0.0,0.0,0.0,0.0,0.0,0.0,0.0,0.0,0.0,0.0,0.0,0.0,0.0,0.0,0.0,0.0,0.0,0.0,0.0,0.0,0.0,0.0,0.0,0.0,0.0,0.0,0.0,0.0,0.0,0.0,0.0,0.0,0.0,0.0,0.0,0.0,0.0,0.0,0.0,0.0,0.0,0.0,0.0,0.0,0.0,0.0,0.0,0.0,0.0,0.0,0.0,0.0,0.0,0.0,0.0,0.0,0.0,0.0,0.0,0.0,0.0,0.0,0.0,0.0,0.0,0.0,0.0,0.0,0.0,0.0,0.0,0.0,0.0,0.0,0.0,0.0,0.0,-2.1005,0.0,-2.2128,-2.1894,-2.1369,-2.0825,0.0,0.0,0.0,0.0,0.0,0.0,0.0,0.0,0.0,0.0,0.0,0.0,0.0,0.0,0.0,0.0,0.0,0.0,0.0,0.0,0.0,0.0,0.0,0.0,0.0,0.0,0.0,0.0,0.0,0.0,0.0,0.0,0.0,0.0,0.0,0.0,0.0,0.0,0.0,0.0,0.0,0.0,0.0,0.0,0.0,0.0,0.0,0.0,0.0,0.0,0.0,0.0,0.0,0.0,0.0,0.0,0.0,0.0,0.0,0.0,0.0,0.0,0.0,0.0,0.0,0.0,0.0,0.0,0.0,0.0,0.0,0.0,0.0,0.0,0.0,0.0,0.0,0.0,0.0,0.0,0.0,0.0,0.0,0.0,0.0,0.0,0.0,0.0,0.0,0.0,0.0,0.0,0.0,0.0,0.0,0.0,0.0,0.0,0.0,0.0,0.0,0.0,0.0,0.0,0.0,0.0,0.0,0.0,-2.1021,-2.2535,-2.3368,-2.3446,-2.2743,-2.2689,-2.1948,0.0,0.0,0.0,0.0,0.0,0.0,0.0,0.0,0.0,0.0,0.0,0.0,0.0,0.0,0.0,0.0,0.0,0.0,0.0,0.0,0.0,0.0,0.0,0.0,0.0,0.0,0.0,0.0,0.0,0.0,0.0,0.0,0.0,0.0,0.0,0.0,0.0,0.0,0.0,0.0,0.0,0.0,0.0,0.0,0.0,0.0,0.0,0.0,0.0,0.0,0.0,0.0,0.0,0.0,0.0,0.0,0.0,0.0,0.0,0.0,0.0,0.0,0.0,0.0,0.0,0.0,0.0,0.0,0.0,0.0,0.0,0.0,0.0,0.0,0.0,0.0,0.0,0.0,0.0,0.0,0.0,0.0,0.0,0.0,0.0,0.0,0.0,0.0,0.0,0.0,0.0,0.0,0.0,0.0,0.0,0.0,0.0,0.0,0.0,0.0,0.0,0.0,0.0,0.0,0.0,0.0,0.0,0.0,0.0,-2.3358,-2.4198,-2.449,-2.4216,-2.372,-2.2727,0.0,0.0,0.0,0.0,0.0,0.0,0.0,0.0,0.0,0.0,0.0,0.0,0.0,0.0,0.0,0.0,0.0,0.0,0.0,0.0,0.0,0.0,0.0,0.0,0.0,0.0,0.0,0.0,0.0,0.0,0.0,0.0,0.0,0.0,0.0,0.0,0.0,0.0,0.0,0.0,0.0,0.0,0.0,0.0,0.0,0.0,0.0,0.0,0.0,0.0,0.0,0.0,0.0,0.0,0.0,0.0,0.0,0.0,0.0,0.0,0.0,0.0,0.0,0.0,0.0,0.0,0.0,0.0,0.0,0.0,0.0,0.0,0.0,0.0,0.0,0.0,0.0,0.0,0.0,0.0,0.0,0.0,0.0,0.0,0.0,0.0,0.0,0.0,0.0,0.0,0.0,0.0,0.0,0.0,0.0,0.0,0.0,0.0,0.0,0.0,0.0,0.0,0.0,0.0,0.0,0.0,0.0,0.0,0.0,-2.4962,-2.5229,-2.5366,-2.5348,-2.4621,-2.365,-2.2401,0.0,0.0,0.0,0.0,0.0,0.0,0.0,0.0,0.0,0.0,0.0,0.0,0.0,0.0,0.0,0.0,0.0,0.0,0.0,0.0,0.0,0.0,0.0,0.0,0.0,0.0,0.0,0.0,0.0,0.0,0.0,0.0,0.0,0.0,0.0,0.0,0.0,0.0,0.0,0.0,0.0,0.0,0.0,0.0,0.0,0.0,0.0,0.0,0.0,0.0,0.0,0.0,0.0,0.0,0.0,0.0,0.0,0.0,0.0,0.0,0.0,0.0,0.0,0.0,0.0,0.0,0.0,0.0,0.0,0.0,0.0,0.0,0.0,0.0,0.0,0.0,0.0,0.0,0.0,0.0,0.0,0.0,0.0,0.0,0.0,0.0,0.0,0.0,0.0,0.0,0.0,0.0,0.0,0.0,0.0,0.0,0.0,0.0,0.0,0.0,0.0,0.0,0.0,0.0,0.0,0.0,0.0,0.0,-2.7082,-2.6469,-2.6165,-2.6146,-2.5452,-2.4664,0.0,0.0,0.0,0.0,0.0,0.0,0.0,0.0,0.0,0.0,0.0,0.0,0.0,0.0,0.0,0.0,0.0,0.0,0.0,0.0,0.0,0.0,0.0,0.0,0.0,0.0,0.0,0.0,0.0,0.0,0.0,0.0,0.0,0.0,0.0,0.0,0.0,0.0,0.0,0.0,0.0,0.0,0.0,0.0,0.0,0.0,0.0,0.0,0.0,0.0,0.0,0.0,0.0,0.0,0.0,0.0,0.0,0.0,0.0,0.0,0.0,0.0,0.0,0.0,0.0,0.0,0.0,0.0,0.0,0.0,0.0,0.0,0.0,0.0,0.0,0.0,0.0,0.0,0.0,0.0,0.0,0.0,0.0,0.0,0.0,0.0,0.0,0.0,0.0,0.0,0.0,0.0,0.0,0.0,0.0,0.0,0.0,0.0,0.0,0.0,0.0,0.0,0.0,0.0,0.0,0.0,0.0,0.0,0.0,-2.7082,-2.7528,-2.7515,-2.6995,-2.6266,-2.5226,0.0,0.0,0.0,0.0,0.0,0.0,0.0,0.0,0.0,0.0,0.0,0.0,0.0,0.0,0.0,0.0,0.0,0.0,0.0,0.0,0.0,0.0,0.0,0.0,0.0,0.0,0.0,0.0,0.0,0.0,0.0,0.0,0.0,0.0,0.0,0.0,0.0,0.0,0.0,0.0,0.0,0.0,0.0,0.0,0.0,0.0,0.0,0.0,0.0,0.0,0.0,0.0,0.0,0.0,0.0,0.0,0.0,0.0,0.0,0.0,0.0,0.0,0.0,0.0,0.0,0.0,0.0,0.0,0.0,0.0,0.0,0.0,0.0,0.0,0.0,0.0,0.0,0.0,0.0,0.0,0.0,0.0,0.0,0.0,0.0,0.0,0.0,0.0,0.0,0.0,0.0,0.0,0.0,0.0,0.0,0.0,0.0,0.0,0.0,0.0,0.0,0.0,0.0,0.0,0.0,0.0,0.0,0.0,-2.6928,-2.812,-2.8658,-2.8755,-2.8363,-2.694,-2.5787,0.0,0.0,0.0,0.0,0.0,0.0,0.0,0.0,0.0,0.0,0.0,0.0,0.0,0.0,0.0,0.0,0.0,0.0,0.0,0.0,0.0,0.0,0.0,0.0,0.0,0.0,0.0,0.0,0.0,0.0,0.0,0.0,0.0,0.0,0.0,0.0,0.0,0.0,0.0,0.0,0.0,0.0,0.0,0.0,0.0,0.0,0.0,0.0,0.0,0.0,0.0,0.0,0.0,0.0,0.0,0.0,0.0,0.0,0.0,0.0,0.0,0.0,0.0,0.0,0.0,0.0,0.0,0.0,0.0,0.0,0.0,0.0,0.0,0.0,0.0,0.0,0.0,0.0,0.0,0.0,0.0,0.0,0.0,0.0,0.0,0.0,0.0,0.0,0.0,0.0,0.0,0.0,0.0,0.0,0.0,0.0,0.0,0.0,0.0,0.0,0.0,0.0,0.0,0.0,0.0,0.0,0.0,0.0,-2.7205,-2.953,-2.9674,-2.971,-2.9717,-2.7616,-2.6367,0.0,0.0,0.0,0.0,0.0,0.0,0.0,0.0,0.0,0.0,0.0,0.0,0.0,0.0,0.0,0.0,0.0,0.0,0.0,0.0,0.0,0.0,0.0,0.0,0.0,0.0,0.0,0.0,0.0,0.0,0.0,0.0,0.0,0.0,0.0,0.0,0.0,0.0,0.0,0.0,0.0,0.0,0.0,0.0,0.0,0.0,0.0,0.0,0.0,0.0,0.0,0.0,0.0,0.0,0.0,0.0,0.0,0.0,0.0,0.0,0.0,0.0,0.0,0.0,0.0,0.0,0.0,0.0,0.0,0.0,0.0,0.0,0.0,0.0,0.0,0.0,0.0,0.0,0.0,0.0,0.0,0.0,0.0,0.0,0.0,0.0,0.0,0.0,0.0,0.0,0.0,0.0,0.0,0.0,0.0,0.0,0.0,0.0,0.0,0.0,0.0,0.0,0.0,0.0,0.0,0.0,0.0,0.0,-2.7579,-2.953,-2.9674,-2.971,-2.9771,-2.8685,-2.7483,0.0,0.0,0.0,0.0,0.0,0.0,0.0,0.0,0.0,0.0,0.0,0.0,0.0,0.0,0.0,0.0,0.0,0.0,0.0,0.0,0.0,0.0,0.0,0.0,0.0,0.0,0.0,0.0,0.0,0.0,0.0,0.0,0.0,0.0,0.0,0.0,0.0,0.0,0.0,0.0,0.0,0.0,0.0,0.0,0.0,0.0,0.0,0.0,-1.0621,0.0,0.0,0.0,0.0,0.0,0.0,0.0,0.0,0.0,0.0,0.0,0.0,0.0,0.0,0.0,0.0,0.0,0.0,0.0,0.0,0.0,0.0,0.0,0.0,0.0,0.0,0.0,0.0,0.0,0.0,0.0,0.0,0.0,0.0,0.0,0.0,0.0,0.0,0.0,0.0,0.0,0.0,0.0,0.0,0.0,0.0,0.0,0.0,0.0,0.0,0.0,0.0,0.0,0.0,0.0,0.0,0.0,0.0,0.0,-2.8062,-3.0116,-3.027,-3.0324,-3.0333,-2.9952,-2.8612,0.0,0.0,0.0,0.0,0.0,0.0,0.0,0.0,0.0,0.0,0.0,0.0,0.0,0.0,0.0,0.0,0.0,0.0,0.0,0.0,0.0,0.0,0.0,0.0,0.0,0.0,0.0,0.0,0.0,0.0,0.0,0.0,0.0,0.0,0.0,0.0,0.0,0.0,0.0,0.0,0.0,0.0,0.0,0.0,0.0,0.0,0.0,0.0,0.0,0.0,0.0,0.0,0.0,0.0,0.0,0.0,0.0,0.0,0.0,0.0,0.0,0.0,0.0,0.0,0.0,0.0,0.0,0.0,0.0,0.0,0.0,0.0,0.0,0.0,0.0,0.0,0.0,0.0,0.0,0.0,0.0,0.0,0.0,0.0,0.0,0.0,0.0,0.0,0.0,0.0,0.0,0.0,0.0,0.0,0.0,0.0,0.0,0.0,0.0,0.0,0.0,0.0,0.0,0.0,0.0,0.0,0.0,-2.6837,-2.8474,-3.0784,-3.0975,-3.1003,-3.1003,-3.1003,-2.9481,-2.6331,0.0,0.0,0.0,0.0,0.0,0.0,0.0,0.0,0.0,0.0,0.0,0.0,0.0,0.0,0.0,0.0,0.0,0.0,0.0,0.0,0.0,0.0,0.0,0.0,0.0,0.0,0.0,0.0,0.0,0.0,0.0,0.0,0.0,0.0,0.0,0.0,0.0,0.0,-1.1626,-1.1978,0.0,0.0,0.0,0.0,0.0,0.0,0.0,0.0,-1.0774,0.0,0.0,0.0,0.0,0.0,0.0,0.0,0.0,0.0,0.0,0.0,0.0,0.0,0.0,0.0,0.0,0.0,0.0,0.0,0.0,0.0,0.0,0.0,0.0,0.0,0.0,0.0,0.0,0.0,0.0,0.0,0.0,0.0,0.0,0.0,0.0,0.0,0.0,0.0,0.0,0.0,0.0,0.0,0.0,0.0,0.0,0.0,0.0,0.0,0.0,0.0,0.0,0.0,0.0,0.0,0.0,-2.5991,-2.6837,-2.8474,-3.0838,-3.0975,-3.1003,-3.1003,-3.1003,-2.9481,-2.6421,0.0,0.0,0.0,0.0,0.0,0.0,0.0,0.0,0.0,0.0,0.0,0.0,0.0,0.0,0.0,0.0,0.0,0.0,0.0,0.0,0.0,0.0,0.0,0.0,0.0,0.0,0.0,0.0,0.0,0.0,0.0,0.0,0.0,0.0,0.0,0.0,0.0,0.0,0.0,-1.2092,-1.2089,0.0,0.0,0.0,0.0,0.0,0.0,0.0,0.0,-1.0611,0.0,0.0,0.0,0.0,0.0,0.0,0.0,0.0,0.0,0.0,0.0,0.0,0.0,0.0,0.0,0.0,0.0,0.0,0.0,0.0,0.0,0.0,0.0,0.0,0.0,0.0,0.0,0.0,0.0,0.0,0.0,0.0,0.0,0.0,0.0,0.0,0.0,0.0,0.0,0.0,0.0,0.0,0.0,0.0,0.0,0.0,0.0,0.0,0.0,0.0,0.0,0.0,0.0,0.0,0.0,-2.6164,-2.7766,-2.9383,-3.0893,-3.1373,-3.1437,-3.1003,-3.1003,-2.9481,0.0,0.0,0.0,0.0,0.0,0.0,0.0,0.0,0.0,0.0,0.0,0.0,0.0,0.0,0.0,0.0,0.0,0.0,0.0,0.0,0.0,0.0,0.0,0.0,0.0,0.0,0.0,0.0,0.0,0.0,0.0,0.0,0.0,0.0,0.0,0.0,0.0,0.0,0.0,0.0,-1.2565,-1.2582,-1.2758,0.0,0.0,0.0,0.0,0.0,0.0,-1.1965,-1.1713,0.0,0.0,0.0,0.0,0.0,0.0,0.0,0.0,0.0,0.0,0.0,0.0,0.0,0.0,0.0,0.0,0.0,0.0,0.0,0.0,0.0,0.0,0.0,0.0,0.0,0.0,0.0,0.0,0.0,0.0,0.0,0.0,0.0,0.0,0.0,0.0,0.0,0.0,0.0,0.0,0.0,0.0,0.0,0.0,0.0,0.0,0.0,0.0,0.0,0.0,0.0,0.0,0.0,0.0,0.0,-2.6276,-2.8576,-3.017,-3.0985,-3.1781,-3.1818,-3.1021,-3.1003,-2.95,0.0,0.0,0.0,0.0,0.0,0.0,0.0,0.0,0.0,0.0,0.0,0.0,0.0,0.0,0.0,0.0,0.0,0.0,0.0,0.0,0.0,0.0,0.0,0.0,0.0,0.0,0.0,0.0,0.0,0.0,0.0,0.0,0.0,0.0,0.0,0.0,0.0,0.0,0.0,0.0,0.0,-1.3247,-1.3628,-1.3645,0.0,0.0,0.0,0.0,-1.3305,-1.3068,0.0,0.0,0.0,0.0,0.0,0.0,0.0,0.0,0.0,0.0,0.0,0.0,0.0,0.0,0.0,0.0,0.0,0.0,0.0,0.0,0.0,0.0,0.0,0.0,0.0,0.0,0.0,0.0,0.0,0.0,0.0,0.0,0.0,0.0,0.0,0.0,0.0,0.0,0.0,0.0,0.0,0.0,0.0,0.0,0.0,0.0,0.0,0.0,0.0,0.0,0.0,0.0,0.0,0.0,0.0,0.0,-2.6276,-2.8576,-3.0188,-3.0985,-3.1781,-3.1818,-3.1021,-3.1003,-2.9481,0.0,0.0,0.0,0.0,0.0,0.0,0.0,0.0,0.0,0.0,0.0,0.0,0.0,0.0,0.0,0.0,0.0,0.0,0.0,0.0,0.0,0.0,0.0,0.0,0.0,0.0,0.0,0.0,0.0,0.0,0.0,0.0,0.0,0.0,0.0,0.0,0.0,0.0,0.0,0.0,0.0,-1.3893,-1.394,-1.3952,-1.3912,0.0,0.0,-1.3697,-1.3668,-1.344,0.0,0.0,0.0,0.0,0.0,0.0,0.0,0.0,0.0,0.0,0.0,0.0,0.0,0.0,0.0,0.0,0.0,0.0,0.0,0.0,0.0,0.0,0.0,0.0,0.0,0.0,0.0,0.0,0.0,0.0,0.0,0.0,0.0,0.0,0.0,0.0,0.0,0.0,0.0,0.0,0.0,0.0,0.0,0.0,0.0,0.0,0.0,0.0,0.0,0.0,0.0,0.0,0.0,0.0,0.0,-2.6186,-2.6312,-2.9011,-3.064,-3.1003,-3.2216,-3.227,-3.1021,-3.1003,-2.9481,0.0,0.0,0.0,0.0,0.0,0.0,0.0,0.0,0.0,0.0,0.0,0.0,0.0,0.0,0.0,0.0,0.0,0.0,0.0,0.0,0.0,0.0,0.0,0.0,0.0,0.0,0.0,0.0,0.0,0.0,0.0,0.0,0.0,0.0,0.0,0.0,0.0,0.0,0.0,0.0,0.0,0.0,-1.5473,-1.5727,0.0,0.0,0.0,-1.5873,-1.5737,0.0,0.0,0.0,0.0,0.0,0.0,0.0,0.0,0.0,0.0,0.0,0.0,0.0,0.0,0.0,0.0,0.0,0.0,0.0,0.0,0.0,0.0,0.0,0.0,0.0,0.0,0.0,0.0,0.0,0.0,0.0,0.0,0.0,0.0,0.0,0.0,0.0,0.0,0.0,0.0,0.0,0.0,0.0,0.0,0.0,0.0,0.0,0.0,0.0,0.0,0.0,0.0,0.0,0.0,0.0,0.0,0.0,-2.6548,-2.9463,-3.1003,-3.1039,-3.256,-3.2723,-3.1347,-3.1111,0.0,0.0,0.0,0.0,0.0,0.0,0.0,0.0,0.0,0.0,0.0,0.0,0.0,0.0,0.0,0.0,0.0,0.0,0.0,0.0,0.0,0.0,0.0,0.0,0.0,0.0,0.0,-1.5389,0.0,0.0,0.0,0.0,0.0,0.0,0.0,0.0,0.0,0.0,0.0,0.0,0.0,0.0,-1.6274,-1.6902,-1.7255,-1.7472,0.0,0.0,-1.7557,-1.7424,-1.7228,-1.6884,0.0,0.0,0.0,0.0,0.0,0.0,0.0,0.0,0.0,0.0,0.0,0.0,0.0,0.0,0.0,0.0,0.0,0.0,0.0,0.0,0.0,0.0,0.0,0.0,0.0,0.0,0.0,0.0,0.0,0.0,0.0,0.0,0.0,0.0,0.0,0.0,0.0,0.0,0.0,0.0,0.0,0.0,0.0,0.0,0.0,0.0,0.0,0.0,0.0,0.0,0.0,0.0,0.0,0.0,0.0,-2.7399,-2.9753,-3.1003,-3.1039,-3.256,-3.2995,-3.2144,-3.1383,-3.0188,0.0,0.0,0.0,0.0,0.0,0.0,0.0,0.0,0.0,0.0,0.0,0.0,0.0,0.0,0.0,0.0,0.0,0.0,0.0,0.0,0.0,0.0,0.0,0.0,0.0,0.0,0.0,0.0,0.0,0.0,0.0,0.0,0.0,0.0,0.0,0.0,0.0,0.0,0.0,0.0,0.0,-1.7496,-1.7701,-1.7738,-1.7774,0.0,0.0,-1.7762,-1.7762,-1.7581,-1.7277,-1.7116,0.0,0.0,0.0,0.0,0.0,0.0,0.0,0.0,0.0,0.0,0.0,0.0,0.0,0.0,0.0,0.0,0.0,0.0,0.0,0.0,0.0,0.0,0.0,0.0,0.0,0.0,0.0,0.0,0.0,0.0,0.0,0.0,0.0,0.0,0.0,0.0,0.0,0.0,0.0,0.0,0.0,0.0,0.0,0.0,0.0,0.0,0.0,0.0,0.0,0.0,0.0,0.0,0.0,-2.6602,-2.7393,-2.9771,-3.1003,-3.1057,-3.2578,-3.3031,-3.2216,-3.1419,-3.0242,0.0,0.0,0.0,0.0,0.0,0.0,0.0,0.0,0.0,0.0,0.0,0.0,0.0,0.0,0.0,0.0,0.0,0.0,0.0,0.0,0.0,0.0,0.0,0.0,0.0,0.0,0.0,0.0,-1.6178,-1.6165,-1.5716,0.0,0.0,0.0,0.0,0.0,0.0,0.0,0.0,0.0,0.0,-1.824,-1.8388,-1.9032,0.0,0.0,-1.9843,-2.0067,-1.9961,-1.9682,-1.9414,-1.9166,-1.8672,0.0,0.0,0.0,0.0,0.0,0.0,0.0,0.0,0.0,0.0,0.0,0.0,0.0,0.0,0.0,0.0,0.0,0.0,0.0,0.0,0.0,0.0,0.0,0.0,0.0,0.0,0.0,0.0,0.0,0.0,0.0,0.0,0.0,0.0,0.0,0.0,0.0,0.0,0.0,0.0,0.0,0.0,0.0,0.0,0.0,0.0,0.0,0.0,0.0,0.0,0.0,0.0,-2.7073,-2.8123,-3.0007,-3.1111,-3.1365,-3.2705,-3.314,-3.2578,-3.1781,-3.0713,0.0,0.0,0.0,0.0,0.0,0.0,0.0,0.0,0.0,0.0,0.0,0.0,0.0,0.0,0.0,0.0,0.0,0.0,0.0,0.0,0.0,0.0,0.0,0.0,0.0,0.0,0.0,0.0,-1.7038,-1.6981,-1.6529,0.0,0.0,0.0,0.0,0.0,0.0,0.0,0.0,0.0,0.0,-1.9458,-1.9723,-2.036,-2.0903,-2.097,-2.1285,-2.1493,-2.1381,-2.1144,-2.0848,-2.0586,0.0,0.0,0.0,0.0,0.0,0.0,0.0,0.0,0.0,0.0,0.0,0.0,0.0,0.0,0.0,0.0,0.0,0.0,0.0,0.0,0.0,0.0,0.0,0.0,0.0,0.0,0.0,0.0,0.0,0.0,-2.2581,0.0,0.0,0.0,0.0,0.0,0.0,0.0,0.0,0.0,0.0,0.0,0.0,0.0,0.0,0.0,0.0,0.0,0.0,0.0,0.0,0.0,0.0,-2.816,-2.9707,-3.0568,-3.1383,-3.2144,-3.2995,-3.3375,-3.3321,-3.2596,-3.1781,-3.0912,0.0,0.0,0.0,0.0,0.0,0.0,0.0,0.0,0.0,0.0,0.0,0.0,0.0,0.0,0.0,0.0,0.0,0.0,0.0,0.0,0.0,0.0,0.0,0.0,0.0,0.0,-1.7855,-1.7382,-1.7067,0.0,0.0,0.0,0.0,0.0,0.0,0.0,0.0,0.0,0.0,-2.0733,-2.1245,-2.1838,-2.1788,-2.169,-2.1678,-2.1605,-2.1506,-2.1531,-2.1419,-2.1156,0.0,0.0,0.0,0.0,0.0,0.0,0.0,0.0,0.0,0.0,0.0,0.0,0.0,0.0,0.0,0.0,0.0,0.0,0.0,0.0,0.0,0.0,0.0,0.0,0.0,0.0,0.0,-2.5996,-2.5939,0.0,0.0,0.0,0.0,0.0,0.0,0.0,0.0,0.0,0.0,0.0,-3.0413,-3.0895,0.0,0.0,0.0,0.0,0.0,0.0,0.0,0.0,0.0,0.0,0.0,0.0,-2.8721,-2.9789,-3.1111,-3.1944,-3.2198,-3.2977,-3.3393,-3.3393,-3.2632,-3.1564,-3.0224,0.0,0.0,0.0,0.0,0.0,0.0,0.0,0.0,0.0,0.0,0.0,0.0,0.0,0.0,0.0,0.0,0.0,0.0,0.0,0.0,0.0,0.0,0.0,0.0,0.0,-1.976,0.0,0.0,0.0,0.0,0.0,0.0,0.0,0.0,0.0,0.0,0.0,-2.0743,-2.1297,-2.1786,-2.2179,-2.2415,-2.2548,-2.2601,0.0,0.0,0.0,0.0,0.0,0.0,0.0,0.0,0.0,0.0,0.0,0.0,0.0,0.0,-1.8485,-1.8091,-1.6874,-1.5914,-1.5733,0.0,0.0,0.0,0.0,0.0,0.0,0.0,0.0,0.0,0.0,0.0,0.0,0.0,0.0,-2.7701,0.0,-2.7109,0.0,0.0,0.0,0.0,0.0,0.0,0.0,0.0,-3.122,-3.1694,-3.1741,-3.1922,-3.1783,0.0,-3.1276,-3.0079,0.0,0.0,0.0,0.0,0.0,0.0,0.0,0.0,-2.9826,-3.0622,-3.1655,-3.2343,-3.2614,-3.3121,-3.3393,-3.3375,-3.2614,-3.1719,-3.0694,-2.9616,-2.8667,0.0,0.0,0.0,0.0,0.0,0.0,0.0,0.0,0.0,0.0,0.0,0.0,0.0,0.0,0.0,0.0,0.0,0.0,0.0,0.0,0.0,0.0,0.0,-2.1259,0.0,0.0,0.0,0.0,0.0,0.0,0.0,0.0,0.0,-2.1103,-2.1642,-2.2351,-2.2821,-2.3097,-2.3326,-2.3567,0.0,0.0,0.0,0.0,0.0,0.0,0.0,-2.3258,-2.3198,-2.2969,-2.2603,-2.2258,-2.1783,-2.1467,-2.1467,0.0,0.0,-1.9784,-1.8678,-1.7877,-1.7645,-1.7202,-1.6809,-1.6655,-1.6616,-1.6561,0.0,0.0,0.0,0.0,0.0,0.0,0.0,0.0,-2.7931,-2.7969,0.0,-2.7912,0.0,0.0,0.0,0.0,0.0,-2.9661,0.0,0.0,-3.2572,-3.3269,-3.3171,-3.2963,-3.2834,-3.2676,-3.1939,-3.1477,-3.1316,-3.0457,0.0,0.0,0.0,0.0,0.0,0.0,-3.1419,-3.2125,-3.2216,-3.2614,-3.3357,-3.3375,-3.3393,-3.3375,-3.2651,-3.2272,-3.2219,-3.073,-2.9533,-2.8767,-2.7777,0.0,0.0,0.0,0.0,0.0,0.0,0.0,0.0,0.0,0.0,0.0,0.0,0.0,0.0,0.0,0.0,0.0,0.0,0.0,0.0,-2.2461,0.0,0.0,0.0,0.0,0.0,0.0,0.0,0.0,0.0,0.0,-2.2649,-2.342,-2.4315,-2.471,0.0,0.0,0.0,0.0,-2.4509,-2.4509,-2.4216,-2.3949,-2.3936,-2.376,-2.3569,-2.3463,0.0,0.0,-2.3138,-2.3125,-2.3088,-2.3125,-2.3015,-2.2548,-2.0861,-2.0344,-2.0053,-1.982,-1.9622,-1.9515,-1.916,-1.8848,-1.8855,-3.3427,0.0,0.0,0.0,0.0,-3.1278,-3.1259,-3.1259,-3.1278,-3.1259,-3.1236,-3.0663,0.0,0.0,0.0,0.0,0.0,0.0,-3.2125,-3.2789,-3.3139,-3.3971,-3.5128,-3.4772,-3.5051,-3.5863,-3.511,-3.4723,-3.4676,-3.4389,-3.3047,-3.0775,0.0,0.0,0.0,0.0,-3.1962,-3.2216,-3.2759,-3.3158,-3.3393,-3.3393,-3.3422,-3.3481,-3.3245,-3.2892,-3.2393,-3.1919,-3.1018,-2.9621,-2.871,0.0,0.0,0.0,0.0,0.0,0.0,0.0,0.0,0.0,0.0,0.0,0.0,0.0,0.0,0.0,0.0,0.0,0.0,0.0,-2.3642,-2.3961,-2.4053,0.0,0.0,0.0,0.0,0.0,0.0,0.0,0.0,0.0,-2.515,-2.512,-2.5155,0.0,0.0,-2.583,-2.5851,-2.5425,-2.5133,-2.5119,-2.4821,0.0,0.0,-2.4319,-2.4015,-2.3936,-2.37,-2.3509,-2.3437,-2.3437,-2.345,-2.3437,-2.345,-2.3263,-2.2783,-2.1972,-2.1387,-2.1162,-2.071,-2.0274,-2.0076,-1.9913,-1.9807,-3.6341,-3.4636,-3.3987,-3.3684,-3.3684,-3.3665,-3.3684,-3.37,-3.37,-3.3528,-3.3203,-3.2688,-3.2267,-3.1904,-3.1393,0.0,0.0,0.0,-3.3866,-3.4524,-3.472,-3.536,-3.6291,-3.5959,-3.6177,-3.6888,-3.6405,-3.619,-3.6161,-3.6083,-3.5057,-3.3149,0.0,0.0,-3.3019,-3.3473,-3.3728,-3.3717,-3.4171,-3.4407,-3.4407,-3.4116,-3.3818,-3.3567,-3.3549,-3.334,-3.2931,-3.2575,-3.1946,-3.0946,-3.0023,-2.9078,0.0,0.0,0.0,0.0,0.0,0.0,0.0,0.0,0.0,0.0,0.0,-2.4242,0.0,0.0,0.0,0.0,-2.5522,-2.5602,-2.5751,-2.5838,0.0,0.0,0.0,0.0,0.0,0.0,0.0,-2.5779,-2.6293,-2.6642,-2.6592,-2.644,-2.6272,-2.6133,-2.6414,-2.6539,-2.6447,0.0,-2.5783,-2.5783,-2.537,-2.5048,-2.5034,-2.4751,-2.4421,-2.4332,-2.4144,-2.4028,-2.3969,-2.391,-2.391,-2.3839,-2.3852,-2.3806,-2.3688,-2.3157,-2.2577,-2.234,-2.1844,-2.1506,-2.1377,-2.1259,-2.1152,-3.8744,-3.7865,-3.6279,-3.5534,-3.54,-3.54,-3.54,-3.54,-3.54,-3.498,-3.4292,-3.4273,-3.3853,-3.3112,-3.3023,0.0,-3.4122,-3.4849,-3.5533,-3.6125,-3.681,-3.7066,-3.6957,-3.6737,-3.6639,-3.6713,-3.6573,-3.6486,-3.6505,-3.6362,-3.6296,-3.6296,-3.6236,-3.6152,-3.5994,-3.5994,-3.5994,-3.5994,-3.5976,-3.5994,-3.5976,-3.5264,-3.4527,-3.3715,-3.3696,-3.3716,-3.368,-3.2931,-3.2484,-3.2392,-3.1583,-3.0686,-2.9728,0.0,0.0,0.0,0.0,0.0,0.0,0.0,0.0,0.0,0.0,0.0,0.0,0.0,0.0,0.0,-2.8127,0.0,-2.8145,-2.7859,0.0,0.0,0.0,-2.6647,-2.6184,-2.6732,-2.6952,-2.6598,0.0,0.0,-2.7284,-2.7335,-2.7401,-2.7233,-2.7093,-2.7018,-2.7003,-2.6645,-2.6351,-2.6351,-2.5851,-2.5467,-2.5467,-2.5147,-2.4821,-2.4677,-2.462,-2.462,-2.4563,-2.4434,-2.435,-2.4292,-2.4203,-2.4054,-2.3949,-2.3865,-2.3772,-2.3233,-2.2992,-2.2884,-2.2725,-2.2652,-2.2518,-4.0788,-4.0501,-3.9508,-3.8323,-3.712,-3.7101,-3.7101,-3.712,-3.7101,-3.7005,-3.6814,-3.6833,-3.67,-3.6509,-3.6489,-3.6571,-3.6691,-3.6901,-3.6975,-3.6996,-3.7055,-3.7347,-3.7797,-3.7553,-3.7747,-3.8301,-3.818,-3.812,-3.8138,-3.809,-3.809,-3.809,-3.8059,-3.7357,-3.6049,-3.5994,-3.5994,-3.5994,-3.5994,-3.5994,-3.5976,-3.5793,-3.5349,-3.4631,-3.4595,-3.4348,-3.3798,-3.357,-3.314,-3.2527,-3.2228,-3.1638,-3.0722,-3.0284,0.0,0.0,0.0,0.0,0.0,0.0,0.0,0.0,0.0,-2.8163,-2.8197,0.0,-2.8356,0.0,-2.8469,-2.8417,-2.8334,-2.8122,0.0,0.0,-2.7796,-2.781,-2.7333,-2.7782,-2.804,-2.778,-2.7735,-2.769,-2.764,-2.7575,-2.7524,-2.7524,-2.7386,-2.7248,-2.713,-2.6989,-2.6765,-2.6659,-2.6365,-2.6068,-2.592,-2.5536,-2.5203,-2.5048,-2.4892,-2.4721,-2.4734,-2.4607,-2.4492,-2.4363,-2.4292,-2.4203,-2.4054,-2.3949,-2.3891,-2.37,-2.3463,-2.3283,-2.3223,-2.3042,-2.2848,-4.1839,-4.1457,-4.1017,-4.0062,-3.8858,-3.8877,-3.8858,-3.8858,-3.8858,-3.8648,-3.8266,-3.7865,-3.7693,-3.7693,-3.7693,-3.785,-3.8137,-3.8137,-3.8228,-3.8373,-3.8282,-3.8364,-3.8682,-3.8396,-3.8514,-3.8892,-3.8768,-3.8707,-3.8707,-3.8707,-3.8707,-3.8707,-3.8707,-3.8187,-3.7247,-3.7211,-3.7211,-3.7211,-3.7211,-3.7028,-3.668,-3.6662,-3.6307,-3.5567,-3.5512,-3.5174,-3.4376,-3.4339,-3.3945,-3.3103,-3.2967,-3.2511,-3.1582,-3.1348,-3.0951,0.0,0.0,0.0,0.0,0.0,0.0,0.0,0.0,0.0,0.0,0.0,-2.988,-2.988,-2.971,-2.9594,-2.9555,-2.9374,-2.9156,-2.8853,-2.9043,-2.901,-2.8566,-2.8731,-2.8716,-2.835,-2.8186,-2.8005,-2.7905,-2.779,-2.7675,-2.769,-2.759,-2.7423,-2.7372,-2.7233,-2.7144,-2.7093,-2.6817,-2.6472,-2.6258,-2.5934,-2.5646,-2.5495,-2.5342,-2.5216,-2.516,-2.4948,-2.4721,-2.4637,-2.4465,-2.4292,-2.4203,-2.4041,-2.3995,-2.3936,-2.376,-2.3582,-2.3509,-2.3271,-2.315,-4.2488,-4.182,-4.1705,-4.1189,-4.0463,-4.0463,-4.0406,-4.0329,-4.0329,-3.989,-3.9126,-3.8362,-3.8018,-3.8037,-3.8037,-3.8384,-3.8956,-3.8975,-3.9252,-3.9693,-3.9642,-3.9539,-3.9399,-3.9138,-3.8979,-3.891,-3.8762,-3.8689,-3.8707,-3.8707,-3.8707,-3.8707,-3.8707,-3.8707,-3.8707,-3.8707,-3.8707,-3.8707,-3.8707,-3.834,-3.7661,-3.7643,-3.7257,-3.6505,-3.645,-3.6046,-3.521,-3.5064,-3.4632,-3.3927,-3.3716,-3.3221,-3.2407,-3.2187,-3.1673,0.0,-3.0381,0.0,0.0,0.0,0.0,0.0,0.0,0.0,0.0,-3.0835,-3.119,-3.119,-3.1112,-3.1015,-3.1032,-3.0855,-3.0634,-3.0393,-3.03,-3.006,-2.9665,-2.9441,-2.9152,-2.8669,-2.851,-2.8348,-2.8103,-2.7955,-2.784,-2.779,-2.774,-2.7625,-2.7625,-2.7488,-2.7386,-2.7401,-2.7211,-2.687,-2.6525,-2.6326,-2.6165,-2.6056,-2.5893,-2.5784,-2.577,-2.5384,-2.5048,-2.5005,-2.4708,-2.4408,-2.435,-2.4203,-2.4112,-2.4112,-2.3995,-2.3819,-2.3688,-2.3509,-2.3403,-4.3692,-4.3482,-4.2832,-4.2049,-4.1285,-4.1266,-4.0903,-4.0329,-4.0329,-4.0215,-4.0043,-3.9871,-3.9814,-3.9814,-3.9814,-3.9853,-3.9929,-3.9889,-3.9863,-3.9867,-3.967,-3.9545,-3.9395,-3.9183,-3.9017,-3.8892,-3.8822,-3.875,-3.8707,-3.8707,-3.8707,-3.8707,-3.8707,-3.8707,-3.8707,0.0,0.0,0.0,-3.8707,-3.8634,-3.8487,-3.8469,-3.8083,-3.7294,-3.7287,0.0,-3.6083,-3.5357,-3.4917,-3.477,-3.4092,0.0,0.0,0.0,0.0,0.0,0.0,0.0,0.0,0.0,0.0,0.0,-3.1121,-3.0987,-3.0987,-3.1123,-3.119,-3.119,-3.1207,-3.1095,-3.1015,-3.0975,-3.0838,-3.0634,-3.051,-3.0359,-3.0103,-2.9798,-2.9502,-2.9198,-2.8873,-2.8573,-2.8348,-2.8201,-2.8088,-2.7955,-2.784,-2.779,-2.774,-2.7625,-2.7524,-2.7386,-2.7248,-2.7078,-2.6884,-2.6832,-2.6712,-2.6592,-2.6351,-2.619,-2.6136,-2.5825,-2.5453,-2.523,-2.5005,-2.4765,-2.4607,-2.4363,-2.4247,-2.4234,-2.4157,-2.4008,-2.3878,-2.37,-2.3509,-4.4399,0.0,-4.3577,-4.266,0.0,-4.1495,-4.1036,-4.0329,-4.0329,-4.0329,-4.0329,-4.0329,-4.0329,-4.0329,-4.0329,-4.0253,-4.0196,-4.0157,-4.0057,-3.9889,-3.9781,-3.9642,-3.9452,-3.9272,-3.9129,-3.9007,-3.8862,-3.8792,-3.875,-3.8738,-3.8707,-3.8707,-3.8707,-3.8707,-3.8707,-3.8707,-3.8707,-3.8707,-3.8707,-3.8707,-3.8707,-3.8707,-3.8505,-3.812,0.0,0.0,0.0,0.0,0.0,0.0,0.0,0.0,0.0,0.0,0.0,-3.3073,-3.2752,-3.2472,-3.2214,-3.1802,-3.1559,-3.15,-3.1325,-3.119,-3.119,-3.119,-3.119,-3.119,-3.119,-3.1151,-3.1112,-3.1112,-3.1015,-3.0871,-3.0773,-3.0675,-3.0443,-3.0172,-2.9913,-2.9677,-2.9319,-2.9013,-2.8795,-2.8558,-2.8381,-2.8201,-2.8088,-2.7989,-2.7905,-2.7725,-2.7575,-2.7539,-2.7386,-2.7284,-2.7196,-2.7144,-2.7093,-2.6959,-2.675,-2.6645,-2.6539,-2.6272,-2.5879,-2.5619,-2.5384,-2.509,-2.4835,-2.4664,-2.4478,-2.4363,-2.4247,-2.4157,-2.3995,-2.3878,-2.376,-4.4895,-4.4246,-4.4227,-4.3348,-4.1953,-4.1934,-4.1495,-4.0731,0.0,0.0,0.0,-4.052,-4.0501,-4.052,-4.052,-4.0406,-4.0234,-4.0196,-4.0117,-3.9954,-3.9911,-3.9781,-3.9532,-3.9401,-3.9245,-3.9101,-3.8921,-3.8822,-3.8792,-3.8719,-3.8707,-3.8707,-3.8707,-3.8707,-3.8707,-3.8707,-3.8707,-3.8707,-3.8707,-3.8707,-3.8707,-3.8707,-3.8707,-3.8707,-3.8707,-3.8395,-3.7734,-3.7569,-3.6853,-3.5532,-3.5109,-3.4641,-3.3954,-3.3593,-3.3345,-3.3165,-3.2834,-3.2573,-3.2284,-3.1912,-3.1634,-3.1479,-3.1308,-3.119,-3.119,-3.119,-3.119,-3.119,-3.119,-3.119,-3.119,-3.119,-3.1151,-3.1055,-3.1015,-3.0935,-3.0773,-3.0493,-3.0225,-3.0054,-2.9798,-2.9547,-2.9198,-2.8997,-2.8748,-2.8525,-2.8365,-2.8235,-2.8054,-2.779,-2.7625,-2.7575,-2.7473,-2.7452,-2.7452,-2.7335,-2.7284,-2.7284,-2.713,-2.7041,-2.6884,-2.6645,-2.6312,-2.6042,-2.5742,-2.5425,-2.5174,-2.4935,-2.4778,-2.4465,-2.435,-2.4319,-2.4157,-2.4054,-2.3936,-4.522,-4.5125,-4.5105,-4.4551,-4.3654,-4.3654,-4.3195,-4.2354,-4.0922,-4.0692,-4.1323,-4.1323,-4.1323,-4.1342,-4.1323,-4.0941,-4.0291,-4.0215,-4.0176,-4.0157,-3.9994,-3.9848,-3.9758,-3.9575,-3.9376,-3.9183,-3.9036,-3.8892,-3.8792,-3.8719,-3.8707,-3.8707,-3.8707,-3.8707,-3.8707,-3.8707,-3.8707,-3.8707,-3.8707,-3.8707,-3.8707,-3.8707,-3.8707,-3.8707,-3.8707,-3.867,-3.8524,-3.7863,-3.7386,-3.7129,-3.5742,-3.4907,-3.4733,-3.4016,-3.3491,-3.3364,-3.3104,-3.2802,-3.2555,-3.2232,-3.1839,-3.1389,-3.1252,-3.119,-3.119,-3.119,-3.119,-3.119,-3.119,-3.119,-3.119,-3.119,-3.119,-3.1151,-3.1055,-3.0975,-3.0935,-3.0675,-3.041,-3.0309,-3.0228,-2.9999,-2.9576,-2.9425,-2.9243,-2.892,-2.8685,-2.8494,-2.8235,-2.794,-2.7725,-2.7625,-2.7575,-2.756,-2.7575,-2.7575,-2.7524,-2.7524,-2.7437,-2.7299,-2.7284,-2.6974,-2.6659,-2.6457,-2.6082,-2.5825,-2.5619,-2.523,-2.5005,-2.4892,-2.4721,-2.4492,-2.4305,-2.4247,-2.4144,-4.5277,-4.5277,-4.5277,-4.48,-4.3997,-4.3539,-4.3157,-4.2756,-4.1991,-4.1858,-4.2183,-4.2202,-4.1934,-4.1514,-4.1495,-4.1055,-4.0291,-4.0273,-4.0215,-4.0215,-4.0494,-4.0637,-4.0568,-4.0344,-4.0215,-4.0023,-3.9379,-3.9017,-3.895,-3.8822,-3.875,-3.8732,-3.8719,-3.8707,-3.8707,-3.8707,-3.8707,-3.8707,-3.8707,-3.8707,-3.8707,-3.8707,-3.8707,-3.8707,-3.8707,-3.8707,-3.8707,-3.834,-3.7936,-3.7496,-3.678,-3.6156,-3.5659,-3.4767,-3.4233,-3.4098,-3.3399,-3.2884,-3.2606,-3.2161,-3.1819,-3.1487,-3.1312,-3.1252,-3.1235,-3.123,-3.119,-3.119,-3.119,-3.119,-3.119,-3.119,-3.119,-3.119,-3.1134,-3.1112,-3.1072,-3.0952,-3.0757,-3.0658,-3.0518,-3.0281,-2.9984,-2.987,-2.9665,-2.9289,-2.8997,-2.8716,-2.851,-2.8268,-2.8054,-2.779,-2.7725,-2.7675,-2.7625,-2.756,-2.7625,-2.769,-2.759,-2.7539,-2.7473,-2.7284,-2.7041,-2.6817,-2.6553,-2.6326,-2.6096,-2.5715,-2.5439,-2.5118,-2.4948,-2.4721,-2.4536,-2.4363,-2.4247,-4.5277,-4.5277,-4.5277,-4.4914,-4.4246,-4.3634,-4.3367,-4.3367,-4.3367,-4.3367,-4.3348,-4.3176,-4.2698,-4.2106,-4.2068,-4.1628,-4.0941,-4.0864,-4.0845,-4.0845,-4.1357,-4.1559,-4.1506,-4.135,-4.1186,-4.0966,-3.9962,-3.9435,-3.9352,-3.9013,-3.8803,-3.8792,-3.875,-3.8689,-3.8707,-3.8707,-3.8707,-3.8707,-3.8707,-3.8707,-3.8707,-3.8707,-3.8707,-3.8707,-3.8707,-3.8707,-3.8707,-3.8707,-3.8414,-3.7808,-3.7588,-3.7232,-3.6578,-3.5637,-3.4973,-3.4666,-3.3869,-3.314,-3.2639,-3.2161,-3.1819,-3.1691,-3.1504,-3.1351,-3.1295,-3.1235,-3.123,-3.119,-3.119,-3.119,-3.119,-3.119,-3.119,-3.119,-3.119,-3.119,-3.119,-3.1128,-3.1032,-3.0992,-3.0773,-3.0568,-3.041,-3.0258,-2.9957,-2.9649,-2.9289,-2.8997,-2.8873,-2.8668,-2.8381,-2.8073,-2.786,-2.776,-2.771,-2.7725,-2.7725,-2.7855,-2.7755,-2.774,-2.769,-2.759,-2.7452,-2.7196,-2.6989,-2.6765,-2.6525,-2.6204,-2.5879,-2.5508,-2.5286,-2.5061,-2.4778,-2.4549,-2.4305,-4.5277,-4.5277,-4.5277,-4.5258,-4.5144,-4.5048,-4.4991,-4.501,-4.5048,-4.5067,-4.4895,-4.4246,-4.3845,-4.3787,-4.3711,-4.3233,-4.2526,-4.2565,-4.2526,-4.2468,-4.2562,-4.254,-4.2455,-4.2325,-4.2162,-4.1895,-4.1008,-4.0437,-4.0188,-3.9388,-3.8921,-3.8803,-3.8792,-3.878,-3.8707,-3.8707,-3.8707,-3.8707,-3.8707,-3.8707,-3.8707,-3.8707,-3.8707,-3.8707,-3.8707,-3.8707,-3.8707,-3.8707,-3.867,-3.8542,-3.7881,-3.7489,-3.7312,-3.649,-3.5645,-3.4882,-3.4588,-3.3952,-3.2841,-3.2352,-3.2073,-3.1894,-3.1691,-3.1504,-3.1334,-3.1312,-3.1274,-3.1213,-3.119,-3.119,-3.119,-3.119,-3.119,-3.119,-3.119,-3.119,-3.119,-3.1179,-3.1116,-3.1032,-3.0929,-3.0881,-3.0692,-3.0526,-3.0316,-3.0017,-2.9665,-2.9425,-2.9364,-2.9106,-2.8779,-2.8431,-2.811,-2.7894,-2.794,-2.7955,-2.7955,-2.7955,-2.797,-2.7955,-2.7905,-2.784,-2.769,-2.7554,-2.7335,-2.713,-2.6922,-2.6592,-2.6258,-2.6002,-2.5729,-2.5508,-2.5061,-2.4778,-2.4505,-4.5277,-4.5277,-4.5277,-4.5277,-4.5277,-4.5277,-4.5277,-4.5277,-4.5277,-4.5277,-4.5258,-4.4956,-4.4515,-4.4036,-4.4017,-4.3577,-4.2832,-4.2794,-4.2794,-4.2851,-4.321,-4.3378,-4.3357,-4.3289,-4.3175,-4.298,-4.2065,-4.1274,-4.0539,-3.9565,-3.9007,-3.8939,-3.8833,-3.8792,-3.878,-3.8738,-3.8707,-3.8707,-3.8707,-3.8707,-3.8707,-3.8707,-3.8707,-3.8707,-3.8707,-3.8707,-3.8707,-3.8707,-3.8707,-3.8689,-3.8377,-3.8212,-3.8193,-3.7363,-3.6698,-3.6303,-3.5169,-3.4024,-3.2952,-3.2588,-3.237,-3.2266,-3.2037,-3.1802,-3.1634,-3.1483,-3.1385,-3.1291,-3.123,-3.119,-3.119,-3.119,-3.119,-3.119,-3.119,-3.119,-3.119,-3.1168,-3.1185,-3.1112,-3.1032,-3.0969,-3.0855,-3.0733,-3.051,-3.03,-3.006,-2.9886,-2.9677,-2.9486,-2.9213,-2.892,-2.8653,-2.8381,-2.8103,-2.8005,-2.8005,-2.8103,-2.8069,-2.802,-2.8088,-2.7989,-2.7905,-2.7855,-2.769,-2.7488,-2.7386,-2.7063,-2.675,-2.6433,-2.5948,-2.5564,-2.5174,-2.4948,-2.4734,-4.5277,-4.5277,-4.5277,-4.5277,-4.5277,-4.5277,-4.5317,-4.5317,-4.5317,-4.5338,-4.5339,-4.538,-4.5015,-4.4439,-4.4381,-4.4037,-4.354,-4.3482,-4.3482,-4.3558,-4.4071,-4.4257,-4.4236,-4.423,-4.414,-4.3938,-4.3085,-4.2019,-4.0885,-4.0016,-3.9379,-3.9129,-3.895,-3.8862,-3.8851,-3.878,-3.8738,-3.8719,-3.8707,-3.8707,-3.8707,-3.8707,-3.8707,-3.8707,-3.8707,-3.8707,-3.8707,-3.8707,-3.8707,-3.8707,-3.8707,-3.8707,-3.867,-3.8077,-3.7674,-3.7266,-3.5599,-3.4243,-3.3494,-3.2991,-3.2705,-3.2539,-3.2335,-3.2144,-3.1893,-3.1726,-3.1559,-3.1389,-3.1291,-3.1213,-3.119,-3.119,-3.119,-3.119,-3.119,-3.119,-3.119,-3.119,-3.119,-3.119,-3.1112,-3.1015,-3.0975,-3.0855,-3.0733,-3.0593,-3.0443,-3.0274,-3.0027,-2.9842,-2.9637,-2.9305,-2.9261,-2.8936,-2.8363,-2.8201,-2.8186,-2.8186,-2.8152,-2.8152,-2.8235,-2.8152,-2.8054,-2.8039,-2.794,-2.7855,-2.769,-2.7437,-2.713,-2.6698,-2.6204,-2.577,-2.5495,-2.5286,-2.5061,-4.5277,-4.5297,-4.5277,-4.5277,-4.5297,-4.5297,-4.5338,-4.5398,-4.5379,-4.538,-4.54,-4.5381,-4.5362,-4.5285,-4.5246,-4.5302,-4.5226,-4.5109,-4.505,-4.505,-4.5144,-4.518,-4.5154,-4.5154,-4.5049,-4.4805,-4.4121,-4.2853,-4.1189,-4.0722,-4.0154,-3.9373,-3.9175,-3.9045,-3.8979,-3.8881,-3.8792,-3.8792,-3.8719,-3.8707,-3.8707,-3.8707,-3.8707,-3.8707,-3.8707,-3.8707,-3.8707,-3.8707,-3.8707,-3.8707,-3.8707,-3.8707,-3.8689,-3.8652,-3.8236,-3.7351,-3.5739,-3.4661,-3.4407,-3.3628,-3.3011,-3.2752,-3.2621,-3.2438,-3.2144,-3.1948,-3.1785,-3.1617,-3.1428,-3.1274,-3.123,-3.123,-3.119,-3.119,-3.119,-3.119,-3.119,-3.119,-3.119,-3.119,-3.119,-3.1112,-3.1032,-3.0992,-3.0952,-3.0855,-3.0733,-3.0609,-3.0426,-3.0241,-3.0,-2.9726,-2.9579,-2.9353,-2.8732,-2.8525,-2.8477,-2.8444,-2.8396,-2.8348,-2.8348,-2.8348,-2.8299,-2.8235,-2.8186,-2.8103,-2.7955,-2.7705,-2.7335,-2.6959,-2.6578,-2.619,-2.5865,-2.5784,-2.5508,-4.5797,-4.5316,-4.5277,-4.5277,-4.5297,-4.5338,-4.5398,-4.5398,-4.5419,-4.54,-4.5419,-4.5438,-4.5476,-4.5476,-4.5457,-4.5458,-4.5419,-4.54,-4.5361,-4.5361,-4.5361,-4.5361,-4.5321,-4.5321,-4.5279,-4.5156,-4.4906,-4.4097,-4.2777,-4.1548,-4.0747,-4.0322,-3.9593,-3.921,-3.912,-3.9007,-3.891,-3.8803,-3.878,-3.875,-3.8689,-3.8707,-3.8707,-3.8707,-3.8707,-3.8707,-3.8707,-3.8707,-3.8707,-3.8707,-3.8707,-3.8707,-3.8707,-3.8707,-3.8328,-3.7461,-3.6778,-3.5933,-3.4877,-3.434,-3.3792,-3.3104,-3.2943,-3.2752,-3.2472,-3.2249,-3.2073,-3.1912,-3.1654,-3.1521,-3.1445,-3.1291,-3.119,-3.119,-3.119,-3.119,-3.119,-3.119,-3.119,-3.119,-3.119,-3.119,-3.1151,-3.1112,-3.1072,-3.0975,-3.0918,-3.0797,-3.0634,-3.0468,-3.0241,-3.006,-2.9842,-2.9605,-2.9259,-2.8936,-2.8748,-2.8636,-2.8541,-2.8444,-2.8444,-2.8396,-2.8348,-2.8348,-2.8299,-2.825,-2.8103,-2.784,-2.7524,-2.7321,-2.6997,-2.6683,-2.6351,-2.6204,-2.5934,-4.6125,-4.5378,-4.532,-4.5339,-4.5339,-4.538,-4.5419,-4.5419,-4.5438,-4.5438,-4.5476,-4.5513,-4.555,-4.5531,-4.5531,-4.5513,-4.5457,-4.5438,-4.54,-4.54,-4.54,-4.54,-4.54,-4.54,-4.538,-4.5339,-4.5338,-4.4834,-4.383,-4.2553,-4.1798,-4.1411,-4.0384,-3.9813,-3.9717,-3.9332,-3.9017,-3.8921,-3.8881,-3.8792,-3.875,-3.8689,-3.8707,-3.8707,-3.8707,-3.8707,-3.8707,-3.8707,-3.8707,-3.8707,-3.8707,-3.8707,-3.8707,-3.8707,-3.8438,-3.7894,-3.7564,-3.6948,-3.5762,-3.5082,-3.4484,-3.3846,-3.34,-3.3055,-3.282,-3.2555,-3.2386,-3.2232,-3.1965,-3.1783,-3.1654,-3.1483,-3.1291,-3.1252,-3.123,-3.119,-3.119,-3.119,-3.119,-3.119,-3.119,-3.119,-3.119,-3.119,-3.1151,-3.1072,-3.1055,-3.0975,-3.0814,-3.0716,-3.0593,-3.0384,-3.0172,-2.9984,-2.9722,-2.9454,-2.9044,-2.8826,-2.8636,-2.8573,-2.8477,-2.8444,-2.8411,-2.8411,-2.8396,-2.8299,-2.8186,-2.7989,-2.7825,-2.769,-2.7473,-2.7167,-2.6893,-2.6669,-2.6351,-4.6186,-4.5438,-4.54,-4.54,-4.54,-4.54,-4.5438,-4.5514,-4.5495,-4.5513,-4.5568,-4.5586,-4.5586,-4.5586,-4.5586,-4.5586,-4.5568,-4.5476,-4.5419,-4.5419,-4.5419,-4.5419,-4.5419,-4.5419,-4.5438,-4.54,-4.54,-4.4938,-4.4112,-4.3721,-4.3197,-4.2427,-4.1491,-4.0896,-4.0841,-3.9888,-3.932,-3.9101,-3.8979,-3.8862,-3.8792,-3.875,-3.8719,-3.8707,-3.8689,-3.8707,-3.8707,-3.8707,-3.8707,-3.8707,-3.8707,-3.8707,-3.8707,-3.8707,-3.8689,-3.8524,-3.7955,-3.7503,-3.7168,-3.5875,-3.5159,-3.4677,-3.4025,-3.3442,-3.3188,-3.2898,-3.2687,-3.2573,-3.2301,-3.2055,-3.193,-3.1711,-3.1521,-3.1334,-3.1235,-3.123,-3.119,-3.119,-3.119,-3.119,-3.119,-3.119,-3.119,-3.119,-3.119,-3.119,-3.119,-3.1151,-3.1015,-3.0935,-3.0895,-3.0733,-3.051,-3.03,-3.0113,-2.9941,-2.9483,-2.909,-2.8842,-2.8668,-2.8573,-2.8493,-2.8444,-2.8444,-2.8411,-2.8348,-2.8299,-2.8088,-2.7989,-2.789,-2.774,-2.759,-2.7372,-2.71,-2.6826,-4.6281,-4.5569,-4.5495,-4.5457,-4.5457,-4.5476,-4.5475,-4.5513,-4.5531,-4.5605,-4.5586,-4.5586,-4.5586,-4.5586,-4.5586,-4.5586,-4.5586,-4.5549,-4.5531,-4.555,-4.5531,-4.5531,-4.555,-4.555,-4.5494,-4.5476,-4.5419,-4.5285,-4.4882,-4.4325,-4.3805,-4.338,-4.2569,-4.1753,-4.1118,-4.0645,-4.014,-3.9301,-3.9156,-3.9064,-3.895,-3.8881,-3.8822,-3.8762,-3.878,-3.875,-3.8689,-3.8707,-3.8707,-3.8707,-3.8707,-3.8707,-3.8707,-3.8707,-3.8707,-3.8689,-3.8487,-3.8028,-3.7533,-3.6971,-3.6098,-3.5206,-3.4619,-3.4095,-3.3513,-3.3178,-3.3006,-3.293,-3.2639,-3.2404,-3.2301,-3.2091,-3.1765,-3.1334,-3.1257,-3.1252,-3.123,-3.119,-3.119,-3.119,-3.119,-3.119,-3.119,-3.119,-3.119,-3.119,-3.119,-3.119,-3.1151,-3.1055,-3.1015,-3.0895,-3.0733,-3.0609,-3.0426,-3.0215,-2.9897,-2.9438,-2.9136,-2.8842,-2.8716,-2.8589,-2.8541,-2.8444,-2.8444,-2.8411,-2.8348,-2.8235,-2.8137,-2.8088,-2.7989,-2.784,-2.764,-2.7473,-2.7255,-4.6709,-4.5745,-4.5965,-4.589,-4.562,-4.5584,-4.5566,-4.5586,-4.5603,-4.5622,-4.5603,-4.5586,-4.5586,-4.5586,-4.5586,-4.5586,-4.5586,-4.5586,-4.5586,-4.5586,-4.5586,-4.5586,-4.5586,-4.5586,-4.5605,-4.5531,-4.5495,-4.5476,-4.54,-4.4902,-4.4595,-4.4383,-4.3615,-4.2862,-4.2082,-4.1446,-4.066,-4.0009,-3.9537,-3.9245,-3.9101,-3.9007,-3.8939,-3.8881,-3.8822,-3.8792,-3.875,-3.8689,-3.8707,-3.8707,-3.8707,-3.8707,-3.8707,-3.8707,-3.8707,-3.8707,-3.867,-3.845,-3.7973,-3.7624,-3.7268,-3.6358,-3.5457,-3.4851,-3.4316,-3.3898,-3.3286,-3.3196,-3.2961,-3.2737,-3.2573,-3.2404,-3.2091,-3.1637,-3.1487,-3.1351,-3.1291,-3.123,-3.119,-3.119,-3.119,-3.119,-3.119,-3.119,-3.119,-3.119,-3.119,-3.119,-3.119,-3.1151,-3.1112,-3.1032,-3.0935,-3.0814,-3.0692,-3.0468,-3.0241,-2.9853,-2.9499,-2.9152,-2.8889,-2.8779,-2.8652,-2.8541,-2.8493,-2.8411,-2.8348,-2.8348,-2.825,-2.8201,-2.8201,-2.8088,-2.794,-2.7875,-2.766,-4.7381,-4.5974,-4.6738,-4.6553,-4.5819,-4.5735,-4.5687,-4.5673,-4.5673,-4.5657,-4.5622,-4.5586,-4.5586,-4.5586,-4.5586,-4.5586,-4.5586,-4.5586,-4.5586,-4.5586,-4.5586,-4.5586,-4.5586,-4.5586,-4.5586,-4.5586,-4.5586,-4.5568,-4.5513,-4.5399,-4.5476,-4.5189,-4.4538,-4.4038,-4.3477,-4.2233,-4.1402,-4.0835,-4.007,-3.9583,-3.9362,-3.9129,-3.9007,-3.9007,-3.8892,-3.8803,-3.8792,-3.8719,-3.8707,-3.8707,-3.8707,-3.8707,-3.8707,-3.8707,-3.8707,-3.8707,-3.8707,-3.8689,-3.8505,-3.8065,-3.7783,-3.7916,-3.6413,-3.5237,-3.5475,-3.459,-3.388,-3.3749,-3.355,-3.3293,-3.3119,-3.3006,-3.2754,-3.2248,-3.1834,-3.1521,-3.1295,-3.1252,-3.123,-3.119,-3.119,-3.119,-3.119,-3.119,-3.119,-3.119,-3.119,-3.119,-3.119,-3.119,-3.119,-3.1112,-3.1015,-3.0975,-3.0855,-3.0773,-3.051,-3.0199,-2.981,-2.9499,-2.9121,-2.892,-2.8747,-2.8589,-2.8493,-2.8444,-2.8411,-2.8348,-2.8348,-2.8348,-2.8299,-2.8299,-2.8235,-2.8137,-2.7989,-4.7469,-4.6035,-4.6809,-4.6646,-4.5863,-4.5795,-4.5754,-4.569,-4.569,-4.5657,-4.5603,-4.5586,-4.5586,-4.5586,-4.5586,-4.5586,-4.5586,-4.5586,-4.5586,-4.5586,-4.5586,-4.5586,-4.5586,-4.5586,-4.5586,-4.5586,-4.5586,-4.5586,-4.5568,-4.5549,-4.5531,-4.5457,-4.5189,-4.4748,-4.4,-4.3501,-4.2521,-4.1383,-4.0923,-4.0273,-3.962,-3.9395,-3.921,-3.9073,-3.9045,-3.8931,-3.8822,-3.8719,-3.8707,-3.8707,-3.8707,-3.8707,-3.8707,-3.8707,-3.8707,-3.8707,-3.8707,-3.8707,-3.8652,-3.8487,-3.8242,-3.7801,-3.7165,-3.6476,-3.5659,-3.5546,-3.5221,-3.5089,-3.5024,-3.5028,-3.4821,-3.4706,-3.4278,-3.3354,-3.2366,-3.1631,-3.1372,-3.1295,-3.1235,-3.123,-3.119,-3.119,-3.119,-3.119,-3.119,-3.119,-3.119,-3.119,-3.119,-3.119,-3.119,-3.119,-3.1151,-3.1072,-3.1032,-3.0935,-3.0773,-3.0468,-3.0156,-2.9837,-2.9425,-2.9014,-2.8826,-2.8636,-2.8589,-2.8541,-2.8444,-2.8411,-2.8411,-2.8411,-2.8411,-2.8348,-2.8348,-2.825,-2.8152,-4.7889,-4.6102,-4.7292,-4.7042,-4.5951,-4.5874,-4.5824,-4.575,-4.5738,-4.5726,-4.5657,-4.5603,-4.5586,-4.5586,-4.5586,-4.5586,-4.5586,-4.5586,-4.5586,-4.5586,-4.5586,-4.5586,-4.5586,-4.5586,-4.5586,-4.5586,-4.5586,-4.5586,-4.5586,-4.5586,-4.5568,-4.5531,-4.5531,-4.5245,-4.4729,-4.4231,-4.3637,-4.2504,-4.1732,-4.09,-4.0333,-3.9774,-3.9496,-3.9298,-3.921,-3.9064,-3.8862,-3.878,-3.8719,-3.8707,-3.8707,-3.8707,-3.8707,-3.8707,-3.8707,-3.8707,-3.8707,-3.8707,-3.8707,-3.8707,-3.8505,-3.8028,-3.7753,-3.736,-3.6853,-3.6549,-3.6069,-3.6131,-3.6042,-3.5884,-3.5729,-3.5602,-3.4945,-3.3879,-3.2984,-3.2221,-3.161,-3.1389,-3.1312,-3.1235,-3.1213,-3.119,-3.119,-3.119,-3.119,-3.119,-3.119,-3.119,-3.119,-3.119,-3.119,-3.119,-3.119,-3.1151,-3.1112,-3.1015,-3.0975,-3.0716,-3.0384,-3.0054,-2.9633,-2.9183,-2.892,-2.8779,-2.8684,-2.8589,-2.8493,-2.8411,-2.8411,-2.8411,-2.8411,-2.8411,-2.8348,-2.8348,-2.8201,-4.8398,-4.623,-4.7913,-4.7602,-4.6143,-4.5994,-4.5925,-4.5827,-4.581,-4.577,-4.5726,-4.564,-4.5603,-4.5603,-4.5622,-4.5586,-4.5586,-4.5586,-4.5586,-4.5586,-4.5586,-4.5586,-4.5586,-4.5586,-4.5586,-4.5586,-4.5586,-4.5586,-4.5586,-4.5586,-4.5586,-4.5586,-4.5586,-4.5568,-4.5264,-4.4784,-4.4364,-4.3714,-4.2393,-4.1529,-4.0988,-4.0268,-3.9731,-3.9551,-3.9298,-3.9129,-3.895,-3.8851,-3.878,-3.8738,-3.8707,-3.8707,-3.8707,-3.8707,-3.8707,-3.8707,-3.8707,-3.8707,-3.8707,-3.8707,-3.8707,-3.8505,-3.7991,-3.7941,-3.8088,-3.7434,-3.6897,-3.7136,-3.6618,-3.6547,-3.6339,-3.5987,-3.5418,-3.4597,-3.4073,-3.3178,-3.226,-3.1631,-3.1334,-3.1351,-3.1252,-3.1213,-3.119,-3.119,-3.119,-3.119,-3.119,-3.119,-3.119,-3.119,-3.119,-3.119,-3.119,-3.119,-3.1151,-3.1095,-3.1015,-3.0895,-3.0535,-3.0182,-2.981,-2.9441,-2.9153,-2.8936,-2.8779,-2.8636,-2.8493,-2.8444,-2.8411,-2.8411,-2.8411,-2.8411,-2.8411,-2.8396,-2.8299,-4.7853,-4.6255,-4.7961,-4.768,-4.6211,-4.6017,-4.5953,-4.5861,-4.5827,-4.5791,-4.575,-4.5706,-4.5693,-4.5676,-4.564,-4.5586,-4.5586,-4.5586,-4.5586,-4.5586,-4.5586,-4.5586,-4.5586,-4.5586,-4.5586,-4.5586,-4.5586,-4.5586,-4.5586,-4.5586,-4.5586,-4.5586,-4.5586,-4.5586,-4.551,-4.5302,-4.488,-4.421,-4.3082,-4.2164,-4.1398,-4.0572,-3.9968,-3.9689,-3.9376,-3.9183,-3.9045,-3.8892,-3.8792,-3.8762,-3.8719,-3.8689,-3.8707,-3.8707,-3.8707,-3.8707,-3.8707,-3.8707,-3.8707,-3.8707,-3.8707,-3.867,-3.8524,-3.8505,-3.8628,-3.8426,-3.8157,-3.8303,-3.82,-3.7882,-3.7698,-3.7158,-3.653,-3.5882,-3.4927,-3.3995,-3.3336,-3.2348,-3.1726,-3.1542,-3.1389,-3.1274,-3.1291,-3.1269,-3.123,-3.119,-3.119,-3.119,-3.119,-3.119,-3.119,-3.119,-3.119,-3.119,-3.119,-3.1134,-3.1095,-3.1015,-3.0716,-3.0368,-3.0,-2.9649,-2.9366,-2.9107,-2.8889,-2.8732,-2.8541,-2.846,-2.8411,-2.8411,-2.8411,-2.8411,-2.8411,-2.8411,-2.8411,-4.8063,-4.6371,-4.8024,-4.7743,-4.6294,-4.6113,-4.6037,-4.5933,-4.5905,-4.586,-4.5791,-4.575,-4.5742,-4.5673,-4.5657,-4.564,-4.5603,-4.5586,-4.5586,-4.5586,-4.5586,-4.5586,-4.5586,-4.5586,-4.5586,-4.5586,-4.5586,-4.5586,-4.5586,-4.5586,-4.5586,-4.5586,-4.5586,-4.5586,-4.5586,-4.5568,-4.532,-4.486,-4.398,-4.3062,-4.2163,-4.1227,-4.0342,-3.9857,-3.9526,-3.9369,-3.9245,-3.9045,-3.8979,-3.8921,-3.8822,-3.8719,-3.8689,-3.8707,-3.8707,-3.8707,-3.8707,-3.8707,-3.8707,-3.8707,-3.8707,-3.8707,-3.8707,-3.8707,-3.8707,-3.8707,-3.8707,-3.8707,-3.867,-3.864,-3.8491,-3.8154,-3.7576,-3.6902,-3.6053,-3.5065,-3.4082,-3.2827,-3.1948,-3.1802,-3.1617,-3.1504,-3.1428,-3.1368,-3.1346,-3.1346,-3.1274,-3.1235,-3.1252,-3.1252,-3.119,-3.119,-3.119,-3.119,-3.119,-3.1151,-3.1112,-3.1032,-3.0871,-3.0568,-3.0274,-2.993,-2.9621,-2.9321,-2.8967,-2.8779,-2.8589,-2.8493,-2.8411,-2.8411,-2.8411,-2.8411,-2.8411,-2.8411,-2.8411,-4.847,-4.6521,-4.8139,-4.7859,-4.6514,-4.6259,-4.6141,-4.6037,-4.5994,-4.5937,-4.5841,-4.5824,-4.5785,-4.5722,-4.5706,-4.5673,-4.564,-4.5603,-4.5603,-4.5586,-4.5586,-4.5586,-4.5586,-4.5586,-4.5586,-4.5586,-4.5586,-4.5586,-4.5586,-4.5586,-4.5586,-4.5586,-4.5586,-4.5586,-4.5586,-4.5586,-4.5547,-4.5355,-4.4589,-4.3901,-4.3057,-4.2067,-4.094,-4.0065,-3.9712,-3.9551,-3.9408,-3.9245,-3.9129,-3.9129,-3.895,-3.884,-3.875,-3.8707,-3.8707,-3.8707,-3.8707,-3.8707,-3.8707,-3.8707,-3.8707,-3.8707,-3.8707,-3.8707,-3.8707,-3.8707,-3.8707,-3.8707,-3.8707,-3.8658,-3.8541,-3.8418,-3.8081,-3.7499,-3.7084,-3.6208,-3.4878,-3.3433,-3.272,-3.2161,-3.1912,-3.1728,-3.1654,-3.1596,-3.1538,-3.1517,-3.1389,-3.1334,-3.1312,-3.1291,-3.1252,-3.119,-3.119,-3.119,-3.119,-3.119,-3.1151,-3.1072,-3.0952,-3.0749,-3.0443,-3.0103,-2.9754,-2.9366,-2.906,-2.8811,-2.8636,-2.8508,-2.846,-2.8411,-2.8411,-2.8411,-2.8411,-2.8411,-2.8411,-4.8334,-4.7371,-4.8385,-4.8209,-4.7248,-4.6521,-4.6181,-4.6141,-4.6047,-4.5986,-4.5964,-4.5899,-4.5847,-4.5771,-4.5781,-4.5754,-4.569,-4.5673,-4.5637,-4.5622,-4.5622,-4.5622,-4.5586,-4.5586,-4.5586,-4.5586,-4.5586,-4.5586,-4.5586,-4.5586,-4.5586,-4.5586,-4.5586,-4.5586,-4.5586,-4.5586,-4.5586,-4.5509,-4.4837,-4.4301,-4.3709,-4.2445,-4.1149,-4.0213,-3.9911,-3.9758,-3.9623,-3.9427,-3.929,-3.9245,-3.9092,-3.8979,-3.891,-3.881,-3.8738,-3.8689,-3.8707,-3.8707,-3.8707,-3.8707,-3.8707,-3.8707,-3.8707,-3.8707,-3.8707,-3.8707,-3.8707,-3.8707,-3.8707,-3.8707,-3.8658,-3.864,-3.8572,-3.8149,-3.7648,-3.7093,-3.6272,-3.5069,-3.363,-3.2905,-3.2424,-3.1984,-3.1948,-3.1839,-3.1746,-3.1688,-3.1559,-3.1466,-3.1428,-3.1351,-3.1291,-3.1252,-3.119,-3.119,-3.119,-3.119,-3.119,-3.1151,-3.1032,-3.0831,-3.0568,-3.0231,-2.9842,-2.9486,-2.9183,-2.8889,-2.8716,-2.8556,-2.846,-2.8411,-2.8411,-2.8411,-2.8411,-2.8411,-2.8411,-4.8287,-4.7621,-4.843,-4.8293,-4.744,-4.6566,-4.6209,-4.6181,-4.613,-4.6075,-4.6037,-4.5994,-4.5937,-4.5867,-4.586,-4.5824,-4.577,-4.5722,-4.5671,-4.5657,-4.564,-4.564,-4.5603,-4.5586,-4.5586,-4.5586,-4.5586,-4.5586,-4.5586,-4.5586,-4.5586,-4.5586,-4.5586,-4.5586,-4.5586,-4.5586,-4.5586,-4.547,-4.5163,-4.472,-4.4205,-4.2593,-4.128,-4.0463,-4.0098,-3.9954,-3.9762,-3.9604,-3.9483,-3.9427,-3.9264,-3.9156,-3.9064,-3.8968,-3.884,-3.8762,-3.8719,-3.8707,-3.8707,-3.8707,-3.8707,-3.8707,-3.8707,-3.8707,-3.8707,-3.8707,-3.8707,-3.8707,-3.8707,-3.8707,-3.8707,-3.8707,-3.8658,-3.8554,-3.8175,-3.7747,-3.7075,-3.5968,-3.4857,-3.3723,-3.2989,-3.2544,-3.2301,-3.2161,-3.1984,-3.1856,-3.1746,-3.1634,-3.1542,-3.1483,-3.1406,-3.1329,-3.1308,-3.1269,-3.1269,-3.1269,-3.1269,-3.119,-3.1112,-3.0912,-3.0692,-3.0401,-3.0103,-2.9738,-2.938,-2.9059,-2.8811,-2.8652,-2.8556,-2.8411,-2.8411,-2.8411,-2.8411,-2.8411,-2.8411,-4.8382,-4.7825,-4.8499,-4.8401,-4.7645,-4.6645,-4.6195,-4.6209,-4.6203,-4.6154,-4.6113,-4.6095,-4.6037,-4.5964,-4.5929,-4.588,-4.5824,-4.5761,-4.575,-4.5706,-4.5709,-4.5657,-4.564,-4.5603,-4.5586,-4.5586,-4.5586,-4.5586,-4.5586,-4.5586,-4.5586,-4.5586,-4.5586,-4.5586,-4.5586,-4.5586,-4.5586,-4.5586,-4.5566,-4.5143,-4.4124,-4.2785,-4.1487,-4.0538,-4.033,-4.0118,-3.9977,-3.9829,-3.9739,-3.9623,-3.9502,-3.935,-3.9264,-3.9129,-3.8989,-3.8862,-3.878,-3.8719,-3.8707,-3.8707,-3.8707,-3.8707,-3.8707,-3.8707,-3.8707,-3.8707,-3.8707,-3.8707,-3.8707,-3.8707,-3.8707,-3.8707,-3.8707,-3.8658,-3.8554,-3.8272,-3.7656,-3.6809,-3.5915,-3.4816,-3.3723,-3.3066,-3.2844,-3.2454,-3.2249,-3.2161,-3.2055,-3.1856,-3.1728,-3.1634,-3.1576,-3.15,-3.1423,-3.1423,-3.1385,-3.1368,-3.1346,-3.1325,-3.119,-3.1032,-3.0855,-3.0609,-3.03,-2.9941,-2.9633,-2.9273,-2.8998,-2.8747,-2.8652,-2.8556,-2.846,-2.846,-2.8411,-2.8411,-2.8411,-4.8743,-4.8645,-4.8751,-4.8732,-4.8391,-4.6967,-4.6275,-4.6201,-4.6209,-4.6203,-4.6183,-4.6142,-4.6091,-4.6056,-4.6007,-4.5953,-4.5905,-4.5874,-4.5833,-4.5781,-4.5738,-4.5706,-4.5693,-4.5622,-4.5622,-4.5603,-4.5603,-4.5586,-4.5586,-4.5586,-4.5586,-4.5586,-4.5586,-4.5586,-4.5586,-4.5586,-4.5586,-4.5586,-4.5586,-4.5163,-4.4297,-4.334,-4.2422,-4.1487,-4.0802,-4.0291,-4.0177,-4.0059,-3.9975,-3.9848,-3.9735,-3.9599,-3.9458,-3.9331,-3.9192,-3.9045,-3.8892,-3.8762,-3.8719,-3.8707,-3.8707,-3.8707,-3.8707,-3.8707,-3.8707,-3.8707,-3.8707,-3.8707,-3.8707,-3.8707,-3.8707,-3.8707,-3.8707,-3.8707,-3.864,-3.8572,-3.8193,-3.7406,-3.6547,-3.583,-3.4733,-3.3857,-3.3319,-3.2891,-3.2521,-3.2438,-3.2335,-3.2126,-3.1948,-3.1819,-3.1726,-3.1634,-3.1576,-3.1538,-3.1483,-3.1445,-3.1423,-3.144,-3.1325,-3.1151,-3.0992,-3.0814,-3.0535,-3.0199,-2.9881,-2.9589,-2.9305,-2.9045,-2.8826,-2.8684,-2.8589,-2.8493,-2.8411,-2.8411,-2.846,-4.879,-4.8849,-4.9321,-4.9243,-4.8654,-4.7522,-4.6718,-4.6338,-4.625,-4.6245,-4.6215,-4.6183,-4.6144,-4.6142,-4.6083,-4.6047,-4.6007,-4.5964,-4.5905,-4.5841,-4.5791,-4.5765,-4.5738,-4.569,-4.5657,-4.5657,-4.5622,-4.5586,-4.5586,-4.5586,-4.5586,-4.5586,-4.5586,-4.5586,-4.5586,-4.5586,-4.5586,-4.5586,-4.5528,-4.5143,-4.4432,-4.3857,-4.309,-4.1769,-4.1294,-4.0802,-4.0366,-4.0234,-4.0177,-4.0058,-3.9975,-3.9867,-3.9693,-3.9556,-3.9452,-3.9219,-3.9137,-3.8989,-3.8792,-3.878,-3.875,-3.8689,-3.8707,-3.8707,-3.8707,-3.8707,-3.8707,-3.8707,-3.8707,-3.8707,-3.8707,-3.8707,-3.8707,-3.8707,-3.8707,-3.8658,-3.8475,-3.7851,-3.7088,-3.6435,-3.5736,-3.4805,-3.3912,-3.3309,-3.2916,-3.277,-3.2606,-3.2387,-3.2161,-3.1984,-3.1875,-3.1765,-3.1709,-3.1634,-3.1596,-3.1559,-3.1521,-3.15,-3.1479,-3.1308,-3.119,-3.0975,-3.0757,-3.0493,-3.0225,-2.9897,-2.9621,-2.9305,-2.8998,-2.8858,-2.8763,-2.8684,-2.8589,-2.8541,-2.8541,-4.913,-4.9189,-4.9833,-4.9599,-4.874,-4.7939,-4.7096,-4.6347,-4.6288,-4.6264,-4.624,-4.6216,-4.6211,-4.6201,-4.6138,-4.6111,-4.6107,-4.6036,-4.5988,-4.5933,-4.588,-4.5847,-4.5791,-4.575,-4.5722,-4.5706,-4.5657,-4.564,-4.5622,-4.5622,-4.5586,-4.5586,-4.5586,-4.5586,-4.5586,-4.5586,-4.5586,-4.5586,-4.5586,-4.5259,-4.4739,-4.4412,-4.3434,-4.2475,-4.1767,-4.1291,-4.0513,-4.0342,-4.0308,-4.0215,-4.0158,-4.0058,-3.9911,-3.9826,-3.967,-3.9502,-3.9401,-3.9245,-3.9045,-3.8892,-3.8822,-3.875,-3.8707,-3.8707,-3.8707,-3.8707,-3.8707,-3.8707,-3.8707,-3.8707,-3.8707,-3.8707,-3.8707,-3.8707,-3.8707,-3.8707,-3.8634,-3.8157,-3.7624,-3.6971,-3.6263,-3.541,-3.4553,-3.3778,-3.3328,-3.3135,-3.2916,-3.2657,-3.2422,-3.2161,-3.1984,-3.1875,-3.1802,-3.1728,-3.1709,-3.1634,-3.1596,-3.1559,-3.1538,-3.15,-3.1385,-3.1213,-3.1038,-3.0781,-3.0535,-3.0368,-3.013,-2.9649,-2.9213,-2.9121,-2.9029,-2.8905,-2.8779,-2.8732,-2.8636,-5.0008,-5.0028,-5.0106,-4.9638,-4.8798,-4.7939,-4.7159,-4.6433,-4.6358,-4.6339,-4.6277,-4.63,-4.6238,-4.6195,-4.6186,-4.6192,-4.6181,-4.613,-4.6099,-4.6047,-4.5975,-4.5917,-4.588,-4.5833,-4.58,-4.5785,-4.5722,-4.569,-4.5676,-4.5659,-4.5622,-4.5586,-4.5586,-4.5586,-4.5586,-4.5586,-4.5586,-4.5586,-4.5586,-4.5586,-4.5201,-4.4759,-4.3932,-4.3085,-4.2203,-4.138,-4.0559,-4.0485,-4.0413,-4.0326,-4.0289,-4.0215,-4.0098,-4.0058,-3.9914,-3.9739,-3.967,-3.9526,-3.9324,-3.9101,-3.8921,-3.8822,-3.875,-3.8719,-3.8719,-3.8707,-3.8707,-3.8707,-3.8707,-3.8707,-3.8707,-3.8707,-3.8707,-3.8707,-3.8707,-3.8707,-3.8707,-3.867,-3.812,-3.7496,-3.6725,-3.5834,-3.5017,-3.4207,-3.36,-3.3345,-3.3055,-3.2802,-3.2557,-3.2318,-3.2144,-3.1984,-3.1894,-3.1839,-3.1783,-3.1746,-3.1726,-3.1688,-3.1651,-3.1596,-3.1559,-3.1389,-3.1274,-3.1078,-3.0861,-3.0757,-3.0593,-3.0156,-2.9766,-2.9515,-2.9289,-2.9121,-2.8951,-2.8795,-2.8716,-5.0418,-5.0887,-5.0906,-5.0399,-4.9599,-4.9267,-4.8349,-4.7217,-4.71,-4.6752,-4.629,-4.6293,-4.6276,-4.6256,-4.6254,-4.6248,-4.6238,-4.6211,-4.617,-4.613,-4.6074,-4.6027,-4.6005,-4.5917,-4.586,-4.5852,-4.58,-4.5742,-4.5693,-4.5693,-4.564,-4.5622,-4.5603,-4.5586,-4.5586,-4.5586,-4.5586,-4.5586,-4.5586,-4.5586,-4.5528,-4.5316,-4.4682,-4.3855,-4.3047,-4.2184,-4.138,-4.0761,-4.054,-4.043,-4.0413,-4.0344,-4.0253,-4.0234,-4.0118,-3.9956,-3.9954,-3.9804,-3.9575,-3.9324,-3.9129,-3.8921,-3.8822,-3.8762,-3.878,-3.8738,-3.8707,-3.8707,-3.8707,-3.8707,-3.8707,-3.8707,-3.8707,-3.8707,-3.8707,-3.8707,-3.8707,-3.8707,-3.8615,-3.7991,-3.7074,-3.6156,-3.5357,-3.4623,-3.4026,-3.3502,-3.3238,-3.2961,-3.2755,-3.2507,-3.2336,-3.2161,-3.2037,-3.1894,-3.1839,-3.1819,-3.18,-3.1763,-3.1746,-3.1709,-3.1654,-3.1579,-3.1466,-3.1312,-3.1196,-3.1078,-3.0918,-3.0617,-3.0284,-2.9941,-2.9605,-2.935,-2.9167,-2.8873,-2.8795,-5.0848,-5.1375,-5.1394,-5.0906,-5.0165,-5.0106,-4.9306,-4.8076,-4.767,-4.711,-4.6319,-4.6303,-4.6305,-4.6305,-4.6303,-4.6301,-4.6276,-4.6245,-4.623,-4.6206,-4.617,-4.6135,-4.6083,-4.6027,-4.5972,-4.5944,-4.588,-4.581,-4.5735,-4.5722,-4.569,-4.5657,-4.5622,-4.5622,-4.5586,-4.5586,-4.5586,-4.5586,-4.5586,-4.5586,-4.5586,-4.5528,-4.5124,-4.4355,-4.3682,-4.2816,-4.195,-4.1239,-4.0819,-4.0611,-4.0479,-4.0447,-4.0377,-4.0325,-4.029,-4.0215,-4.0138,-4.0058,-3.9826,-3.9502,-3.9245,-3.9101,-3.8968,-3.8881,-3.8851,-3.878,-3.875,-3.8738,-3.8738,-3.8707,-3.8707,-3.8707,-3.8707,-3.8707,-3.8707,-3.8707,-3.8707,-3.8707,-3.8707,-3.8487,-3.7643,-3.6967,-3.5624,-3.4825,-3.4092,-3.3623,-3.3404,-3.3165,-3.2948,-3.274,-3.2542,-3.2354,-3.2161,-3.2037,-3.1912,-3.1856,-3.18,-3.18,-3.1763,-3.1746,-3.1709,-3.1671,-3.1617,-3.1466,-3.1389,-3.1368,-3.1196,-3.0982,-3.0658,-3.03,-2.9957,-2.956,-2.9259,-2.9013,-2.8936,-5.1355,-5.1394,-5.1394,-5.0906,-5.0223,-5.0145,-4.9638,-4.8704,-4.793,-4.7159,-4.6482,-4.6385,-4.6288,-4.6289,-4.6288,-4.6307,-4.6305,-4.6297,-4.629,-4.6257,-4.6236,-4.6201,-4.617,-4.6127,-4.6075,-4.6066,-4.5983,-4.588,-4.58,-4.5791,-4.577,-4.5726,-4.5673,-4.5657,-4.5603,-4.5586,-4.5586,-4.5586,-4.5586,-4.5586,-4.5586,-4.5586,-4.5124,-4.4682,-4.4201,-4.3374,-4.2316,-4.172,-4.1219,-4.0623,-4.0527,-4.0476,-4.0463,-4.0447,-4.0413,-4.0326,-4.0289,-4.0215,-4.0077,-3.9599,-3.9376,-3.929,-3.912,-3.9007,-3.8968,-3.8881,-3.881,-3.878,-3.875,-3.8689,-3.8689,-3.8707,-3.8707,-3.8707,-3.8707,-3.8707,-3.8707,-3.8707,-3.8707,-3.8689,-3.8559,-3.8,-3.6379,-3.5037,-3.4174,-3.3698,-3.3509,-3.3316,-3.3135,-3.2902,-3.271,-3.2457,-3.2267,-3.2126,-3.1984,-3.1856,-3.1783,-3.18,-3.18,-3.1746,-3.1746,-3.1746,-3.1671,-3.1579,-3.1579,-3.1559,-3.1483,-3.1351,-3.0998,-3.0593,-3.007,-2.9677,-2.9425,-2.9213,-2.9075,-5.1394,-5.1394,-5.1394,-5.1238,-5.0965,-5.0965,-5.0481,-4.9511,-4.8272,-4.7437,-4.7068,-4.6621,-4.6289,-4.6289,-4.6289,-4.6289,-4.6289,-4.6307,-4.6301,-4.63,-4.6267,-4.6277,-4.626,-4.6215,-4.6157,-4.6111,-4.6037,-4.5956,-4.5867,-4.5887,-4.5838,-4.5785,-4.5742,-4.5657,-4.5603,-4.5586,-4.5586,-4.5586,-4.5586,-4.5586,-4.5586,-4.5566,-4.5432,-4.5066,-4.4624,-4.3797,-4.2701,-4.2258,-4.147,-4.0662,-4.0489,-4.0508,-4.0511,-4.0511,-4.0479,-4.043,-4.0413,-4.0325,-4.0196,-3.9916,-3.9693,-3.9502,-3.929,-3.9147,-3.9064,-3.895,-3.8881,-3.8822,-3.881,-3.875,-3.8707,-3.8707,-3.8707,-3.8707,-3.8707,-3.8707,-3.8707,-3.8707,-3.8689,-3.8701,-3.8615,-3.75,-3.6093,-3.544,-3.4697,-3.4019,-3.3796,-3.3506,-3.3262,-3.3011,-3.2773,-3.2557,-3.2353,-3.2179,-3.2037,-3.191,-3.1837,-3.18,-3.18,-3.18,-3.18,-3.18,-3.1763,-3.1709,-3.1709,-3.1709,-3.1634,-3.1466,-3.1235,-3.0821,-3.0351,-2.9941,-2.9677,-2.9425,-2.9259,-5.1394,-5.1394,-5.1394,-5.1398,-5.1398,-5.1398,-5.092,-4.9971,-4.8669,-4.7909,-4.7441,-4.668,-4.6289,-4.6289,-4.6289,-4.6289,-4.6289,-4.6289,-4.6287,-4.6307,-4.6303,-4.6295,-4.6287,-4.6253,-4.6211,-4.6157,-4.6123,-4.6063,-4.5986,-4.5956,-4.5905,-4.5838,-4.5789,-4.5722,-4.5654,-4.562,-4.5586,-4.5586,-4.5586,-4.5586,-4.5586,-4.5586,-4.5586,-4.5413,-4.5028,-4.4374,-4.3528,-4.2643,-4.17,-4.0931,-4.0527,-4.0508,-4.0508,-4.0489,-4.0492,-4.0495,-4.0482,-4.0413,-4.0289,-4.0158,-3.9937,-3.9758,-3.9477,-3.9298,-3.921,-3.9073,-3.895,-3.8881,-3.8822,-3.878,-3.8738,-3.8707,-3.8707,-3.8707,-3.8707,-3.8707,-3.8707,-3.8707,-3.8707,-3.8701,-3.8536,-3.7268,-3.6211,-3.5734,-3.5257,-3.4659,-3.4128,-3.3829,-3.3508,-3.3176,-3.3009,-3.2851,-3.2492,-3.2232,-3.2054,-3.191,-3.1837,-3.18,-3.18,-3.18,-3.18,-3.18,-3.18,-3.18,-3.18,-3.1763,-3.1709,-3.1579,-3.1351,-3.1061,-3.0699,-3.0326,-2.9941,-2.9677,-2.9425,-5.1394,-5.1394,-5.1394,-5.1402,-5.1389,-5.1391,-5.0949,-5.0193,-4.9334,-4.8476,-4.7637,-4.6836,-4.6406,-4.6308,-4.6289,-4.6289,-4.6289,-4.6289,-4.6289,-4.6288,-4.6307,-4.6305,-4.6301,-4.6295,-4.6241,-4.621,-4.6187,-4.6177,-4.6111,-4.6075,-4.6005,-4.5932,-4.5838,-4.5795,-4.5735,-4.5671,-4.5637,-4.564,-4.5622,-4.5603,-4.5586,-4.5586,-4.5586,-4.5509,-4.5355,-4.4874,-4.4162,-4.3412,-4.2203,-4.13,-4.0627,-4.0566,-4.0508,-4.0489,-4.0489,-4.0508,-4.0499,-4.0447,-4.0396,-4.0271,-4.0158,-3.9977,-3.9762,-3.9575,-3.9401,-3.9219,-3.9073,-3.895,-3.8881,-3.8792,-3.8719,-3.8689,-3.8707,-3.8707,-3.8707,-3.8707,-3.8707,-3.8707,-3.8707,-3.8689,-3.8689,-3.7973,-3.7184,-3.6597,-3.6028,-3.543,-3.4906,-3.4655,-3.4213,-3.3363,-3.3251,-3.3375,-3.2929,-3.2337,-3.2142,-3.2121,-3.1873,-3.1856,-3.18,-3.18,-3.18,-3.18,-3.18,-3.18,-3.18,-3.18,-3.1746,-3.1671,-3.1504,-3.1218,-3.0942,-3.0593,-3.0215,-2.9897,-2.9633,-5.1394,-5.1394,-5.1394,-5.1402,-5.1391,-5.14,-5.1266,-5.0936,-5.0156,-4.9336,-4.8457,-4.7617,-4.6797,-4.6328,-4.6289,-4.6289,-4.6289,-4.6289,-4.6289,-4.6289,-4.6289,-4.6289,-4.6306,-4.6284,-4.6278,-4.627,-4.6261,-4.6245,-4.6157,-4.6142,-4.6104,-4.6035,-4.5937,-4.5874,-4.5838,-4.5781,-4.5738,-4.5673,-4.5657,-4.5622,-4.5603,-4.5622,-4.5603,-4.5586,-4.5586,-4.5124,-4.4489,-4.4085,-4.2953,-4.178,-4.147,-4.1239,-4.0508,-4.0489,-4.0489,-4.0489,-4.0492,-4.0476,-4.0447,-4.0379,-4.0308,-4.0177,-3.9977,-3.9781,-3.9575,-3.9376,-3.9192,-3.9045,-3.895,-3.8881,-3.878,-3.875,-3.8719,-3.8738,-3.8707,-3.8707,-3.8707,-3.8707,-3.8707,-3.8707,-3.8707,-3.845,-3.7734,-3.7459,-3.6872,-3.6219,-3.5787,-3.5535,-3.5059,-3.4225,-3.3795,-3.3904,-3.3808,-3.3371,-3.2703,-3.2525,-3.2138,-3.1893,-3.1856,-3.18,-3.18,-3.18,-3.18,-3.18,-3.18,-3.18,-3.18,-3.1709,-3.1579,-3.1466,-3.1235,-3.0878,-3.051,-3.0156,-2.9837,-5.1394,-5.1394,-5.1398,-5.1389,-5.1398,-5.1385,-5.1386,-5.1191,-5.0195,-4.9336,-4.8789,-4.7578,-4.6797,-4.6367,-4.6289,-4.6289,-4.6289,-4.6289,-4.6289,-4.6289,-4.6289,-4.6289,-4.6289,-4.6289,-4.6286,-4.6303,-4.6297,-4.629,-4.6225,-4.6164,-4.6135,-4.6084,-4.6007,-4.5983,-4.5937,-4.5874,-4.5819,-4.5781,-4.5719,-4.5673,-4.564,-4.564,-4.5622,-4.5603,-4.5603,-4.524,-4.4816,-4.4586,-4.3566,-4.2412,-4.2143,-4.1373,-4.0681,-4.0489,-4.0489,-4.0489,-4.0489,-4.0492,-4.0476,-4.0466,-4.0379,-4.0271,-4.0139,-3.9977,-3.9781,-3.9551,-3.935,-3.9156,-3.9064,-3.895,-3.8851,-3.8792,-3.878,-3.875,-3.8738,-3.8707,-3.8707,-3.8707,-3.8707,-3.8707,-3.8597,-3.845,-3.8193,-3.801,-3.7716,-3.7074,-3.6714,-3.6582,-3.6097,-3.5356,-3.4893,-3.4789,-3.478,-3.4588,-3.3864,-3.3001,-3.2508,-3.2138,-3.1875,-3.1856,-3.1819,-3.18,-3.18,-3.18,-3.18,-3.18,-3.1837,-3.1746,-3.1671,-3.1559,-3.1428,-3.1117,-3.0757,-3.0426,-3.0113,-5.1394,-5.1398,-5.1389,-5.1398,-5.1385,-5.1387,-5.1387,-5.1211,-4.9766,-4.8965,-4.8613,-4.7187,-4.6484,-4.6348,-4.6289,-4.6289,-4.6289,-4.6289,-4.6289,-4.6289,-4.6289,-4.6289,-4.6289,-4.6289,-4.6289,-4.6288,-4.6306,-4.6303,-4.6273,-4.6225,-4.617,-4.6123,-4.6099,-4.6065,-4.6017,-4.5964,-4.5929,-4.5905,-4.5852,-4.577,-4.5726,-4.5709,-4.5676,-4.5622,-4.5622,-4.5509,-4.5336,-4.4816,-4.4028,-4.3201,-4.2393,-4.1585,-4.0816,-4.0489,-4.0489,-4.0489,-4.0489,-4.0489,-4.0492,-4.0479,-4.0466,-4.0379,-4.0271,-4.0139,-3.9916,-3.9693,-3.9502,-3.9298,-3.9183,-3.9073,-3.8979,-3.8892,-3.8851,-3.8822,-3.881,-3.875,-3.8719,-3.8719,-3.8707,-3.8707,-3.867,-3.8524,-3.8524,-3.8322,-3.823,-3.7734,-3.7588,-3.7491,-3.7162,-3.6497,-3.615,-3.5903,-3.5879,-3.5669,-3.4588,-3.374,-3.2929,-3.2472,-3.2121,-3.1875,-3.1839,-3.1819,-3.1783,-3.1819,-3.1819,-3.1819,-3.1819,-3.1819,-3.1765,-3.1691,-3.1542,-3.1351,-3.1038,-3.0675,-3.0384,-5.1398,-5.1389,-5.1398,-5.1384,-5.1386,-5.1386,-5.1387,-5.1289,-5.0058,-4.9258,-4.873,-4.7754,-4.6855,-4.6348,-4.6308,-4.6289,-4.6289,-4.6289,-4.6289,-4.6289,-4.6289,-4.6289,-4.6289,-4.6289,-4.6289,-4.6289,-4.6289,-4.6288,-4.6284,-4.6251,-4.6234,-4.6187,-4.617,-4.6164,-4.6127,-4.6065,-4.6037,-4.6027,-4.5972,-4.5899,-4.5815,-4.5722,-4.5673,-4.5657,-4.564,-4.5622,-4.5507,-4.5393,-4.4739,-4.4047,-4.3239,-4.2066,-4.0642,-4.0527,-4.0489,-4.0489,-4.0489,-4.0489,-4.0508,-4.0495,-4.0482,-4.0432,-4.0325,-4.0215,-4.006,-3.9851,-3.967,-3.9477,-3.9324,-3.921,-3.9101,-3.8989,-3.895,-3.8892,-3.8851,-3.8822,-3.8762,-3.875,-3.8689,-3.8707,-3.8707,-3.8707,-3.8707,-3.867,-3.8597,-3.8505,-3.845,-3.8346,-3.8242,-3.7789,-3.7549,-3.7305,-3.7109,-3.6702,-3.551,-3.4429,-3.3564,-3.286,-3.2439,-3.2157,-3.1875,-3.1839,-3.1819,-3.1875,-3.1875,-3.1929,-3.1929,-3.1912,-3.1875,-3.1765,-3.1654,-3.1466,-3.1257,-3.0942,-3.0617,-5.1389,-5.1396,-5.1384,-5.1386,-5.1386,-5.1387,-5.1387,-5.1133,-4.9941,-4.918,-4.8711,-4.7637,-4.6738,-4.6308,-4.6308,-4.6289,-4.6289,-4.6289,-4.6289,-4.6289,-4.6289,-4.6289,-4.6289,-4.6289,-4.6289,-4.6289,-4.6289,-4.6289,-4.6287,-4.6285,-4.6276,-4.6241,-4.6253,-4.624,-4.6215,-4.6164,-4.613,-4.6135,-4.6095,-4.6005,-4.5912,-4.5819,-4.5735,-4.5719,-4.569,-4.5657,-4.564,-4.5565,-4.5047,-4.4143,-4.3104,-4.1931,-4.0816,-4.0508,-4.0489,-4.0489,-4.0489,-4.0489,-4.0508,-4.0492,-4.0499,-4.0447,-4.0413,-4.0325,-4.0177,-3.9979,-3.9873,-3.9717,-3.9575,-3.9452,-3.9298,-3.9165,-3.9129,-3.9092,-3.8979,-3.891,-3.8851,-3.8792,-3.8762,-3.875,-3.875,-3.8707,-3.8707,-3.8707,-3.8652,-3.8652,-3.8689,-3.8701,-3.8689,-3.8658,-3.8564,-3.8401,-3.8047,-3.7395,-3.6291,-3.5155,-3.4164,-3.3477,-3.2791,-3.2317,-3.2037,-3.1912,-3.1875,-3.1948,-3.1984,-3.2001,-3.2037,-3.2037,-3.1948,-3.1875,-3.1783,-3.1634,-3.1428,-3.1179,-3.0902,-5.1398,-5.14,-5.1385,-5.1386,-5.1387,-5.1387,-5.1387,-5.1133,-4.9726,-4.8984,-4.8652,-4.709,-4.6387,-4.6289,-4.6289,-4.6289,-4.6289,-4.6289,-4.6289,-4.6289,-4.6289,-4.6289,-4.6289,-4.6289,-4.6289,-4.6289,-4.6289,-4.6289,-4.6288,-4.6307,-4.6305,-4.6297,-4.6293,-4.627,-4.6234,-4.6221,-4.6211,-4.6189,-4.6157,-4.6119,-4.6037,-4.5929,-4.5847,-4.5781,-4.5754,-4.5726,-4.5673,-4.5522,-4.5103,-4.4278,-4.3143,-4.195,-4.1066,-4.0662,-4.0489,-4.0489,-4.0489,-4.0489,-4.0489,-4.0489,-4.0511,-4.0479,-4.0499,-4.0432,-4.027,-4.0177,-4.004,-3.9937,-3.9829,-3.967,-3.9483,-3.9401,-3.9343,-3.9237,-3.9129,-3.9007,-3.895,-3.8862,-3.8833,-3.8822,-3.8762,-3.8719,-3.8719,-3.8719,-3.8719,-3.8719,-3.8719,-3.878,-3.878,-3.878,-3.8719,-3.8609,-3.841,-3.7678,-3.6944,-3.5808,-3.4693,-3.397,-3.3284,-3.2652,-3.2161,-3.2037,-3.2001,-3.2073,-3.2108,-3.2126,-3.2126,-3.2161,-3.2073,-3.1984,-3.1929,-3.1819,-3.1634,-3.1428,-3.1252,-5.1402,-5.1386,-5.1386,-5.1386,-5.1386,-5.1386,-5.1387,-5.1191,-5.0098,-4.9316,-4.8555,-4.7207,-4.6289,-4.6289,-4.6289,-4.6289,-4.6289,-4.6289,-4.6289,-4.6289,-4.6289,-4.6289,-4.6289,-4.6289,-4.6289,-4.6289,-4.6289,-4.6289,-4.6289,-4.6289,-4.6289,-4.6305,-4.6305,-4.6284,-4.6278,-4.627,-4.6264,-4.6249,-4.6216,-4.617,-4.6111,-4.6027,-4.5925,-4.5866,-4.5829,-4.575,-4.57,-4.569,-4.5577,-4.4963,-4.3814,-4.2527,-4.1585,-4.0931,-4.0681,-4.0489,-4.0489,-4.0489,-4.0489,-4.0489,-4.0492,-4.0492,-4.0495,-4.0482,-4.0396,-4.0362,-4.0252,-4.0177,-4.004,-3.9851,-3.9717,-3.967,-3.9599,-3.9452,-3.9324,-3.9192,-3.9082,-3.9017,-3.895,-3.8892,-3.8851,-3.8822,-3.887,-3.8822,-3.8792,-3.8792,-3.884,-3.8851,-3.8881,-3.8899,-3.887,-3.8773,-3.8646,-3.8478,-3.8002,-3.6402,-3.5252,-3.4495,-3.3669,-3.2757,-3.2232,-3.2126,-3.2108,-3.2196,-3.2232,-3.2232,-3.2232,-3.2232,-3.2196,-3.2108,-3.2073,-3.2001,-3.1819,-3.1634,-3.1483]},{"header":{"parameterUnit":"m.s-1","parameterCategory":1,"la1":31.0,"la2":29.5877,"lo1":-88.7671,"lo2":-86.6584,"dy":0.0162,"dx":0.0185,"nx":115,"ny":88,"refTime":"2023-04-30T12:00:00:Z","depth":0,"parameterNumber":3,"parameterNumberName":"V-component_of_WINDS"},"data":[0.0,0.0,0.0,0.0,0.0,0.0,0.0,0.0,0.0,0.0,0.0,0.0,0.0,0.0,0.0,0.0,0.0,0.0,0.0,0.0,0.0,0.0,0.0,0.0,0.0,0.0,0.0,0.0,0.0,0.0,0.0,0.0,0.0,0.0,0.0,0.0,0.0,0.0,0.0,0.0,0.0,0.0,0.0,0.0,0.0,0.0,0.0,0.0,0.0,0.0,0.0,0.0,0.0,0.0,0.0,0.0,0.0,0.0,0.0,0.0,0.0,0.0,0.0,0.0,0.0,0.0,0.0,0.0,0.0,0.0,0.0,0.0,0.0,0.0,0.0,0.0,0.0,0.0,0.0,0.0,0.0,0.0,0.0,0.0,0.0,0.0,0.0,0.0,0.0,0.0,0.0,0.0,0.0,0.0,0.0,0.0,0.0,0.0,0.0,0.0,0.0,0.0,0.0,0.0,0.0,0.0,0.0,0.0,0.0,0.0,0.0,0.0,0.0,0.0,0.0,0.0,0.0,0.0,0.0,0.0,0.0,0.0,0.0,0.0,0.0,0.0,0.0,0.0,0.0,0.0,0.0,0.0,0.0,0.0,0.0,0.0,0.0,0.0,0.0,0.0,0.0,0.0,0.0,0.0,0.0,0.0,0.0,0.0,0.0,0.0,0.0,0.0,0.0,0.0,0.0,0.0,0.0,0.0,0.0,0.0,0.0,0.0,0.0,0.0,0.0,0.0,0.0,0.0,0.0,0.0,0.0,0.0,0.0,0.0,0.0,0.0,0.0,0.0,0.0,0.0,0.0,0.0,0.0,0.0,0.0,0.0,0.0,0.0,0.0,0.0,0.0,0.0,0.0,0.0,0.0,0.0,0.0,0.0,0.0,0.0,0.0,0.0,0.0,0.0,0.0,0.0,0.0,0.0,0.0,0.0,0.0,0.0,0.0,0.0,0.0,0.0,0.0,0.0,0.0,0.0,0.0,0.0,0.0,0.0,0.0,0.0,0.0,0.0,0.0,0.0,0.0,0.0,0.0,0.0,0.0,0.0,0.0,0.0,0.0,0.0,0.0,0.0,0.0,0.0,0.0,0.0,0.0,0.0,0.0,0.0,0.0,0.0,0.0,0.0,0.0,0.0,0.0,0.0,0.0,0.0,0.0,0.0,0.0,0.0,0.0,0.0,0.0,0.0,0.0,0.0,0.0,0.0,0.0,0.0,0.0,0.0,0.0,0.0,0.0,0.0,0.0,0.0,0.0,0.0,0.0,0.0,0.0,0.0,0.0,0.0,0.0,0.0,0.0,0.0,0.0,0.0,0.0,0.0,0.0,0.0,0.0,0.0,0.0,0.0,0.0,0.0,0.0,0.0,0.0,0.0,0.0,0.0,0.0,0.0,0.0,0.0,0.0,0.0,0.0,0.0,0.0,0.0,0.0,0.0,0.0,0.0,0.0,0.0,0.0,0.0,0.0,0.0,0.0,0.0,0.0,0.0,0.0,0.0,0.0,0.0,0.0,0.0,0.0,0.0,0.0,0.0,0.0,0.0,0.0,0.0,0.0,0.0,0.0,0.0,0.0,0.0,0.0,0.0,0.0,0.0,0.0,0.0,0.0,0.0,0.0,0.0,0.0,0.0,0.0,0.0,0.0,0.0,0.0,0.0,0.0,0.0,0.0,0.0,0.0,0.0,0.0,0.0,0.0,0.0,0.0,0.0,0.0,0.0,0.0,0.0,0.0,0.0,0.0,0.0,0.0,0.0,0.0,0.0,0.0,0.0,0.0,0.0,0.0,0.0,0.0,0.0,0.0,0.0,0.0,0.0,0.0,0.0,0.0,0.0,0.0,0.0,0.0,0.0,0.0,0.0,0.0,0.0,0.0,0.0,0.0,0.0,0.0,0.0,0.0,0.0,0.0,0.0,0.0,0.0,0.0,0.0,0.0,0.0,0.0,0.0,0.0,0.0,0.0,0.0,0.0,0.0,0.0,0.0,0.0,0.0,0.0,0.0,0.0,0.0,0.0,0.0,0.0,0.0,0.0,0.0,0.0,0.0,0.0,0.0,0.0,0.0,0.0,0.0,0.0,0.0,0.0,0.0,0.0,0.0,0.0,0.0,0.0,0.0,0.0,0.0,0.0,0.0,0.0,0.0,0.0,0.0,0.0,0.0,0.0,0.0,0.0,0.0,0.0,0.0,0.0,0.0,0.0,0.0,0.0,0.0,0.0,0.0,0.0,0.0,0.0,0.0,0.0,0.0,0.0,0.0,0.0,0.0,0.0,0.0,0.0,0.0,0.0,0.0,0.0,0.0,0.0,0.0,0.0,0.0,0.0,0.0,0.0,0.0,0.0,0.0,0.0,0.0,0.0,0.0,0.0,0.0,0.0,0.0,0.0,0.0,0.0,0.0,0.0,0.0,0.0,0.0,0.0,0.0,0.0,0.0,0.0,0.0,0.0,0.0,0.0,0.0,0.0,0.0,0.0,0.0,0.0,0.0,0.0,0.0,0.0,0.0,0.0,0.0,0.0,0.0,0.0,0.0,0.0,0.0,0.0,0.0,0.0,0.0,0.0,0.0,0.0,0.0,0.0,0.0,0.0,0.0,0.0,0.0,0.0,0.0,0.0,0.0,0.0,0.0,0.0,0.0,0.0,0.0,0.0,0.0,0.0,0.0,0.0,0.0,0.0,0.0,0.0,0.0,0.0,0.0,0.0,0.0,0.0,0.0,0.0,0.0,0.0,0.0,0.0,0.0,0.0,0.0,0.0,0.0,0.0,0.0,0.0,0.0,0.0,0.0,0.0,0.0,0.0,0.0,0.0,0.0,0.0,0.0,0.0,0.0,0.0,0.0,0.0,0.0,0.0,0.0,0.0,0.0,0.0,0.0,0.0,0.0,0.0,0.0,0.0,0.0,0.0,0.0,0.0,0.0,0.0,0.0,0.0,0.0,0.0,0.0,0.0,0.0,0.0,0.0,0.0,0.0,0.0,0.0,0.0,0.0,0.0,0.0,0.0,0.0,0.0,0.0,0.0,0.0,0.0,0.0,0.0,0.0,0.0,0.0,0.0,0.0,0.0,0.0,0.0,0.0,0.0,0.0,0.0,0.0,0.0,0.0,0.0,0.0,0.0,0.0,0.0,0.0,0.0,0.0,0.0,0.0,0.0,0.0,0.0,0.0,0.0,0.0,0.0,0.0,0.0,0.0,0.0,0.0,0.0,0.0,0.0,0.0,0.0,0.0,0.0,0.0,0.0,0.0,0.0,0.0,0.0,0.0,0.0,0.0,0.0,0.0,0.0,0.0,0.0,0.0,0.0,0.0,0.0,0.0,0.0,0.0,0.0,0.0,0.0,0.0,0.0,0.0,0.0,0.0,0.0,0.0,0.0,0.0,0.0,0.0,0.0,0.0,0.0,0.0,0.0,0.0,0.0,0.0,0.0,0.0,0.0,0.0,0.0,0.0,0.0,0.0,0.0,0.0,0.0,0.0,0.0,0.0,0.0,0.0,0.0,0.0,0.0,0.0,0.0,0.0,0.0,0.0,0.0,0.0,0.0,0.0,0.0,0.0,0.0,0.0,0.0,0.0,0.0,0.0,0.0,0.0,0.0,0.0,0.0,0.0,0.0,0.0,0.0,0.0,0.0,0.0,0.0,0.0,0.0,0.0,0.0,0.0,0.0,0.0,0.0,0.0,0.0,0.0,0.0,0.0,0.0,0.0,0.0,0.0,0.0,0.0,0.0,0.0,0.0,0.0,0.0,0.0,0.0,0.0,0.0,0.0,0.0,0.0,0.0,0.0,0.0,0.0,0.0,0.0,0.0,0.0,0.0,0.0,0.0,0.0,0.0,0.0,0.0,0.0,0.0,0.0,0.0,0.0,0.0,0.0,0.0,0.0,0.0,0.0,0.0,0.0,0.0,0.0,0.0,0.0,0.0,0.0,0.0,0.0,0.0,0.0,0.0,0.0,0.0,0.0,0.0,0.0,0.0,0.0,0.0,0.0,0.0,0.0,0.0,0.0,0.0,0.0,0.0,0.0,0.0,0.0,0.0,0.0,0.0,0.0,0.0,0.0,0.0,0.0,0.0,0.0,0.0,0.0,0.0,0.0,0.0,0.0,0.0,0.0,0.0,0.0,0.0,0.0,0.0,0.0,0.0,0.0,0.0,0.0,0.0,0.0,0.0,0.0,0.0,0.0,0.0,0.0,0.0,0.0,0.0,0.0,0.0,0.0,0.0,0.0,0.0,0.0,0.0,0.0,0.0,0.0,0.0,0.0,0.0,0.0,-0.5933,0.0,0.0,0.0,0.0,0.0,0.0,0.0,0.0,0.0,0.0,0.0,0.0,0.0,0.0,0.0,0.0,0.0,0.0,0.0,0.0,0.0,0.0,0.0,0.0,0.0,0.0,0.0,0.0,0.0,0.0,0.0,0.0,0.0,0.0,0.0,0.0,0.0,0.0,0.0,0.0,0.0,0.0,0.0,0.0,0.0,0.0,0.0,0.0,0.0,0.0,0.0,0.0,0.0,0.0,0.0,0.0,0.0,0.0,0.0,0.0,0.0,0.0,0.0,0.0,0.0,0.0,0.0,0.0,0.0,0.0,0.0,0.0,0.0,0.0,0.0,0.0,0.0,0.0,0.0,0.0,0.0,0.0,0.0,0.0,0.0,0.0,0.0,0.0,0.0,0.0,0.0,0.0,0.0,0.0,0.0,0.0,0.0,0.0,0.0,0.0,0.0,0.0,0.0,0.0,0.0,0.0,0.0,0.0,0.0,0.0,-0.7286,-0.7041,-0.6992,-0.6781,-0.6398,0.0,0.0,0.0,0.0,0.0,0.0,0.0,0.0,0.0,0.0,0.0,0.0,0.0,0.0,0.0,0.0,0.0,0.0,0.0,0.0,0.0,0.0,0.0,0.0,0.0,0.0,0.0,0.0,0.0,0.0,0.0,0.0,0.0,0.0,0.0,0.0,0.0,0.0,0.0,0.0,0.0,0.0,0.0,0.0,0.0,0.0,0.0,0.0,0.0,0.0,0.0,0.0,0.0,0.0,0.0,0.0,0.0,0.0,0.0,0.0,0.0,0.0,0.0,0.0,0.0,0.0,0.0,0.0,0.0,0.0,0.0,0.0,0.0,0.0,0.0,0.0,0.0,0.0,0.0,0.0,0.0,0.0,0.0,0.0,0.0,0.0,0.0,0.0,0.0,0.0,0.0,0.0,0.0,0.0,0.0,0.0,0.0,0.0,0.0,0.0,0.0,0.0,0.0,0.0,0.0,0.0,0.0,0.0,0.0,0.0,0.0,0.0,-0.7245,-0.7118,-0.6816,0.0,0.0,0.0,0.0,0.0,0.0,0.0,0.0,0.0,0.0,0.0,0.0,0.0,0.0,0.0,0.0,0.0,0.0,0.0,0.0,0.0,0.0,0.0,0.0,0.0,0.0,0.0,0.0,0.0,0.0,0.0,0.0,0.0,0.0,0.0,0.0,0.0,0.0,0.0,0.0,0.0,0.0,0.0,0.0,0.0,0.0,0.0,0.0,0.0,0.0,0.0,0.0,0.0,0.0,0.0,0.0,0.0,0.0,0.0,0.0,0.0,0.0,0.0,0.0,0.0,0.0,0.0,0.0,0.0,0.0,0.0,0.0,0.0,0.0,0.0,0.0,0.0,0.0,0.0,0.0,0.0,0.0,0.0,0.0,0.0,0.0,0.0,0.0,0.0,0.0,0.0,0.0,0.0,0.0,0.0,0.0,0.0,0.0,0.0,0.0,0.0,0.0,0.0,0.0,0.0,0.0,0.0,0.0,0.0,0.0,-0.7621,-0.7482,-0.7482,0.0,-0.7167,0.0,0.0,0.0,0.0,0.0,0.0,0.0,0.0,0.0,0.0,0.0,0.0,0.0,0.0,0.0,0.0,0.0,0.0,0.0,0.0,0.0,0.0,0.0,0.0,0.0,0.0,0.0,0.0,0.0,0.0,0.0,0.0,0.0,0.0,0.0,0.0,0.0,0.0,0.0,0.0,0.0,0.0,0.0,0.0,0.0,0.0,0.0,0.0,0.0,0.0,0.0,0.0,0.0,0.0,0.0,0.0,0.0,0.0,0.0,0.0,0.0,0.0,0.0,0.0,0.0,0.0,0.0,0.0,0.0,0.0,0.0,0.0,0.0,0.0,0.0,0.0,0.0,0.0,0.0,0.0,0.0,0.0,0.0,0.0,0.0,0.0,0.0,0.0,0.0,0.0,0.0,0.0,0.0,0.0,0.0,0.0,0.0,0.0,0.0,0.0,0.0,0.0,0.0,0.0,0.0,0.0,0.0,0.0,0.0,0.0,-0.767,-0.7621,-0.753,-0.7489,0.0,0.0,0.0,0.0,0.0,0.0,0.0,0.0,0.0,0.0,0.0,0.0,0.0,0.0,0.0,0.0,0.0,0.0,0.0,0.0,0.0,0.0,0.0,0.0,0.0,0.0,0.0,0.0,0.0,0.0,0.0,0.0,0.0,0.0,0.0,0.0,0.0,0.0,0.0,0.0,0.0,0.0,0.0,0.0,0.0,0.0,0.0,0.0,0.0,0.0,0.0,0.0,0.0,0.0,0.0,0.0,0.0,0.0,0.0,0.0,0.0,0.0,0.0,0.0,0.0,0.0,0.0,0.0,0.0,0.0,0.0,0.0,0.0,0.0,0.0,0.0,0.0,0.0,0.0,0.0,0.0,0.0,0.0,0.0,0.0,0.0,0.0,0.0,0.0,0.0,0.0,0.0,0.0,0.0,0.0,0.0,0.0,0.0,0.0,0.0,0.0,0.0,0.0,0.0,0.0,0.0,0.0,0.0,0.0,0.0,-0.7851,-0.7851,-0.7851,-0.7751,-0.7659,-0.753,0.0,0.0,0.0,0.0,0.0,0.0,0.0,0.0,0.0,0.0,0.0,0.0,0.0,0.0,0.0,0.0,0.0,0.0,0.0,0.0,0.0,0.0,0.0,0.0,0.0,0.0,0.0,0.0,0.0,0.0,0.0,0.0,0.0,0.0,0.0,0.0,0.0,0.0,0.0,0.0,0.0,0.0,0.0,0.0,0.0,0.0,0.0,0.0,0.0,0.0,0.0,0.0,0.0,0.0,0.0,0.0,0.0,0.0,0.0,0.0,0.0,0.0,0.0,0.0,0.0,0.0,0.0,0.0,0.0,0.0,0.0,0.0,0.0,0.0,0.0,0.0,0.0,0.0,0.0,0.0,0.0,0.0,0.0,0.0,0.0,0.0,0.0,0.0,0.0,0.0,0.0,0.0,0.0,0.0,0.0,0.0,0.0,0.0,0.0,0.0,0.0,0.0,0.0,0.0,0.0,0.0,0.0,0.0,-0.8165,-0.818,-0.8187,-0.818,-0.818,-0.8034,0.0,0.0,0.0,0.0,0.0,0.0,0.0,0.0,0.0,0.0,0.0,0.0,0.0,0.0,0.0,0.0,0.0,0.0,0.0,0.0,0.0,0.0,0.0,0.0,0.0,0.0,0.0,0.0,0.0,0.0,0.0,0.0,0.0,0.0,0.0,0.0,0.0,0.0,0.0,0.0,0.0,0.0,0.0,0.0,0.0,0.0,0.0,0.0,0.0,0.0,0.0,0.0,0.0,0.0,0.0,0.0,0.0,0.0,0.0,0.0,0.0,0.0,0.0,0.0,0.0,0.0,0.0,0.0,0.0,0.0,0.0,0.0,0.0,0.0,0.0,0.0,0.0,0.0,0.0,0.0,0.0,0.0,0.0,0.0,0.0,0.0,0.0,0.0,0.0,0.0,0.0,0.0,0.0,0.0,0.0,0.0,0.0,0.0,0.0,0.0,0.0,0.0,0.0,0.0,0.0,0.0,0.0,0.0,0.0,-0.8194,-0.8399,-0.8509,-0.8509,-0.8312,-0.8143,0.0,0.0,0.0,0.0,0.0,0.0,0.0,0.0,0.0,0.0,0.0,0.0,0.0,0.0,0.0,0.0,0.0,0.0,0.0,0.0,0.0,0.0,0.0,0.0,0.0,0.0,0.0,0.0,0.0,0.0,0.0,0.0,0.0,0.0,0.0,0.0,0.0,0.0,0.0,0.0,0.0,0.0,0.0,0.0,0.0,0.0,0.0,0.0,0.0,0.0,0.0,0.0,0.0,0.0,0.0,0.0,0.0,0.0,0.0,0.0,0.0,0.0,0.0,0.0,0.0,0.0,0.0,0.0,0.0,0.0,0.0,0.0,0.0,0.0,0.0,0.0,0.0,0.0,0.0,0.0,0.0,0.0,0.0,0.0,0.0,0.0,0.0,0.0,0.0,0.0,0.0,0.0,0.0,0.0,0.0,0.0,0.0,0.0,0.0,0.0,0.0,0.0,0.0,0.0,0.0,0.0,0.0,0.0,0.0,-0.8594,0.0,-0.8996,-0.8846,-0.8633,-0.8414,0.0,0.0,0.0,0.0,0.0,0.0,0.0,0.0,0.0,0.0,0.0,0.0,0.0,0.0,0.0,0.0,0.0,0.0,0.0,0.0,0.0,0.0,0.0,0.0,0.0,0.0,0.0,0.0,0.0,0.0,0.0,0.0,0.0,0.0,0.0,0.0,0.0,0.0,0.0,0.0,0.0,0.0,0.0,0.0,0.0,0.0,0.0,0.0,0.0,0.0,0.0,0.0,0.0,0.0,0.0,0.0,0.0,0.0,0.0,0.0,0.0,0.0,0.0,0.0,0.0,0.0,0.0,0.0,0.0,0.0,0.0,0.0,0.0,0.0,0.0,0.0,0.0,0.0,0.0,0.0,0.0,0.0,0.0,0.0,0.0,0.0,0.0,0.0,0.0,0.0,0.0,0.0,0.0,0.0,0.0,0.0,0.0,0.0,0.0,0.0,0.0,0.0,0.0,0.0,0.0,0.0,0.0,0.0,-0.8761,-0.9392,-0.9679,-0.9592,-0.9247,-0.9224,-0.8868,0.0,0.0,0.0,0.0,0.0,0.0,0.0,0.0,0.0,0.0,0.0,0.0,0.0,0.0,0.0,0.0,0.0,0.0,0.0,0.0,0.0,0.0,0.0,0.0,0.0,0.0,0.0,0.0,0.0,0.0,0.0,0.0,0.0,0.0,0.0,0.0,0.0,0.0,0.0,0.0,0.0,0.0,0.0,0.0,0.0,0.0,0.0,0.0,0.0,0.0,0.0,0.0,0.0,0.0,0.0,0.0,0.0,0.0,0.0,0.0,0.0,0.0,0.0,0.0,0.0,0.0,0.0,0.0,0.0,0.0,0.0,0.0,0.0,0.0,0.0,0.0,0.0,0.0,0.0,0.0,0.0,0.0,0.0,0.0,0.0,0.0,0.0,0.0,0.0,0.0,0.0,0.0,0.0,0.0,0.0,0.0,0.0,0.0,0.0,0.0,0.0,0.0,0.0,0.0,0.0,0.0,0.0,0.0,0.0,-0.9855,-1.0023,-1.0082,-1.003,-0.9644,-0.9182,0.0,0.0,0.0,0.0,0.0,0.0,0.0,0.0,0.0,0.0,0.0,0.0,0.0,0.0,0.0,0.0,0.0,0.0,0.0,0.0,0.0,0.0,0.0,0.0,0.0,0.0,0.0,0.0,0.0,0.0,0.0,0.0,0.0,0.0,0.0,0.0,0.0,0.0,0.0,0.0,0.0,0.0,0.0,0.0,0.0,0.0,0.0,0.0,0.0,0.0,0.0,0.0,0.0,0.0,0.0,0.0,0.0,0.0,0.0,0.0,0.0,0.0,0.0,0.0,0.0,0.0,0.0,0.0,0.0,0.0,0.0,0.0,0.0,0.0,0.0,0.0,0.0,0.0,0.0,0.0,0.0,0.0,0.0,0.0,0.0,0.0,0.0,0.0,0.0,0.0,0.0,0.0,0.0,0.0,0.0,0.0,0.0,0.0,0.0,0.0,0.0,0.0,0.0,0.0,0.0,0.0,0.0,0.0,0.0,-1.0724,-1.0644,-1.0572,-1.0564,-1.0073,-0.9555,-0.9051,0.0,0.0,0.0,0.0,0.0,0.0,0.0,0.0,0.0,0.0,0.0,0.0,0.0,0.0,0.0,0.0,0.0,0.0,0.0,0.0,0.0,0.0,0.0,0.0,0.0,0.0,0.0,0.0,0.0,0.0,0.0,0.0,0.0,0.0,0.0,0.0,0.0,0.0,0.0,0.0,0.0,0.0,0.0,0.0,0.0,0.0,0.0,0.0,0.0,0.0,0.0,0.0,0.0,0.0,0.0,0.0,0.0,0.0,0.0,0.0,0.0,0.0,0.0,0.0,0.0,0.0,0.0,0.0,0.0,0.0,0.0,0.0,0.0,0.0,0.0,0.0,0.0,0.0,0.0,0.0,0.0,0.0,0.0,0.0,0.0,0.0,0.0,0.0,0.0,0.0,0.0,0.0,0.0,0.0,0.0,0.0,0.0,0.0,0.0,0.0,0.0,0.0,0.0,0.0,0.0,0.0,0.0,0.0,-1.1776,-1.1372,-1.1039,-1.083,-1.0413,-0.9965,0.0,0.0,0.0,0.0,0.0,0.0,0.0,0.0,0.0,0.0,0.0,0.0,0.0,0.0,0.0,0.0,0.0,0.0,0.0,0.0,0.0,0.0,0.0,0.0,0.0,0.0,0.0,0.0,0.0,0.0,0.0,0.0,0.0,0.0,0.0,0.0,0.0,0.0,0.0,0.0,0.0,0.0,0.0,0.0,0.0,0.0,0.0,0.0,0.0,0.0,0.0,0.0,0.0,0.0,0.0,0.0,0.0,0.0,0.0,0.0,0.0,0.0,0.0,0.0,0.0,0.0,0.0,0.0,0.0,0.0,0.0,0.0,0.0,0.0,0.0,0.0,0.0,0.0,0.0,0.0,0.0,0.0,0.0,0.0,0.0,0.0,0.0,0.0,0.0,0.0,0.0,0.0,0.0,0.0,0.0,0.0,0.0,0.0,0.0,0.0,0.0,0.0,0.0,0.0,0.0,0.0,0.0,0.0,0.0,-1.1776,-1.1827,-1.1608,-1.1182,-1.0746,-1.0192,0.0,0.0,0.0,0.0,0.0,0.0,0.0,0.0,0.0,0.0,0.0,0.0,0.0,0.0,0.0,0.0,0.0,0.0,0.0,0.0,0.0,0.0,0.0,0.0,0.0,0.0,0.0,0.0,0.0,0.0,0.0,0.0,0.0,0.0,0.0,0.0,0.0,0.0,0.0,0.0,0.0,0.0,0.0,0.0,0.0,0.0,0.0,0.0,0.0,0.0,0.0,0.0,0.0,0.0,0.0,0.0,0.0,0.0,0.0,0.0,0.0,0.0,0.0,0.0,0.0,0.0,0.0,0.0,0.0,0.0,0.0,0.0,0.0,0.0,0.0,0.0,0.0,0.0,0.0,0.0,0.0,0.0,0.0,0.0,0.0,0.0,0.0,0.0,0.0,0.0,0.0,0.0,0.0,0.0,0.0,0.0,0.0,0.0,0.0,0.0,0.0,0.0,0.0,0.0,0.0,0.0,0.0,0.0,-1.1639,-1.2081,-1.2165,-1.1984,-1.1603,-1.0953,-1.0419,0.0,0.0,0.0,0.0,0.0,0.0,0.0,0.0,0.0,0.0,0.0,0.0,0.0,0.0,0.0,0.0,0.0,0.0,0.0,0.0,0.0,0.0,0.0,0.0,0.0,0.0,0.0,0.0,0.0,0.0,0.0,0.0,0.0,0.0,0.0,0.0,0.0,0.0,0.0,0.0,0.0,0.0,0.0,0.0,0.0,0.0,0.0,0.0,0.0,0.0,0.0,0.0,0.0,0.0,0.0,0.0,0.0,0.0,0.0,0.0,0.0,0.0,0.0,0.0,0.0,0.0,0.0,0.0,0.0,0.0,0.0,0.0,0.0,0.0,0.0,0.0,0.0,0.0,0.0,0.0,0.0,0.0,0.0,0.0,0.0,0.0,0.0,0.0,0.0,0.0,0.0,0.0,0.0,0.0,0.0,0.0,0.0,0.0,0.0,0.0,0.0,0.0,0.0,0.0,0.0,0.0,0.0,0.0,-1.1688,-1.2459,-1.2367,-1.223,-1.2006,-1.1158,-1.0653,0.0,0.0,0.0,0.0,0.0,0.0,0.0,0.0,0.0,0.0,0.0,0.0,0.0,0.0,0.0,0.0,0.0,0.0,0.0,0.0,0.0,0.0,0.0,0.0,0.0,0.0,0.0,0.0,0.0,0.0,0.0,0.0,0.0,0.0,0.0,0.0,0.0,0.0,0.0,0.0,0.0,0.0,0.0,0.0,0.0,0.0,0.0,0.0,0.0,0.0,0.0,0.0,0.0,0.0,0.0,0.0,0.0,0.0,0.0,0.0,0.0,0.0,0.0,0.0,0.0,0.0,0.0,0.0,0.0,0.0,0.0,0.0,0.0,0.0,0.0,0.0,0.0,0.0,0.0,0.0,0.0,0.0,0.0,0.0,0.0,0.0,0.0,0.0,0.0,0.0,0.0,0.0,0.0,0.0,0.0,0.0,0.0,0.0,0.0,0.0,0.0,0.0,0.0,0.0,0.0,0.0,0.0,0.0,-1.1707,-1.2459,-1.2367,-1.223,-1.2028,-1.1589,-1.1174,0.0,0.0,0.0,0.0,0.0,0.0,0.0,0.0,0.0,0.0,0.0,0.0,0.0,0.0,0.0,0.0,0.0,0.0,0.0,0.0,0.0,0.0,0.0,0.0,0.0,0.0,0.0,0.0,0.0,0.0,0.0,0.0,0.0,0.0,0.0,0.0,0.0,0.0,0.0,0.0,0.0,0.0,0.0,0.0,0.0,0.0,0.0,0.0,-1.7589,0.0,0.0,0.0,0.0,0.0,0.0,0.0,0.0,0.0,0.0,0.0,0.0,0.0,0.0,0.0,0.0,0.0,0.0,0.0,0.0,0.0,0.0,0.0,0.0,0.0,0.0,0.0,0.0,0.0,0.0,0.0,0.0,0.0,0.0,0.0,0.0,0.0,0.0,0.0,0.0,0.0,0.0,0.0,0.0,0.0,0.0,0.0,0.0,0.0,0.0,0.0,0.0,0.0,0.0,0.0,0.0,0.0,0.0,0.0,-1.1767,-1.2629,-1.2461,-1.2329,-1.2255,-1.2102,-1.156,0.0,0.0,0.0,0.0,0.0,0.0,0.0,0.0,0.0,0.0,0.0,0.0,0.0,0.0,0.0,0.0,0.0,0.0,0.0,0.0,0.0,0.0,0.0,0.0,0.0,0.0,0.0,0.0,0.0,0.0,0.0,0.0,0.0,0.0,0.0,0.0,0.0,0.0,0.0,0.0,0.0,0.0,0.0,0.0,0.0,0.0,0.0,0.0,0.0,0.0,0.0,0.0,0.0,0.0,0.0,0.0,0.0,0.0,0.0,0.0,0.0,0.0,0.0,0.0,0.0,0.0,0.0,0.0,0.0,0.0,0.0,0.0,0.0,0.0,0.0,0.0,0.0,0.0,0.0,0.0,0.0,0.0,0.0,0.0,0.0,0.0,0.0,0.0,0.0,0.0,0.0,0.0,0.0,0.0,0.0,0.0,0.0,0.0,0.0,0.0,0.0,0.0,0.0,0.0,0.0,0.0,0.0,-1.1254,-1.1794,-1.2751,-1.2593,-1.2526,-1.2526,-1.2526,-1.1911,-1.0638,0.0,0.0,0.0,0.0,0.0,0.0,0.0,0.0,0.0,0.0,0.0,0.0,0.0,0.0,0.0,0.0,0.0,0.0,0.0,0.0,0.0,0.0,0.0,0.0,0.0,0.0,0.0,0.0,0.0,0.0,0.0,0.0,0.0,0.0,0.0,0.0,0.0,0.0,-1.5499,-1.6114,0.0,0.0,0.0,0.0,0.0,0.0,0.0,0.0,-1.7496,0.0,0.0,0.0,0.0,0.0,0.0,0.0,0.0,0.0,0.0,0.0,0.0,0.0,0.0,0.0,0.0,0.0,0.0,0.0,0.0,0.0,0.0,0.0,0.0,0.0,0.0,0.0,0.0,0.0,0.0,0.0,0.0,0.0,0.0,0.0,0.0,0.0,0.0,0.0,0.0,0.0,0.0,0.0,0.0,0.0,0.0,0.0,0.0,0.0,0.0,0.0,0.0,0.0,0.0,0.0,0.0,-1.1099,-1.1254,-1.1794,-1.2774,-1.2593,-1.2526,-1.2526,-1.2526,-1.1911,-1.0675,0.0,0.0,0.0,0.0,0.0,0.0,0.0,0.0,0.0,0.0,0.0,0.0,0.0,0.0,0.0,0.0,0.0,0.0,0.0,0.0,0.0,0.0,0.0,0.0,0.0,0.0,0.0,0.0,0.0,0.0,0.0,0.0,0.0,0.0,0.0,0.0,0.0,0.0,0.0,-1.6491,-1.6639,0.0,0.0,0.0,0.0,0.0,0.0,0.0,0.0,-1.7572,0.0,0.0,0.0,0.0,0.0,0.0,0.0,0.0,0.0,0.0,0.0,0.0,0.0,0.0,0.0,0.0,0.0,0.0,0.0,0.0,0.0,0.0,0.0,0.0,0.0,0.0,0.0,0.0,0.0,0.0,0.0,0.0,0.0,0.0,0.0,0.0,0.0,0.0,0.0,0.0,0.0,0.0,0.0,0.0,0.0,0.0,0.0,0.0,0.0,0.0,0.0,0.0,0.0,0.0,0.0,-1.0838,-1.1359,-1.1946,-1.2639,-1.2755,-1.2701,-1.2526,-1.2526,-1.1911,0.0,0.0,0.0,0.0,0.0,0.0,0.0,0.0,0.0,0.0,0.0,0.0,0.0,0.0,0.0,0.0,0.0,0.0,0.0,0.0,0.0,0.0,0.0,0.0,0.0,0.0,0.0,0.0,0.0,0.0,0.0,0.0,0.0,0.0,0.0,0.0,0.0,0.0,0.0,0.0,-1.7137,-1.7318,-1.7721,0.0,0.0,0.0,0.0,0.0,0.0,-1.8336,-1.8475,0.0,0.0,0.0,0.0,0.0,0.0,0.0,0.0,0.0,0.0,0.0,0.0,0.0,0.0,0.0,0.0,0.0,0.0,0.0,0.0,0.0,0.0,0.0,0.0,0.0,0.0,0.0,0.0,0.0,0.0,0.0,0.0,0.0,0.0,0.0,0.0,0.0,0.0,0.0,0.0,0.0,0.0,0.0,0.0,0.0,0.0,0.0,0.0,0.0,0.0,0.0,0.0,0.0,0.0,0.0,-1.0616,-1.1545,-1.2189,-1.2519,-1.284,-1.2855,-1.2533,-1.2526,-1.1919,0.0,0.0,0.0,0.0,0.0,0.0,0.0,0.0,0.0,0.0,0.0,0.0,0.0,0.0,0.0,0.0,0.0,0.0,0.0,0.0,0.0,0.0,0.0,0.0,0.0,0.0,0.0,0.0,0.0,0.0,0.0,0.0,0.0,0.0,0.0,0.0,0.0,0.0,0.0,0.0,0.0,-1.8066,-1.8586,-1.8695,0.0,0.0,0.0,0.0,-1.8914,-1.9103,0.0,0.0,0.0,0.0,0.0,0.0,0.0,0.0,0.0,0.0,0.0,0.0,0.0,0.0,0.0,0.0,0.0,0.0,0.0,0.0,0.0,0.0,0.0,0.0,0.0,0.0,0.0,0.0,0.0,0.0,0.0,0.0,0.0,0.0,0.0,0.0,0.0,0.0,0.0,0.0,0.0,0.0,0.0,0.0,0.0,0.0,0.0,0.0,0.0,0.0,0.0,0.0,0.0,0.0,0.0,0.0,-1.0616,-1.1545,-1.2197,-1.2519,-1.284,-1.2855,-1.2533,-1.2526,-1.1911,0.0,0.0,0.0,0.0,0.0,0.0,0.0,0.0,0.0,0.0,0.0,0.0,0.0,0.0,0.0,0.0,0.0,0.0,0.0,0.0,0.0,0.0,0.0,0.0,0.0,0.0,0.0,0.0,0.0,0.0,0.0,0.0,0.0,0.0,0.0,0.0,0.0,0.0,0.0,0.0,0.0,-1.8437,-1.85,-1.8515,-1.8546,0.0,0.0,-1.868,-1.8726,-1.8842,0.0,0.0,0.0,0.0,0.0,0.0,0.0,0.0,0.0,0.0,0.0,0.0,0.0,0.0,0.0,0.0,0.0,0.0,0.0,0.0,0.0,0.0,0.0,0.0,0.0,0.0,0.0,0.0,0.0,0.0,0.0,0.0,0.0,0.0,0.0,0.0,0.0,0.0,0.0,0.0,0.0,0.0,0.0,0.0,0.0,0.0,0.0,0.0,0.0,0.0,0.0,0.0,0.0,0.0,0.0,-1.058,-1.0631,-1.1721,-1.238,-1.2526,-1.3016,-1.3038,-1.2533,-1.2526,-1.1911,0.0,0.0,0.0,0.0,0.0,0.0,0.0,0.0,0.0,0.0,0.0,0.0,0.0,0.0,0.0,0.0,0.0,0.0,0.0,0.0,0.0,0.0,0.0,0.0,0.0,0.0,0.0,0.0,0.0,0.0,0.0,0.0,0.0,0.0,0.0,0.0,0.0,0.0,0.0,0.0,0.0,0.0,-1.9983,-2.0404,0.0,0.0,0.0,-2.0686,-2.0789,0.0,0.0,0.0,0.0,0.0,0.0,0.0,0.0,0.0,0.0,0.0,0.0,0.0,0.0,0.0,0.0,0.0,0.0,0.0,0.0,0.0,0.0,0.0,0.0,0.0,0.0,0.0,0.0,0.0,0.0,0.0,0.0,0.0,0.0,0.0,0.0,0.0,0.0,0.0,0.0,0.0,0.0,0.0,0.0,0.0,0.0,0.0,0.0,0.0,0.0,0.0,0.0,0.0,0.0,0.0,0.0,0.0,-1.0726,-1.1904,-1.2526,-1.2541,-1.3155,-1.3221,-1.2665,-1.257,0.0,0.0,0.0,0.0,0.0,0.0,0.0,0.0,0.0,0.0,0.0,0.0,0.0,0.0,0.0,0.0,0.0,0.0,0.0,0.0,0.0,0.0,0.0,0.0,0.0,0.0,0.0,-1.3615,0.0,0.0,0.0,0.0,0.0,0.0,0.0,0.0,0.0,0.0,0.0,0.0,0.0,0.0,-2.1018,-2.1345,-2.1888,-2.2263,0.0,0.0,-2.2171,-2.2301,-2.2452,-2.2713,0.0,0.0,0.0,0.0,0.0,0.0,0.0,0.0,0.0,0.0,0.0,0.0,0.0,0.0,0.0,0.0,0.0,0.0,0.0,0.0,0.0,0.0,0.0,0.0,0.0,0.0,0.0,0.0,0.0,0.0,0.0,0.0,0.0,0.0,0.0,0.0,0.0,0.0,0.0,0.0,0.0,0.0,0.0,0.0,0.0,0.0,0.0,0.0,0.0,0.0,0.0,0.0,0.0,0.0,0.0,-1.107,-1.2021,-1.2526,-1.2541,-1.3155,-1.3331,-1.2987,-1.268,-1.2197,0.0,0.0,0.0,0.0,0.0,0.0,0.0,0.0,0.0,0.0,0.0,0.0,0.0,0.0,0.0,0.0,0.0,0.0,0.0,0.0,0.0,0.0,0.0,0.0,0.0,0.0,0.0,0.0,0.0,0.0,0.0,0.0,0.0,0.0,0.0,0.0,0.0,0.0,0.0,0.0,0.0,-2.1996,-2.1957,-2.2002,-2.2048,0.0,0.0,-2.2033,-2.2033,-2.2202,-2.2415,-2.2611,0.0,0.0,0.0,0.0,0.0,0.0,0.0,0.0,0.0,0.0,0.0,0.0,0.0,0.0,0.0,0.0,0.0,0.0,0.0,0.0,0.0,0.0,0.0,0.0,0.0,0.0,0.0,0.0,0.0,0.0,0.0,0.0,0.0,0.0,0.0,0.0,0.0,0.0,0.0,0.0,0.0,0.0,0.0,0.0,0.0,0.0,0.0,0.0,0.0,0.0,0.0,0.0,0.0,-1.0748,-1.1137,-1.2028,-1.2526,-1.2548,-1.3162,-1.3345,-1.3016,-1.2694,-1.2219,0.0,0.0,0.0,0.0,0.0,0.0,0.0,0.0,0.0,0.0,0.0,0.0,0.0,0.0,0.0,0.0,0.0,0.0,0.0,0.0,0.0,0.0,0.0,0.0,0.0,0.0,0.0,0.0,-1.4695,-1.514,-1.5579,0.0,0.0,0.0,0.0,0.0,0.0,0.0,0.0,0.0,0.0,-2.2626,-2.2506,-2.319,0.0,0.0,-2.3964,-2.4235,-2.4323,-2.4524,-2.4737,-2.4978,-2.535,0.0,0.0,0.0,0.0,0.0,0.0,0.0,0.0,0.0,0.0,0.0,0.0,0.0,0.0,0.0,0.0,0.0,0.0,0.0,0.0,0.0,0.0,0.0,0.0,0.0,0.0,0.0,0.0,0.0,0.0,0.0,0.0,0.0,0.0,0.0,0.0,0.0,0.0,0.0,0.0,0.0,0.0,0.0,0.0,0.0,0.0,0.0,0.0,0.0,0.0,0.0,0.0,-1.0938,-1.1363,-1.2123,-1.257,-1.2672,-1.3214,-1.3389,-1.3162,-1.284,-1.2409,0.0,0.0,0.0,0.0,0.0,0.0,0.0,0.0,0.0,0.0,0.0,0.0,0.0,0.0,0.0,0.0,0.0,0.0,0.0,0.0,0.0,0.0,0.0,0.0,0.0,0.0,0.0,0.0,-1.514,-1.5697,-1.6172,0.0,0.0,0.0,0.0,0.0,0.0,0.0,0.0,0.0,0.0,-2.3396,-2.3505,-2.4372,-2.4911,-2.4881,-2.5254,-2.5615,-2.5708,-2.5879,-2.6092,-2.6349,0.0,0.0,0.0,0.0,0.0,0.0,0.0,0.0,0.0,0.0,0.0,0.0,0.0,0.0,0.0,0.0,0.0,0.0,0.0,0.0,0.0,0.0,0.0,0.0,0.0,0.0,0.0,0.0,0.0,0.0,-0.5421,0.0,0.0,0.0,0.0,0.0,0.0,0.0,0.0,0.0,0.0,0.0,0.0,0.0,0.0,0.0,0.0,0.0,0.0,0.0,0.0,0.0,0.0,-1.1377,-1.1927,-1.235,-1.268,-1.2987,-1.3331,-1.3484,-1.3462,-1.317,-1.284,-1.2489,0.0,0.0,0.0,0.0,0.0,0.0,0.0,0.0,0.0,0.0,0.0,0.0,0.0,0.0,0.0,0.0,0.0,0.0,0.0,0.0,0.0,0.0,0.0,0.0,0.0,0.0,-1.4849,-1.5311,-1.5777,0.0,0.0,0.0,0.0,0.0,0.0,0.0,0.0,0.0,0.0,-2.3746,-2.444,-2.5011,-2.5287,-2.5396,-2.5381,-2.5521,-2.563,-2.5659,-2.5753,-2.5894,0.0,0.0,0.0,0.0,0.0,0.0,0.0,0.0,0.0,0.0,0.0,0.0,0.0,0.0,0.0,0.0,0.0,0.0,0.0,0.0,0.0,0.0,0.0,0.0,0.0,0.0,0.0,-0.5644,-0.5632,0.0,0.0,0.0,0.0,0.0,0.0,0.0,0.0,0.0,0.0,0.0,-1.0176,-1.0638,0.0,0.0,0.0,0.0,0.0,0.0,0.0,0.0,0.0,0.0,0.0,0.0,-1.1604,-1.2036,-1.257,-1.2906,-1.3009,-1.3323,-1.3492,-1.3492,-1.3184,-1.2753,-1.2211,0.0,0.0,0.0,0.0,0.0,0.0,0.0,0.0,0.0,0.0,0.0,0.0,0.0,0.0,0.0,0.0,0.0,0.0,0.0,0.0,0.0,0.0,0.0,0.0,0.0,-1.5788,0.0,0.0,0.0,0.0,0.0,0.0,0.0,0.0,0.0,0.0,0.0,-2.2637,-2.3241,-2.3985,-2.4525,-2.4785,-2.5374,-2.5771,0.0,0.0,0.0,0.0,0.0,0.0,0.0,0.0,0.0,0.0,0.0,0.0,0.0,0.0,-2.5559,-2.5481,-2.4899,-2.4388,-2.4459,0.0,0.0,0.0,0.0,0.0,0.0,0.0,0.0,0.0,0.0,0.0,0.0,0.0,0.0,-0.5888,0.0,-0.5762,0.0,0.0,0.0,0.0,0.0,0.0,0.0,0.0,-0.91,-0.9765,-1.039,-1.0836,-1.1177,0.0,-1.1771,-1.1622,0.0,0.0,0.0,0.0,0.0,0.0,0.0,0.0,-1.205,-1.2372,-1.2789,-1.3067,-1.3177,-1.3382,-1.3492,-1.3484,-1.3177,-1.2735,-1.2246,-1.1891,-1.1582,0.0,0.0,0.0,0.0,0.0,0.0,0.0,0.0,0.0,0.0,0.0,0.0,0.0,0.0,0.0,0.0,0.0,0.0,0.0,0.0,0.0,0.0,0.0,-1.6759,0.0,0.0,0.0,0.0,0.0,0.0,0.0,0.0,0.0,-2.1569,-2.2216,-2.2944,-2.3631,-2.4233,-2.4688,-2.4944,0.0,0.0,0.0,0.0,0.0,0.0,0.0,-2.7473,-2.7524,-2.774,-2.7788,-2.7364,-2.702,-2.6748,-2.6748,0.0,0.0,-2.6373,-2.5708,-2.5178,-2.5317,-2.503,-2.5037,-2.577,-2.5957,-2.6247,0.0,0.0,0.0,0.0,0.0,0.0,0.0,0.0,-0.5937,-0.5945,0.0,-0.5933,0.0,0.0,0.0,0.0,0.0,-0.7464,0.0,0.0,-0.9417,-1.0092,-1.0538,-1.1109,-1.1546,-1.1813,-1.1783,-1.1847,-1.1943,-1.1997,0.0,0.0,0.0,0.0,0.0,0.0,-1.2694,-1.298,-1.3016,-1.3177,-1.3477,-1.3484,-1.3492,-1.3484,-1.3192,-1.2875,-1.2692,-1.226,-1.1783,-1.1331,-1.1435,0.0,0.0,0.0,0.0,0.0,0.0,0.0,0.0,0.0,0.0,0.0,0.0,0.0,0.0,0.0,0.0,0.0,0.0,0.0,0.0,-1.6469,0.0,0.0,0.0,0.0,0.0,0.0,0.0,0.0,0.0,0.0,-2.1587,-2.242,-2.3378,-2.4177,0.0,0.0,0.0,0.0,-2.6283,-2.6283,-2.6659,-2.6951,-2.6937,-2.7093,-2.7233,-2.735,0.0,0.0,-2.7575,-2.756,-2.7515,-2.756,-2.755,-2.7353,-2.6581,-2.6512,-2.6611,-2.6785,-2.6761,-2.6983,-2.7237,-2.7169,-2.7306,-0.7411,0.0,0.0,0.0,0.0,-0.672,-0.6716,-0.6716,-0.672,-0.6716,-0.6639,-0.6518,0.0,0.0,0.0,0.0,0.0,0.0,-0.8159,-0.8786,-0.9424,-1.0063,-1.0824,-1.155,-1.2069,-1.2349,-1.2779,-1.2982,-1.3051,-1.3201,-1.2934,-1.22,0.0,0.0,0.0,0.0,-1.2914,-1.3016,-1.3236,-1.3397,-1.3492,-1.3492,-1.3419,-1.3273,-1.3179,-1.2956,-1.2516,-1.2333,-1.2062,-1.1668,-1.1527,0.0,0.0,0.0,0.0,0.0,0.0,0.0,0.0,0.0,0.0,0.0,0.0,0.0,0.0,0.0,0.0,0.0,0.0,0.0,-1.6325,-1.7329,-1.8125,0.0,0.0,0.0,0.0,0.0,0.0,0.0,0.0,0.0,-2.2447,-2.2918,-2.3457,0.0,0.0,-2.4619,-2.4964,-2.5425,-2.5687,-2.5673,-2.6042,0.0,0.0,-2.6539,-2.6788,-2.6937,-2.7144,-2.7284,-2.7321,-2.7321,-2.7335,-2.7321,-2.7335,-2.7238,-2.7031,-2.6892,-2.6887,-2.6965,-2.6747,-2.6541,-2.6642,-2.6788,-2.6891,-0.789,-0.7362,-0.7224,-0.7237,-0.7237,-0.7233,-0.7237,-0.7163,-0.7163,-0.7127,-0.7058,-0.6948,-0.6859,-0.6781,-0.6744,0.0,0.0,0.0,-0.8444,-0.9251,-0.9792,-1.039,-1.1095,-1.1944,-1.2457,-1.2612,-1.316,-1.3351,-1.343,-1.3581,-1.3369,-1.2725,0.0,0.0,-1.3006,-1.3185,-1.3286,-1.3366,-1.3546,-1.364,-1.364,-1.3525,-1.3321,-1.3053,-1.3046,-1.2882,-1.2476,-1.2423,-1.2263,-1.2034,-1.1978,-1.197,0.0,0.0,0.0,0.0,0.0,0.0,0.0,0.0,0.0,0.0,0.0,-1.4067,0.0,0.0,0.0,0.0,-1.6026,-1.6626,-1.7288,-1.8092,0.0,0.0,0.0,0.0,0.0,0.0,0.0,-2.2115,-2.2655,-2.3058,-2.3116,-2.3289,-2.3449,-2.3633,-2.3992,-2.4319,-2.4447,0.0,-2.5007,-2.5007,-2.5481,-2.5825,-2.5811,-2.6082,-2.6418,-2.6553,-2.6698,-2.6803,-2.6855,-2.6907,-2.6907,-2.6945,-2.6959,-2.7026,-2.713,-2.6994,-2.7025,-2.7221,-2.7096,-2.6916,-2.6995,-2.7088,-2.7196,-0.8235,-0.8048,-0.7711,-0.7553,-0.7525,-0.7525,-0.7525,-0.7525,-0.7525,-0.7435,-0.7289,-0.7285,-0.7196,-0.7114,-0.7245,0.0,-0.7878,-0.8286,-0.8859,-0.9764,-1.0295,-1.0891,-1.1387,-1.2203,-1.2616,-1.2641,-1.3041,-1.328,-1.3287,-1.3505,-1.3571,-1.3571,-1.3729,-1.3787,-1.3817,-1.3817,-1.3817,-1.3817,-1.381,-1.3817,-1.381,-1.3537,-1.3167,-1.2942,-1.2935,-1.2774,-1.2592,-1.2476,-1.2388,-1.2353,-1.2441,-1.2476,-1.2542,0.0,0.0,0.0,0.0,0.0,0.0,0.0,0.0,0.0,0.0,0.0,0.0,0.0,0.0,0.0,-1.7236,0.0,-1.8017,-1.8527,0.0,0.0,0.0,-2.0263,-2.0921,-2.1455,-2.2021,-2.2417,0.0,0.0,-2.3509,-2.345,-2.3403,-2.3569,-2.376,-2.3903,-2.3891,-2.4203,-2.4465,-2.4465,-2.4964,-2.5356,-2.5356,-2.5701,-2.6042,-2.6233,-2.6286,-2.6286,-2.634,-2.6433,-2.6457,-2.651,-2.6645,-2.6832,-2.6951,-2.6974,-2.7107,-2.7444,-2.7645,-2.776,-2.7815,-2.7849,-2.7932,-0.867,-0.8609,-0.8398,-0.8146,-0.789,-0.7886,-0.7886,-0.789,-0.7886,-0.7866,-0.7825,-0.7829,-0.7801,-0.776,-0.7756,-0.8024,-0.8471,-0.8604,-0.9133,-0.9913,-1.0363,-1.0974,-1.1646,-1.2474,-1.2997,-1.3188,-1.3708,-1.3874,-1.3881,-1.3958,-1.3958,-1.3958,-1.4041,-1.3967,-1.3838,-1.3817,-1.3817,-1.3817,-1.3817,-1.3817,-1.381,-1.374,-1.3481,-1.2948,-1.2934,-1.2757,-1.2385,-1.2384,-1.2308,-1.2161,-1.2291,-1.2462,-1.2491,-1.2933,0.0,0.0,0.0,0.0,0.0,0.0,0.0,0.0,0.0,-1.626,-1.6279,0.0,-1.6703,0.0,-1.7276,-1.7585,-1.7791,-1.8089,0.0,0.0,-1.9553,-2.0205,-2.0878,-2.1511,-2.2006,-2.2396,-2.2761,-2.303,-2.309,-2.3138,-2.3198,-2.3198,-2.339,-2.3582,-2.3688,-2.3878,-2.4099,-2.4216,-2.4478,-2.4738,-2.4921,-2.5314,-2.5646,-2.5825,-2.6002,-2.6165,-2.6179,-2.6272,-2.6379,-2.6472,-2.651,-2.6645,-2.6832,-2.6951,-2.7003,-2.7144,-2.735,-2.7503,-2.7554,-2.7705,-2.784,-0.8893,-0.8812,-0.8718,-0.8515,-0.826,-0.8264,-0.826,-0.826,-0.826,-0.8215,-0.8134,-0.8048,-0.8012,-0.8012,-0.8012,-0.8304,-0.8805,-0.8805,-0.9354,-1.0282,-1.0616,-1.1182,-1.1826,-1.2661,-1.3168,-1.3392,-1.3919,-1.4088,-1.4088,-1.4088,-1.4088,-1.4088,-1.4088,-1.4088,-1.3926,-1.3913,-1.3913,-1.3913,-1.3913,-1.3844,-1.3714,-1.3707,-1.3484,-1.3121,-1.3101,-1.2889,-1.2512,-1.2498,-1.2439,-1.2294,-1.249,-1.2643,-1.276,-1.3226,-1.37,0.0,0.0,0.0,0.0,0.0,0.0,0.0,0.0,0.0,0.0,0.0,-1.7425,-1.7425,-1.7676,-1.787,-1.7934,-1.8266,-1.8575,-1.9007,-1.9497,-2.0031,-2.0659,-2.1163,-2.1639,-2.2149,-2.242,-2.2678,-2.28,-2.2909,-2.3017,-2.303,-2.315,-2.3318,-2.3378,-2.3569,-2.37,-2.376,-2.4041,-2.4363,-2.4593,-2.4935,-2.5203,-2.5384,-2.5564,-2.566,-2.5715,-2.5948,-2.6165,-2.619,-2.6351,-2.651,-2.6645,-2.6817,-2.6884,-2.6937,-2.7093,-2.7248,-2.7284,-2.7488,-2.759,-0.9031,-0.8889,-0.8865,-0.8755,-0.8601,-0.8601,-0.8589,-0.8572,-0.8572,-0.8479,-0.8316,-0.8154,-0.8081,-0.8085,-0.8085,-0.8422,-0.8994,-0.8998,-0.9605,-1.0636,-1.0901,-1.1338,-1.1952,-1.2717,-1.3137,-1.3398,-1.3822,-1.4082,-1.4088,-1.4088,-1.4088,-1.4088,-1.4088,-1.4088,-1.4088,-1.4088,-1.4088,-1.4088,-1.4088,-1.3955,-1.3707,-1.3701,-1.3561,-1.3287,-1.3267,-1.312,-1.2903,-1.2849,-1.2777,-1.26,-1.2774,-1.2919,-1.3011,-1.3497,-1.3854,0.0,-1.4654,0.0,0.0,0.0,0.0,0.0,0.0,0.0,0.0,-1.7803,-1.8008,-1.8008,-1.8144,-1.8269,-1.8279,-1.8539,-1.8865,-1.9177,-1.9396,-1.9802,-2.0388,-2.0711,-2.1083,-2.1702,-2.1975,-2.2247,-2.2555,-2.2739,-2.2848,-2.2909,-2.2969,-2.3078,-2.3078,-2.3271,-2.339,-2.3403,-2.3654,-2.3982,-2.4305,-2.4549,-2.4721,-2.4835,-2.5005,-2.5118,-2.5104,-2.5495,-2.5825,-2.5893,-2.615,-2.6404,-2.6457,-2.6645,-2.6779,-2.6779,-2.6884,-2.7041,-2.713,-2.7284,-2.7401,-0.9287,-0.9242,-0.9104,-0.8938,-0.8775,-0.8771,-0.8694,-0.8572,-0.8572,-0.8548,-0.8511,-0.8475,-0.8463,-0.8463,-0.8463,-0.8653,-0.8943,-0.9118,-0.957,-1.0125,-1.0722,-1.1246,-1.1763,-1.2448,-1.296,-1.3392,-1.3652,-1.3913,-1.4088,-1.4088,-1.4088,-1.4088,-1.4088,-1.4088,-1.4088,0.0,0.0,0.0,-1.4088,-1.4062,-1.4008,-1.4001,-1.3861,-1.3574,-1.3479,0.0,-1.3133,-1.2956,-1.2795,-1.2741,-1.2662,0.0,0.0,0.0,0.0,0.0,0.0,0.0,0.0,0.0,0.0,0.0,-1.7697,-1.7891,-1.7891,-1.7969,-1.8008,-1.8008,-1.8018,-1.8134,-1.8269,-1.8337,-1.8529,-1.8865,-1.9065,-1.9341,-1.9736,-2.0194,-2.0658,-2.1019,-2.1463,-2.1925,-2.2247,-2.2432,-2.2543,-2.2739,-2.2848,-2.2909,-2.2969,-2.3078,-2.3198,-2.339,-2.3582,-2.3747,-2.3995,-2.4054,-2.4157,-2.4261,-2.4465,-2.4637,-2.4694,-2.5048,-2.5453,-2.5674,-2.5893,-2.6096,-2.6272,-2.6472,-2.6578,-2.6563,-2.6712,-2.6899,-2.6989,-2.7144,-2.7284,-0.9437,0.0,-0.9263,-0.9068,0.0,-0.882,-0.8723,-0.8572,-0.8572,-0.8572,-0.8572,-0.8572,-0.8572,-0.8572,-0.8572,-0.874,-0.8911,-0.9087,-0.9432,-1.0038,-1.0381,-1.0901,-1.1499,-1.21,-1.2619,-1.3052,-1.3476,-1.3737,-1.3913,-1.4004,-1.4088,-1.4088,-1.4088,-1.4088,-1.4088,-1.4088,-1.4088,-1.4088,-1.4088,-1.4088,-1.4088,-1.4088,-1.4015,-1.3874,0.0,0.0,0.0,0.0,0.0,0.0,0.0,0.0,0.0,0.0,0.0,-1.4209,-1.484,-1.5488,-1.6061,-1.6821,-1.7314,-1.7461,-1.7813,-1.8008,-1.8008,-1.8008,-1.8008,-1.8008,-1.8008,-1.8076,-1.8144,-1.8144,-1.8269,-1.8549,-1.8674,-1.8798,-1.9208,-1.9594,-1.9987,-2.0302,-2.0816,-2.1273,-2.16,-2.1913,-2.2173,-2.2432,-2.2543,-2.2665,-2.28,-2.2957,-2.3138,-2.321,-2.339,-2.3509,-2.3641,-2.37,-2.376,-2.3852,-2.4086,-2.4203,-2.4319,-2.4607,-2.4991,-2.5286,-2.5495,-2.5756,-2.6056,-2.6218,-2.6365,-2.6472,-2.6578,-2.6712,-2.6884,-2.6989,-2.7093,-0.9543,-0.9405,-0.9401,-0.9214,-0.8917,-0.8913,-0.882,-0.8658,0.0,0.0,0.0,-0.8613,-0.8609,-0.8613,-0.8613,-0.8681,-0.8828,-0.8911,-0.9262,-0.9777,-0.9951,-1.0381,-1.1149,-1.1671,-1.2186,-1.2705,-1.3307,-1.3652,-1.3737,-1.3997,-1.4088,-1.4088,-1.4088,-1.4088,-1.4088,-1.4088,-1.4088,-1.4088,-1.4088,-1.4088,-1.4088,-1.4088,-1.4088,-1.4088,-1.4088,-1.3975,-1.3734,-1.3674,-1.3414,-1.2933,-1.2952,-1.2866,-1.2695,-1.3148,-1.3557,-1.3992,-1.4705,-1.5275,-1.5921,-1.6612,-1.7176,-1.7539,-1.7803,-1.8008,-1.8008,-1.8008,-1.8008,-1.8008,-1.8008,-1.8008,-1.8008,-1.8008,-1.8076,-1.8202,-1.8269,-1.8405,-1.8674,-1.9054,-1.9441,-1.9704,-2.0194,-2.0593,-2.1019,-2.1262,-2.1663,-2.1987,-2.2161,-2.2359,-2.2616,-2.2909,-2.3078,-2.3138,-2.3258,-2.3343,-2.3343,-2.345,-2.3509,-2.3509,-2.3688,-2.3819,-2.3995,-2.4203,-2.4536,-2.4821,-2.5077,-2.5425,-2.5729,-2.5934,-2.6111,-2.6351,-2.6457,-2.6539,-2.6712,-2.6832,-2.6937,-0.9612,-0.9592,-0.9587,-0.947,-0.9279,-0.9279,-0.9181,-0.9003,-0.8698,-0.8649,-0.8783,-0.8783,-0.8783,-0.8787,-0.8783,-0.8702,-0.8656,-0.8823,-0.8999,-0.9087,-0.9694,-1.012,-1.0467,-1.1068,-1.1757,-1.2448,-1.2966,-1.3392,-1.3737,-1.3997,-1.4088,-1.4088,-1.4088,-1.4088,-1.4088,-1.4088,-1.4088,-1.4088,-1.4088,-1.4088,-1.4088,-1.4088,-1.4088,-1.4088,-1.4088,-1.4075,-1.4021,-1.3781,-1.3607,-1.3514,-1.3097,-1.2878,-1.29,-1.2973,-1.3193,-1.3564,-1.4137,-1.4776,-1.5267,-1.5982,-1.6751,-1.7579,-1.7862,-1.8008,-1.8008,-1.8008,-1.8008,-1.8008,-1.8008,-1.8008,-1.8008,-1.8008,-1.8008,-1.8076,-1.8202,-1.8337,-1.8405,-1.8798,-1.9187,-1.9309,-1.9724,-2.014,-2.0518,-2.07,-2.0955,-2.14,-2.1714,-2.1963,-2.2359,-2.2726,-2.2957,-2.3078,-2.3138,-2.3125,-2.3138,-2.3138,-2.3198,-2.3198,-2.333,-2.3522,-2.3509,-2.3865,-2.4216,-2.435,-2.4751,-2.5048,-2.5286,-2.5674,-2.5893,-2.6002,-2.6165,-2.6379,-2.6525,-2.6578,-2.6698,-0.9624,-0.9624,-0.9624,-0.9522,-0.9352,-0.9254,-0.9173,-0.9088,-0.8926,-0.8897,-0.8966,-0.897,-0.8913,-0.8824,-0.882,-0.8727,-0.8656,-0.8744,-0.8823,-0.8915,-0.9535,-0.9944,-1.0303,-1.0999,-1.1532,-1.2046,-1.2605,-1.296,-1.3222,-1.3652,-1.3913,-1.3906,-1.3997,-1.4088,-1.4088,-1.4088,-1.4088,-1.4088,-1.4088,-1.4088,-1.4088,-1.4088,-1.4088,-1.4088,-1.4088,-1.4088,-1.4088,-1.3955,-1.3808,-1.3647,-1.3387,-1.316,-1.3155,-1.3086,-1.3227,-1.3518,-1.4091,-1.4641,-1.5204,-1.6123,-1.683,-1.7364,-1.7716,-1.7862,-1.7852,-1.794,-1.8008,-1.8008,-1.8008,-1.8008,-1.8008,-1.8008,-1.8008,-1.8008,-1.8066,-1.8144,-1.8212,-1.8414,-1.8664,-1.8787,-1.9162,-1.9571,-1.9846,-2.0053,-2.0388,-2.0892,-2.1262,-2.1639,-2.1975,-2.2285,-2.2616,-2.2909,-2.2957,-2.3017,-2.3078,-2.3125,-2.3078,-2.303,-2.315,-2.321,-2.3258,-2.3509,-2.3819,-2.4041,-2.4332,-2.4549,-2.4765,-2.516,-2.5439,-2.5784,-2.5948,-2.6165,-2.6312,-2.6472,-2.6578,-0.9624,-0.9624,-0.9624,-0.9547,-0.9405,-0.9275,-0.9218,-0.9218,-0.9218,-0.9218,-0.9214,-0.9177,-0.9076,-0.895,-0.8942,-0.8848,-0.8702,-0.8686,-0.8775,-0.8962,-0.9358,-0.9786,-1.0253,-1.079,-1.1325,-1.1747,-1.2313,-1.2623,-1.2881,-1.3338,-1.3646,-1.3737,-1.3913,-1.4082,-1.4088,-1.4088,-1.4088,-1.4088,-1.4088,-1.4088,-1.4088,-1.4088,-1.4088,-1.4088,-1.4088,-1.4088,-1.4088,-1.4088,-1.3981,-1.3761,-1.3681,-1.3459,-1.3313,-1.3324,-1.3425,-1.3568,-1.4029,-1.4496,-1.5133,-1.6123,-1.683,-1.7028,-1.7373,-1.7647,-1.7706,-1.7852,-1.794,-1.8008,-1.8008,-1.8008,-1.8008,-1.8008,-1.8008,-1.8008,-1.8008,-1.8008,-1.8008,-1.8154,-1.8279,-1.8347,-1.8674,-1.9008,-1.9187,-1.9462,-1.9922,-2.0377,-2.0892,-2.1262,-2.1463,-2.18,-2.2173,-2.2531,-2.2763,-2.2884,-2.2944,-2.2957,-2.2957,-2.286,-2.2982,-2.2969,-2.303,-2.315,-2.3343,-2.3641,-2.3878,-2.4099,-2.4305,-2.465,-2.4991,-2.5397,-2.5619,-2.5839,-2.6111,-2.6326,-2.6525,-0.9624,-0.9624,-0.9624,-0.962,-0.9596,-0.9575,-0.9563,-0.9567,-0.9575,-0.9579,-0.9543,-0.9405,-0.9319,-0.9307,-0.9291,-0.919,-0.9039,-0.9047,-0.9039,-0.9124,-0.9338,-0.9528,-0.9899,-1.0357,-1.1002,-1.1619,-1.1953,-1.2363,-1.2961,-1.3083,-1.3307,-1.3646,-1.3737,-1.3828,-1.4088,-1.4088,-1.4088,-1.4088,-1.4088,-1.4088,-1.4088,-1.4088,-1.4088,-1.4088,-1.4088,-1.4088,-1.4088,-1.4088,-1.4075,-1.4028,-1.3788,-1.3552,-1.3581,-1.3552,-1.3416,-1.339,-1.3712,-1.4237,-1.488,-1.5692,-1.6342,-1.6603,-1.7028,-1.7373,-1.7638,-1.7716,-1.7784,-1.793,-1.8008,-1.8008,-1.8008,-1.8008,-1.8008,-1.8008,-1.8008,-1.8008,-1.8008,-1.8183,-1.8329,-1.8279,-1.8492,-1.8647,-1.8808,-1.9075,-1.9407,-1.9868,-2.0388,-2.07,-2.0752,-2.1146,-2.1588,-2.2013,-2.2359,-2.2689,-2.2726,-2.2739,-2.2739,-2.2739,-2.2751,-2.2739,-2.28,-2.2848,-2.303,-2.3223,-2.345,-2.3688,-2.3923,-2.4261,-2.4593,-2.4892,-2.5174,-2.5397,-2.5839,-2.6111,-2.6394,-0.9624,-0.9624,-0.9624,-0.9624,-0.9624,-0.9624,-0.9624,-0.9624,-0.9624,-0.9624,-0.962,-0.9351,-0.936,-0.936,-0.9356,-0.9263,-0.9104,-0.9096,-0.9096,-0.9108,-0.9481,-0.9716,-0.9811,-1.0193,-1.0665,-1.1115,-1.137,-1.1738,-1.2297,-1.2665,-1.3052,-1.3313,-1.3561,-1.3737,-1.3828,-1.4004,-1.4088,-1.4088,-1.4088,-1.4088,-1.4088,-1.4088,-1.4088,-1.4088,-1.4088,-1.4088,-1.4088,-1.4088,-1.4088,-1.4082,-1.3968,-1.3908,-1.3901,-1.3784,-1.3721,-1.3663,-1.3942,-1.4267,-1.4585,-1.5196,-1.57,-1.5912,-1.6412,-1.6821,-1.7176,-1.7451,-1.7666,-1.7794,-1.794,-1.8008,-1.8008,-1.8008,-1.8008,-1.8008,-1.8008,-1.8008,-1.8008,-1.8086,-1.8095,-1.8144,-1.8279,-1.8424,-1.8539,-1.8741,-1.9065,-1.9396,-1.9802,-2.0064,-2.0302,-2.0646,-2.1031,-2.14,-2.1788,-2.2173,-2.2555,-2.2678,-2.2678,-2.2555,-2.2629,-2.269,-2.2543,-2.2665,-2.28,-2.286,-2.303,-2.3271,-2.339,-2.3734,-2.4086,-2.4434,-2.4948,-2.5342,-2.5729,-2.5948,-2.6179,-0.9624,-0.9624,-0.9624,-0.9624,-0.9624,-0.9624,-0.9529,-0.9529,-0.9529,-0.943,-0.9327,-0.913,-0.9158,-0.9243,-0.9332,-0.926,-0.9155,-0.9242,-0.9242,-0.9259,-0.9569,-0.9812,-0.9908,-1.011,-1.0495,-1.0752,-1.0942,-1.1161,-1.1531,-1.2139,-1.2605,-1.2808,-1.3222,-1.3476,-1.3568,-1.3828,-1.4004,-1.3997,-1.4088,-1.4088,-1.4088,-1.4088,-1.4088,-1.4088,-1.4088,-1.4088,-1.4088,-1.4088,-1.4088,-1.4088,-1.4088,-1.4088,-1.4075,-1.4047,-1.3899,-1.3933,-1.4023,-1.4097,-1.4217,-1.4689,-1.4991,-1.5346,-1.5771,-1.6202,-1.6691,-1.7047,-1.7314,-1.7579,-1.7794,-1.793,-1.8008,-1.8008,-1.8008,-1.8008,-1.8008,-1.8008,-1.8008,-1.8008,-1.8008,-1.8008,-1.8144,-1.8269,-1.8337,-1.8539,-1.8741,-1.8931,-1.9208,-1.9473,-1.9781,-2.0129,-2.0464,-2.0903,-2.1065,-2.1509,-2.2259,-2.2432,-2.242,-2.242,-2.2494,-2.2494,-2.2359,-2.2494,-2.2616,-2.2604,-2.2726,-2.286,-2.303,-2.333,-2.3688,-2.4144,-2.465,-2.5104,-2.5384,-2.5619,-2.5839,-0.9624,-0.9628,-0.9624,-0.9624,-0.9628,-0.9628,-0.943,-0.9236,-0.9232,-0.913,-0.8928,-0.8821,-0.8817,-0.8803,-0.9103,-0.9217,-0.9201,-0.9383,-0.9473,-0.9473,-0.9596,-0.9706,-1.001,-1.001,-1.0297,-1.0654,-1.0491,-1.0585,-1.094,-1.1677,-1.2085,-1.2037,-1.254,-1.2875,-1.3137,-1.3483,-1.3737,-1.3737,-1.3997,-1.4088,-1.4088,-1.4088,-1.4088,-1.4088,-1.4088,-1.4088,-1.4088,-1.4088,-1.4088,-1.4088,-1.4088,-1.4088,-1.4082,-1.4068,-1.4011,-1.3872,-1.3719,-1.3741,-1.3901,-1.4101,-1.4353,-1.484,-1.5125,-1.5559,-1.6202,-1.6542,-1.6811,-1.7166,-1.751,-1.7784,-1.794,-1.794,-1.8008,-1.8008,-1.8008,-1.8008,-1.8008,-1.8008,-1.8008,-1.8008,-1.8008,-1.8144,-1.8279,-1.8347,-1.8414,-1.8539,-1.8741,-1.8942,-1.9198,-1.9452,-1.9857,-2.0335,-2.0616,-2.0937,-2.1749,-2.1987,-2.2049,-2.2123,-2.2185,-2.2247,-2.2247,-2.2247,-2.2309,-2.2359,-2.242,-2.2555,-2.2739,-2.3042,-2.345,-2.3852,-2.4247,-2.4637,-2.4978,-2.5118,-2.5397,-0.9526,-0.9632,-0.9624,-0.9624,-0.9628,-0.943,-0.9236,-0.9236,-0.9034,-0.8928,-0.8726,-0.8627,-0.8531,-0.8531,-0.863,-0.8733,-0.8931,-0.9031,-0.9126,-0.9126,-0.9126,-0.9126,-0.9221,-0.9221,-0.9521,-0.9908,-0.9955,-1.0079,-1.0566,-1.1036,-1.13,-1.1372,-1.1916,-1.2363,-1.2711,-1.3052,-1.3398,-1.3646,-1.3828,-1.3913,-1.4082,-1.4088,-1.4088,-1.4088,-1.4088,-1.4088,-1.4088,-1.4088,-1.4088,-1.4088,-1.4088,-1.4088,-1.4088,-1.4088,-1.4045,-1.3913,-1.3842,-1.3703,-1.3563,-1.37,-1.3911,-1.4137,-1.441,-1.484,-1.5488,-1.5903,-1.6254,-1.6612,-1.7097,-1.7382,-1.752,-1.7794,-1.8008,-1.8008,-1.8008,-1.8008,-1.8008,-1.8008,-1.8008,-1.8008,-1.8008,-1.8008,-1.8076,-1.8144,-1.8212,-1.8337,-1.8395,-1.8596,-1.8865,-1.9131,-1.9452,-1.9802,-2.0129,-2.0442,-2.0967,-2.1411,-2.1663,-2.1874,-2.1999,-2.2123,-2.2123,-2.2185,-2.2247,-2.2247,-2.2309,-2.2371,-2.2555,-2.2848,-2.3198,-2.3437,-2.378,-2.4131,-2.4465,-2.465,-2.4935,-0.9384,-0.9335,-0.9324,-0.9327,-0.9327,-0.913,-0.9034,-0.8931,-0.873,-0.8627,-0.8531,-0.8333,-0.8237,-0.8233,-0.8233,-0.8333,-0.8528,-0.873,-0.8825,-0.8825,-0.8825,-0.8825,-0.8825,-0.8825,-0.9027,-0.9327,-0.943,-0.9734,-1.0018,-1.0413,-1.0615,-1.071,-1.1294,-1.1793,-1.2048,-1.2496,-1.296,-1.3307,-1.3483,-1.3737,-1.3913,-1.4082,-1.4088,-1.4088,-1.4088,-1.4088,-1.4088,-1.4088,-1.4088,-1.4088,-1.4088,-1.4088,-1.4088,-1.4088,-1.4085,-1.398,-1.3858,-1.3722,-1.3549,-1.3467,-1.3497,-1.3675,-1.3835,-1.4201,-1.4784,-1.5267,-1.5621,-1.5982,-1.6551,-1.6899,-1.7097,-1.7451,-1.7794,-1.7862,-1.794,-1.8008,-1.8008,-1.8008,-1.8008,-1.8008,-1.8008,-1.8008,-1.8008,-1.8008,-1.8076,-1.8212,-1.8202,-1.8337,-1.8607,-1.8731,-1.8931,-1.9264,-1.9594,-1.9846,-2.0237,-2.0624,-2.1198,-2.1526,-2.1874,-2.1925,-2.2049,-2.2123,-2.2197,-2.2197,-2.2185,-2.2309,-2.242,-2.2665,-2.2836,-2.303,-2.3258,-2.3616,-2.3897,-2.4118,-2.4465,-0.8978,-0.8832,-0.8825,-0.8825,-0.8825,-0.8825,-0.8627,-0.8435,-0.8432,-0.8333,-0.8137,-0.8038,-0.8038,-0.8038,-0.8038,-0.8038,-0.8137,-0.8531,-0.8726,-0.8726,-0.8726,-0.8726,-0.8726,-0.8726,-0.873,-0.8825,-0.9031,-0.9245,-0.9376,-0.9793,-1.0072,-1.0186,-1.0634,-1.1054,-1.1326,-1.1815,-1.2209,-1.2705,-1.3137,-1.3476,-1.3737,-1.3913,-1.3997,-1.4088,-1.4082,-1.4088,-1.4088,-1.4088,-1.4088,-1.4088,-1.4088,-1.4088,-1.4088,-1.4088,-1.4082,-1.4021,-1.3814,-1.3743,-1.3804,-1.3413,-1.332,-1.3485,-1.3489,-1.3682,-1.4088,-1.4561,-1.4982,-1.5275,-1.5842,-1.6333,-1.6533,-1.695,-1.7382,-1.7638,-1.7852,-1.794,-1.8008,-1.8008,-1.8008,-1.8008,-1.8008,-1.8008,-1.8008,-1.8008,-1.8008,-1.8008,-1.8008,-1.8076,-1.8269,-1.8405,-1.8472,-1.8741,-1.9065,-1.9396,-1.9649,-1.9911,-2.0549,-2.1135,-2.1537,-2.18,-2.1925,-2.2061,-2.2123,-2.2123,-2.2197,-2.2247,-2.2309,-2.2543,-2.2665,-2.2787,-2.2969,-2.315,-2.3378,-2.3662,-2.3943,-0.8369,-0.824,-0.8432,-0.8528,-0.8528,-0.8531,-0.8428,-0.8333,-0.8233,-0.8041,-0.8038,-0.8038,-0.8038,-0.8038,-0.8038,-0.8038,-0.8038,-0.8134,-0.8233,-0.8237,-0.8233,-0.8233,-0.8237,-0.8237,-0.8329,-0.8531,-0.8829,-0.8905,-0.9029,-0.922,-0.9411,-0.9617,-0.9926,-1.0313,-1.0826,-1.1081,-1.151,-1.2203,-1.2534,-1.2881,-1.3222,-1.3483,-1.3652,-1.3822,-1.3828,-1.3913,-1.4082,-1.4088,-1.4088,-1.4088,-1.4088,-1.4088,-1.4088,-1.4088,-1.4088,-1.4082,-1.4008,-1.3841,-1.3661,-1.3548,-1.3317,-1.3251,-1.3202,-1.3259,-1.3455,-1.3912,-1.4266,-1.4489,-1.5133,-1.563,-1.5842,-1.6263,-1.689,-1.7638,-1.7774,-1.7862,-1.794,-1.8008,-1.8008,-1.8008,-1.8008,-1.8008,-1.8008,-1.8008,-1.8008,-1.8008,-1.8008,-1.8008,-1.8076,-1.8202,-1.8269,-1.8472,-1.8741,-1.8942,-1.9198,-1.9528,-1.9977,-2.0613,-2.1071,-2.1537,-2.1737,-2.1937,-2.1999,-2.2123,-2.2123,-2.2197,-2.2247,-2.2359,-2.2482,-2.2543,-2.2665,-2.2848,-2.309,-2.3258,-2.3484,-0.7607,-0.745,-0.7795,-0.7885,-0.7839,-0.7935,-0.8035,-0.8038,-0.7939,-0.7942,-0.7939,-0.8038,-0.8038,-0.8038,-0.8038,-0.8038,-0.8038,-0.8038,-0.8038,-0.8038,-0.8038,-0.8038,-0.8038,-0.8038,-0.8041,-0.8233,-0.8432,-0.8531,-0.8619,-0.8728,-0.887,-0.9131,-0.9271,-0.9699,-1.02,-1.0334,-1.08,-1.1472,-1.1899,-1.2186,-1.2705,-1.3052,-1.3313,-1.3483,-1.3652,-1.3737,-1.3913,-1.4082,-1.4088,-1.4088,-1.4088,-1.4088,-1.4088,-1.4088,-1.4088,-1.4088,-1.4075,-1.3995,-1.3821,-1.3694,-1.3473,-1.3233,-1.3081,-1.303,-1.3173,-1.3438,-1.3702,-1.392,-1.4418,-1.4919,-1.5275,-1.563,-1.6263,-1.7088,-1.7364,-1.7647,-1.7794,-1.794,-1.8008,-1.8008,-1.8008,-1.8008,-1.8008,-1.8008,-1.8008,-1.8008,-1.8008,-1.8008,-1.8008,-1.8076,-1.8144,-1.8279,-1.8405,-1.8607,-1.8808,-1.9131,-1.9452,-2.0042,-2.056,-2.1083,-2.1474,-2.1686,-2.1886,-2.1999,-2.2061,-2.2197,-2.2247,-2.2247,-2.2371,-2.2432,-2.2432,-2.2543,-2.2726,-2.2775,-2.3005,-0.6554,-0.6461,-0.6777,-0.6957,-0.6848,-0.7141,-0.7441,-0.7643,-0.7643,-0.7743,-0.7942,-0.8038,-0.8038,-0.8038,-0.8038,-0.8038,-0.8038,-0.8038,-0.8038,-0.8038,-0.8038,-0.8038,-0.8038,-0.8038,-0.8038,-0.8038,-0.8038,-0.8137,-0.8333,-0.8414,-0.8531,-0.8784,-0.8859,-0.916,-0.9539,-0.9556,-0.994,-1.0751,-1.1112,-1.1537,-1.194,-1.2619,-1.3052,-1.3052,-1.3392,-1.3646,-1.3737,-1.3997,-1.4088,-1.4088,-1.4088,-1.4088,-1.4088,-1.4088,-1.4088,-1.4088,-1.4088,-1.4082,-1.4015,-1.3854,-1.3658,-1.352,-1.3253,-1.3,-1.3088,-1.3278,-1.3431,-1.355,-1.3983,-1.439,-1.4832,-1.5129,-1.5623,-1.6254,-1.6927,-1.7382,-1.7706,-1.7862,-1.794,-1.8008,-1.8008,-1.8008,-1.8008,-1.8008,-1.8008,-1.8008,-1.8008,-1.8008,-1.8008,-1.8008,-1.8008,-1.8144,-1.8269,-1.8337,-1.8539,-1.8674,-1.9065,-1.9518,-2.0107,-2.056,-2.1158,-2.1498,-2.1761,-2.1937,-2.2061,-2.2123,-2.2197,-2.2247,-2.2247,-2.2247,-2.2309,-2.2309,-2.2359,-2.2482,-2.2665,-0.6039,-0.5856,-0.6266,-0.6452,-0.6548,-0.6742,-0.7144,-0.7543,-0.7543,-0.7743,-0.7939,-0.8038,-0.8038,-0.8038,-0.8038,-0.8038,-0.8038,-0.8038,-0.8038,-0.8038,-0.8038,-0.8038,-0.8038,-0.8038,-0.8038,-0.8038,-0.8038,-0.8038,-0.8137,-0.8134,-0.8233,-0.8528,-0.8579,-0.8698,-0.9052,-0.9246,-0.9524,-0.9935,-1.0488,-1.0885,-1.1267,-1.1763,-1.2363,-1.279,-1.2875,-1.3215,-1.3652,-1.3997,-1.4088,-1.4088,-1.4088,-1.4088,-1.4088,-1.4088,-1.4088,-1.4088,-1.4088,-1.4088,-1.4068,-1.4008,-1.3824,-1.3665,-1.3527,-1.3366,-1.3155,-1.329,-1.3432,-1.3557,-1.3885,-1.4241,-1.4691,-1.4911,-1.5351,-1.5998,-1.6669,-1.7263,-1.7569,-1.7706,-1.7852,-1.794,-1.8008,-1.8008,-1.8008,-1.8008,-1.8008,-1.8008,-1.8008,-1.8008,-1.8008,-1.8008,-1.8008,-1.8008,-1.8076,-1.8212,-1.8279,-1.8405,-1.8674,-1.9131,-1.9584,-2.0031,-2.07,-2.1371,-2.1624,-2.1874,-2.1937,-2.1999,-2.2123,-2.2197,-2.2197,-2.2197,-2.2197,-2.2247,-2.2247,-2.2371,-2.2494,-0.5139,-0.4947,-0.5388,-0.5672,-0.5744,-0.6039,-0.6542,-0.7042,-0.7244,-0.7447,-0.7743,-0.7939,-0.8038,-0.8038,-0.8038,-0.8038,-0.8038,-0.8038,-0.8038,-0.8038,-0.8038,-0.8038,-0.8038,-0.8038,-0.8038,-0.8038,-0.8038,-0.8038,-0.8038,-0.8038,-0.8137,-0.8233,-0.8233,-0.8386,-0.8694,-0.8798,-0.8977,-0.9326,-0.9731,-1.0103,-1.0431,-1.0937,-1.1419,-1.2015,-1.2363,-1.2881,-1.3476,-1.3828,-1.3997,-1.4088,-1.4088,-1.4088,-1.4088,-1.4088,-1.4088,-1.4088,-1.4088,-1.4088,-1.4088,-1.4088,-1.4015,-1.3841,-1.3741,-1.3506,-1.3414,-1.3393,-1.3396,-1.3509,-1.3745,-1.4045,-1.4435,-1.4747,-1.5194,-1.5708,-1.6355,-1.6863,-1.7342,-1.7579,-1.7716,-1.7852,-1.793,-1.8008,-1.8008,-1.8008,-1.8008,-1.8008,-1.8008,-1.8008,-1.8008,-1.8008,-1.8008,-1.8008,-1.8008,-1.8076,-1.8144,-1.8269,-1.8337,-1.8731,-1.9264,-1.9704,-2.0366,-2.1106,-2.1498,-2.1686,-2.1812,-2.1937,-2.2061,-2.2197,-2.2197,-2.2197,-2.2197,-2.2197,-2.2247,-2.2247,-2.2432,-0.4128,-0.4045,-0.4508,-0.4688,-0.4748,-0.5037,-0.5639,-0.6237,-0.6642,-0.7045,-0.7447,-0.7842,-0.7939,-0.7939,-0.7942,-0.8038,-0.8038,-0.8038,-0.8038,-0.8038,-0.8038,-0.8038,-0.8038,-0.8038,-0.8038,-0.8038,-0.8038,-0.8038,-0.8038,-0.8038,-0.8038,-0.8038,-0.8038,-0.8137,-0.8389,-0.83,-0.8423,-0.8794,-0.9011,-0.9302,-0.9651,-1.0133,-1.0646,-1.1154,-1.2015,-1.2619,-1.3222,-1.3568,-1.3828,-1.4004,-1.4088,-1.4088,-1.4088,-1.4088,-1.4088,-1.4088,-1.4088,-1.4088,-1.4088,-1.4088,-1.4088,-1.4015,-1.3828,-1.3622,-1.3675,-1.3532,-1.3521,-1.3608,-1.36,-1.3846,-1.4223,-1.4631,-1.5034,-1.5404,-1.5708,-1.6093,-1.6704,-1.7263,-1.7638,-1.7647,-1.7862,-1.793,-1.8008,-1.8008,-1.8008,-1.8008,-1.8008,-1.8008,-1.8008,-1.8008,-1.8008,-1.8008,-1.8008,-1.8008,-1.8076,-1.8134,-1.8269,-1.8472,-1.8988,-1.9507,-2.0107,-2.0711,-2.1181,-2.1509,-2.1686,-2.1874,-2.2061,-2.2123,-2.2197,-2.2197,-2.2197,-2.2197,-2.2197,-2.2185,-2.2309,-0.4081,-0.3742,-0.4196,-0.4276,-0.4246,-0.4634,-0.5236,-0.5834,-0.6237,-0.6639,-0.7042,-0.7444,-0.7646,-0.7746,-0.7842,-0.8038,-0.8038,-0.8038,-0.8038,-0.8038,-0.8038,-0.8038,-0.8038,-0.8038,-0.8038,-0.8038,-0.8038,-0.8038,-0.8038,-0.8038,-0.8038,-0.8038,-0.8038,-0.8038,-0.8127,-0.8294,-0.8318,-0.8394,-0.8667,-0.8866,-0.9083,-0.946,-0.9965,-1.0727,-1.1757,-1.2448,-1.2875,-1.3392,-1.3737,-1.3822,-1.3997,-1.4082,-1.4088,-1.4088,-1.4088,-1.4088,-1.4088,-1.4088,-1.4088,-1.4088,-1.4088,-1.4075,-1.4021,-1.4015,-1.3964,-1.3891,-1.3888,-1.3941,-1.3998,-1.4069,-1.4282,-1.4543,-1.4852,-1.5139,-1.5187,-1.5314,-1.59,-1.666,-1.7047,-1.7304,-1.7579,-1.7784,-1.7794,-1.7872,-1.794,-1.8008,-1.8008,-1.8008,-1.8008,-1.8008,-1.8008,-1.8008,-1.8008,-1.8008,-1.8008,-1.8066,-1.8134,-1.8269,-1.8731,-1.9253,-1.9857,-2.0377,-2.085,-2.1244,-2.1572,-2.1749,-2.1999,-2.2135,-2.2197,-2.2197,-2.2197,-2.2197,-2.2197,-2.2197,-2.2197,-0.3677,-0.3243,-0.3674,-0.3757,-0.3745,-0.4034,-0.4636,-0.5233,-0.5636,-0.6139,-0.6639,-0.7042,-0.7347,-0.7643,-0.7743,-0.7842,-0.7939,-0.8038,-0.8038,-0.8038,-0.8038,-0.8038,-0.8038,-0.8038,-0.8038,-0.8038,-0.8038,-0.8038,-0.8038,-0.8038,-0.8038,-0.8038,-0.8038,-0.8038,-0.8038,-0.8137,-0.8195,-0.8213,-0.835,-0.8468,-0.8578,-0.8951,-0.9499,-1.04,-1.1241,-1.1849,-1.2186,-1.2875,-1.3137,-1.3307,-1.3652,-1.3997,-1.4082,-1.4088,-1.4088,-1.4088,-1.4088,-1.4088,-1.4088,-1.4088,-1.4088,-1.4088,-1.4088,-1.4088,-1.4088,-1.4088,-1.4088,-1.4088,-1.4075,-1.4159,-1.4391,-1.4455,-1.4707,-1.4816,-1.4934,-1.5065,-1.5263,-1.5922,-1.6542,-1.6821,-1.7166,-1.7373,-1.751,-1.7657,-1.7735,-1.7735,-1.7784,-1.7852,-1.7862,-1.7862,-1.8008,-1.8008,-1.8008,-1.8008,-1.8008,-1.8076,-1.8144,-1.8279,-1.8549,-1.9008,-1.9473,-1.9998,-2.0453,-2.0914,-2.1434,-2.1686,-2.1937,-2.2061,-2.2197,-2.2197,-2.2197,-2.2197,-2.2197,-2.2197,-2.2197,-0.3177,-0.2743,-0.3155,-0.3242,-0.3151,-0.3438,-0.3935,-0.4636,-0.5037,-0.5539,-0.6137,-0.6542,-0.6945,-0.7344,-0.7444,-0.7643,-0.7842,-0.7939,-0.7939,-0.8038,-0.8038,-0.8038,-0.8038,-0.8038,-0.8038,-0.8038,-0.8038,-0.8038,-0.8038,-0.8038,-0.8038,-0.8038,-0.8038,-0.8038,-0.8038,-0.8038,-0.8031,-0.7997,-0.8063,-0.8137,-0.8077,-0.8463,-0.9076,-0.9897,-1.0641,-1.1154,-1.158,-1.2186,-1.2619,-1.2619,-1.3222,-1.3659,-1.3913,-1.4088,-1.4088,-1.4088,-1.4088,-1.4088,-1.4088,-1.4088,-1.4088,-1.4088,-1.4088,-1.4088,-1.4088,-1.4088,-1.4088,-1.4088,-1.4088,-1.4166,-1.4314,-1.4364,-1.4428,-1.4582,-1.4889,-1.4813,-1.4805,-1.5324,-1.5694,-1.6123,-1.6612,-1.6959,-1.7097,-1.7245,-1.7392,-1.747,-1.7579,-1.7638,-1.7716,-1.7794,-1.7862,-1.8008,-1.8008,-1.8008,-1.8008,-1.8008,-1.8076,-1.8212,-1.8414,-1.8751,-1.9208,-1.9736,-2.0259,-2.085,-2.1308,-2.1612,-2.1874,-2.2073,-2.2135,-2.2197,-2.2197,-2.2197,-2.2197,-2.2197,-2.2197,-0.285,-0.2586,-0.2642,-0.2632,-0.2683,-0.3049,-0.3432,-0.3935,-0.4535,-0.4935,-0.5135,-0.5839,-0.6239,-0.6637,-0.6842,-0.7144,-0.7543,-0.7643,-0.7739,-0.7942,-0.7942,-0.7942,-0.8038,-0.8038,-0.8038,-0.8038,-0.8038,-0.8038,-0.8038,-0.8038,-0.8038,-0.8038,-0.8038,-0.8038,-0.8038,-0.8038,-0.8038,-0.8024,-0.8007,-0.8011,-0.8101,-0.8058,-0.8372,-0.9192,-0.9951,-1.0467,-1.0895,-1.1585,-1.2106,-1.2186,-1.2796,-1.3137,-1.3398,-1.3743,-1.4004,-1.4082,-1.4088,-1.4088,-1.4088,-1.4088,-1.4088,-1.4088,-1.4088,-1.4088,-1.4088,-1.4088,-1.4088,-1.4088,-1.4088,-1.4088,-1.4166,-1.4159,-1.423,-1.4358,-1.4358,-1.4332,-1.4655,-1.4706,-1.4885,-1.5256,-1.5902,-1.6473,-1.6542,-1.6751,-1.6968,-1.7116,-1.7314,-1.7442,-1.751,-1.7647,-1.7794,-1.7862,-1.8008,-1.8008,-1.8008,-1.8008,-1.8008,-1.8076,-1.8279,-1.8617,-1.9008,-1.9539,-2.0129,-2.0646,-2.1106,-2.1474,-2.1737,-2.2011,-2.2135,-2.2197,-2.2197,-2.2197,-2.2197,-2.2197,-2.2197,-0.2636,-0.2287,-0.2538,-0.2531,-0.2382,-0.2644,-0.3029,-0.3432,-0.3833,-0.4234,-0.4636,-0.5037,-0.5539,-0.5937,-0.6139,-0.6542,-0.7045,-0.7344,-0.754,-0.7743,-0.7842,-0.7842,-0.7939,-0.8038,-0.8038,-0.8038,-0.8038,-0.8038,-0.8038,-0.8038,-0.8038,-0.8038,-0.8038,-0.8038,-0.8038,-0.8038,-0.8038,-0.8018,-0.7963,-0.7885,-0.7994,-0.7798,-0.8117,-0.8693,-0.9257,-0.9777,-1.0376,-1.089,-1.1322,-1.1585,-1.2192,-1.2534,-1.2881,-1.3228,-1.3659,-1.3822,-1.3997,-1.4088,-1.4088,-1.4088,-1.4088,-1.4088,-1.4088,-1.4088,-1.4088,-1.4088,-1.4088,-1.4088,-1.4088,-1.4088,-1.4088,-1.4088,-1.4166,-1.4223,-1.4178,-1.4207,-1.4325,-1.4259,-1.4349,-1.4576,-1.5121,-1.561,-1.5842,-1.6123,-1.6473,-1.676,-1.6968,-1.7176,-1.7304,-1.7451,-1.7588,-1.7725,-1.7803,-1.7872,-1.7872,-1.7872,-1.7872,-1.8008,-1.8144,-1.8482,-1.8808,-1.9274,-1.9736,-2.0248,-2.0764,-2.121,-2.1612,-2.1886,-2.2011,-2.2197,-2.2197,-2.2197,-2.2197,-2.2197,-2.2197,-0.2324,-0.2088,-0.233,-0.2325,-0.2184,-0.2241,-0.2623,-0.3029,-0.313,-0.3531,-0.4034,-0.4236,-0.4636,-0.5135,-0.5436,-0.5837,-0.6542,-0.6839,-0.7042,-0.7444,-0.7547,-0.7743,-0.7842,-0.7939,-0.8038,-0.8038,-0.8038,-0.8038,-0.8038,-0.8038,-0.8038,-0.8038,-0.8038,-0.8038,-0.8038,-0.8038,-0.8038,-0.8038,-0.8035,-0.796,-0.778,-0.7833,-0.797,-0.834,-0.8664,-0.9078,-0.9598,-1.0115,-1.0463,-1.0895,-1.1327,-1.1843,-1.2192,-1.2619,-1.3045,-1.3476,-1.3828,-1.3997,-1.4088,-1.4088,-1.4088,-1.4088,-1.4088,-1.4088,-1.4088,-1.4088,-1.4088,-1.4088,-1.4088,-1.4088,-1.4088,-1.4088,-1.4088,-1.4166,-1.4223,-1.4309,-1.4173,-1.4037,-1.3967,-1.4244,-1.4576,-1.4808,-1.4968,-1.548,-1.5903,-1.6123,-1.6333,-1.676,-1.6959,-1.7176,-1.7323,-1.7461,-1.7598,-1.7598,-1.7666,-1.7657,-1.7735,-1.7813,-1.8008,-1.8279,-1.8539,-1.8942,-1.9396,-1.9911,-2.0366,-2.088,-2.136,-2.1761,-2.1886,-2.2011,-2.2135,-2.2135,-2.2197,-2.2197,-2.2197,-0.2128,-0.2124,-0.1915,-0.1915,-0.2113,-0.2051,-0.2223,-0.2522,-0.2725,-0.2826,-0.3128,-0.3429,-0.383,-0.4232,-0.4734,-0.5236,-0.5636,-0.6039,-0.6339,-0.6842,-0.7244,-0.7444,-0.7646,-0.7942,-0.7942,-0.7939,-0.7939,-0.8038,-0.8038,-0.8038,-0.8038,-0.8038,-0.8038,-0.8038,-0.8038,-0.8038,-0.8038,-0.8038,-0.8038,-0.7963,-0.7811,-0.7837,-0.7862,-0.797,-0.8116,-0.8472,-0.8907,-0.9248,-0.9689,-1.012,-1.0554,-1.0982,-1.1408,-1.1837,-1.2357,-1.2875,-1.3392,-1.3822,-1.3997,-1.4088,-1.4088,-1.4088,-1.4088,-1.4088,-1.4088,-1.4088,-1.4088,-1.4088,-1.4088,-1.4088,-1.4088,-1.4088,-1.4088,-1.4088,-1.4159,-1.423,-1.4185,-1.3892,-1.3846,-1.3754,-1.4033,-1.4111,-1.4229,-1.4816,-1.5338,-1.5559,-1.5771,-1.6193,-1.6542,-1.683,-1.7047,-1.7176,-1.7323,-1.7392,-1.7451,-1.752,-1.7598,-1.7608,-1.7813,-1.8076,-1.8347,-1.8607,-1.8988,-1.9518,-1.9966,-2.0431,-2.0903,-2.1296,-2.1624,-2.1812,-2.1937,-2.2061,-2.2197,-2.2197,-2.2135,-0.1917,-0.1919,-0.183,-0.1827,-0.1912,-0.1867,-0.1938,-0.2124,-0.2323,-0.2424,-0.2624,-0.2825,-0.3126,-0.3429,-0.393,-0.4332,-0.4734,-0.5135,-0.5636,-0.6137,-0.6639,-0.6942,-0.7244,-0.7543,-0.7743,-0.7743,-0.7942,-0.8038,-0.8038,-0.8038,-0.8038,-0.8038,-0.8038,-0.8038,-0.8038,-0.8038,-0.8038,-0.8038,-0.8028,-0.796,-0.7834,-0.7832,-0.7792,-0.7741,-0.784,-0.8116,-0.8304,-0.8552,-0.8907,-0.934,-0.9689,-1.0125,-1.0636,-1.1063,-1.1499,-1.2272,-1.2528,-1.3045,-1.3737,-1.3828,-1.3913,-1.4082,-1.4088,-1.4088,-1.4088,-1.4088,-1.4088,-1.4088,-1.4088,-1.4088,-1.4088,-1.4088,-1.4088,-1.4088,-1.4088,-1.4166,-1.4099,-1.387,-1.3682,-1.3532,-1.345,-1.3535,-1.3615,-1.4053,-1.4569,-1.4848,-1.5204,-1.5709,-1.6123,-1.6473,-1.6682,-1.689,-1.7038,-1.7176,-1.7245,-1.7314,-1.7382,-1.7461,-1.7539,-1.7803,-1.8008,-1.8337,-1.8664,-1.9054,-1.9441,-1.9977,-2.0453,-2.0903,-2.136,-2.1549,-2.1675,-2.1812,-2.1937,-2.1999,-2.1999,-0.1716,-0.1718,-0.174,-0.1732,-0.1702,-0.1674,-0.1748,-0.1922,-0.192,-0.202,-0.212,-0.222,-0.2321,-0.2522,-0.2923,-0.3325,-0.3629,-0.423,-0.4732,-0.5233,-0.5837,-0.6239,-0.6639,-0.7042,-0.7344,-0.7444,-0.7743,-0.7842,-0.7942,-0.7942,-0.8038,-0.8038,-0.8038,-0.8038,-0.8038,-0.8038,-0.8038,-0.8038,-0.8038,-0.798,-0.7889,-0.7831,-0.7756,-0.7681,-0.7647,-0.7746,-0.7967,-0.8025,-0.8292,-0.8732,-0.8903,-0.934,-0.9951,-1.0207,-1.0722,-1.1327,-1.1671,-1.2186,-1.2875,-1.3392,-1.3652,-1.3913,-1.4088,-1.4088,-1.4088,-1.4088,-1.4088,-1.4088,-1.4088,-1.4088,-1.4088,-1.4088,-1.4088,-1.4088,-1.4088,-1.4088,-1.4062,-1.3888,-1.3694,-1.3548,-1.3378,-1.3151,-1.3264,-1.3476,-1.3805,-1.4065,-1.4569,-1.5141,-1.5638,-1.6123,-1.6473,-1.6682,-1.6821,-1.6959,-1.7038,-1.7176,-1.7245,-1.7314,-1.7392,-1.7461,-1.7666,-1.793,-1.8192,-1.8586,-1.8988,-1.9253,-1.966,-2.0377,-2.1031,-2.1158,-2.1285,-2.1486,-2.1686,-2.1749,-2.1874,-0.1746,-0.1747,-0.175,-0.1733,-0.1704,-0.1674,-0.1647,-0.1723,-0.1619,-0.1618,-0.1717,-0.1617,-0.1716,-0.1815,-0.2017,-0.232,-0.2521,-0.3327,-0.3729,-0.4332,-0.5035,-0.5536,-0.5837,-0.6339,-0.6845,-0.6945,-0.7344,-0.7543,-0.7746,-0.7846,-0.7942,-0.8038,-0.8038,-0.8038,-0.8038,-0.8038,-0.8038,-0.8038,-0.8038,-0.8038,-0.797,-0.7892,-0.7746,-0.7597,-0.7537,-0.7483,-0.7517,-0.7595,-0.7764,-0.8204,-0.8288,-0.864,-0.9257,-0.934,-0.9859,-1.0463,-1.0722,-1.1241,-1.1929,-1.2705,-1.3307,-1.3652,-1.3913,-1.3997,-1.3997,-1.4088,-1.4088,-1.4088,-1.4088,-1.4088,-1.4088,-1.4088,-1.4088,-1.4088,-1.4088,-1.4088,-1.4088,-1.4075,-1.3874,-1.3647,-1.3367,-1.3131,-1.2919,-1.3131,-1.3236,-1.3557,-1.4201,-1.4776,-1.5355,-1.585,-1.6202,-1.6473,-1.6603,-1.6751,-1.6899,-1.6968,-1.7047,-1.7116,-1.7185,-1.7245,-1.7314,-1.7579,-1.7784,-1.8124,-1.8452,-1.8664,-1.8931,-1.9584,-2.0172,-2.0571,-2.0892,-2.1158,-2.1423,-2.16,-2.1737,-0.1761,-0.1777,-0.1778,-0.176,-0.1732,-0.172,-0.1688,-0.1649,-0.1645,-0.1531,-0.1313,-0.1212,-0.1111,-0.111,-0.1211,-0.1413,-0.1716,-0.2321,-0.2723,-0.3327,-0.4031,-0.4533,-0.4937,-0.5536,-0.6139,-0.6342,-0.6845,-0.7347,-0.7646,-0.7646,-0.7842,-0.7942,-0.7939,-0.8038,-0.8038,-0.8038,-0.8038,-0.8038,-0.8038,-0.8038,-0.8028,-0.7991,-0.7879,-0.7733,-0.759,-0.7533,-0.7483,-0.7279,-0.7514,-0.7676,-0.7764,-0.8116,-0.8556,-0.8644,-0.9078,-0.9685,-0.9777,-1.0294,-1.1068,-1.1929,-1.2619,-1.3307,-1.3652,-1.3822,-1.3828,-1.4004,-1.4088,-1.4088,-1.4088,-1.4088,-1.4088,-1.4088,-1.4088,-1.4088,-1.4088,-1.4088,-1.4088,-1.4088,-1.4055,-1.3828,-1.3494,-1.316,-1.2956,-1.2688,-1.2891,-1.3112,-1.3768,-1.4418,-1.4927,-1.5505,-1.5859,-1.6211,-1.6412,-1.6603,-1.6751,-1.683,-1.6908,-1.6978,-1.6968,-1.7038,-1.7097,-1.7235,-1.7442,-1.7716,-1.792,-1.8124,-1.8395,-1.8854,-1.9386,-1.9911,-2.0442,-2.0839,-2.1094,-2.1463,-2.16,-0.1776,-0.1794,-0.1795,-0.1778,-0.1752,-0.175,-0.1722,-0.1679,-0.1561,-0.1336,-0.091,-0.0707,-0.0606,-0.0606,-0.0707,-0.0808,-0.1111,-0.1514,-0.1917,-0.2422,-0.3026,-0.353,-0.393,-0.4533,-0.5238,-0.5641,-0.6142,-0.6642,-0.7141,-0.7344,-0.7543,-0.7743,-0.7942,-0.7942,-0.8038,-0.8038,-0.8038,-0.8038,-0.8038,-0.8038,-0.8038,-0.8028,-0.7957,-0.7821,-0.7702,-0.755,-0.7397,-0.7272,-0.7289,-0.7344,-0.7411,-0.7588,-0.7848,-0.8113,-0.838,-0.8732,-0.9082,-0.934,-1.0207,-1.1327,-1.2186,-1.2705,-1.3228,-1.3483,-1.3568,-1.3828,-1.3913,-1.4004,-1.4004,-1.4088,-1.4088,-1.4088,-1.4088,-1.4088,-1.4088,-1.4088,-1.4088,-1.4088,-1.4088,-1.4008,-1.3701,-1.3272,-1.2966,-1.2761,-1.2662,-1.2907,-1.3411,-1.3992,-1.4497,-1.5007,-1.5522,-1.5867,-1.6211,-1.6412,-1.6612,-1.676,-1.6908,-1.6908,-1.6978,-1.6968,-1.7038,-1.7107,-1.7166,-1.7442,-1.7579,-1.7657,-1.792,-1.825,-1.8787,-1.9396,-1.9922,-2.0506,-2.0967,-2.1273,-2.1411,-0.1793,-0.1795,-0.1795,-0.1778,-0.1754,-0.1751,-0.1733,-0.1594,-0.136,-0.0926,-0.0507,-0.0405,-0.0303,-0.0202,-0.0303,-0.0404,-0.0606,-0.101,-0.1313,-0.1716,-0.2221,-0.2522,-0.3026,-0.363,-0.4234,-0.4537,-0.5138,-0.5837,-0.6437,-0.6639,-0.7045,-0.7447,-0.7643,-0.7743,-0.7939,-0.8038,-0.8038,-0.8038,-0.8038,-0.8038,-0.8038,-0.8038,-0.7957,-0.7879,-0.7794,-0.7648,-0.7461,-0.7356,-0.7268,-0.7163,-0.7146,-0.7319,-0.7499,-0.7588,-0.7764,-0.8204,-0.8288,-0.864,-0.9345,-1.0982,-1.1757,-1.2106,-1.2711,-1.3052,-1.3228,-1.3483,-1.3743,-1.3828,-1.3913,-1.4082,-1.4082,-1.4088,-1.4088,-1.4088,-1.4088,-1.4088,-1.4088,-1.4088,-1.4088,-1.4082,-1.3749,-1.3457,-1.3061,-1.2752,-1.2608,-1.2767,-1.32,-1.363,-1.4065,-1.4649,-1.5166,-1.5655,-1.6,-1.6281,-1.6473,-1.676,-1.6899,-1.6908,-1.6908,-1.6968,-1.6968,-1.6968,-1.7107,-1.7235,-1.7235,-1.7314,-1.7451,-1.7647,-1.8259,-1.8931,-1.9715,-2.0302,-2.07,-2.1031,-2.1221,-0.1795,-0.1795,-0.1795,-0.1789,-0.178,-0.178,-0.1653,-0.1405,-0.0948,-0.0621,-0.0411,-0.0203,-0.0101,-0.0101,0.0,0.0,-0.0202,-0.0404,-0.0808,-0.0909,-0.1414,-0.1717,-0.2121,-0.2624,-0.3228,-0.3831,-0.4433,-0.5033,-0.5937,-0.5939,-0.6442,-0.6945,-0.7347,-0.7743,-0.7939,-0.8038,-0.8038,-0.8038,-0.8038,-0.8038,-0.8038,-0.8035,-0.8011,-0.7946,-0.7868,-0.7723,-0.7529,-0.7451,-0.7312,-0.717,-0.7139,-0.7143,-0.7234,-0.7234,-0.7411,-0.7676,-0.7764,-0.8113,-0.8727,-0.9767,-1.0636,-1.1327,-1.2106,-1.2625,-1.2881,-1.3222,-1.3483,-1.3652,-1.3743,-1.3913,-1.4088,-1.4088,-1.4088,-1.4088,-1.4088,-1.4088,-1.4088,-1.4088,-1.4082,-1.399,-1.3769,-1.3464,-1.3048,-1.2899,-1.2714,-1.2634,-1.3058,-1.3368,-1.3863,-1.4353,-1.4935,-1.5355,-1.578,-1.6132,-1.6412,-1.67,-1.6839,-1.6908,-1.6908,-1.6908,-1.6908,-1.6908,-1.6978,-1.7038,-1.7038,-1.7038,-1.7176,-1.7442,-1.7852,-1.8519,-1.9243,-1.9911,-2.0302,-2.07,-2.0967,-0.1795,-0.1795,-0.1795,-0.1683,-0.1683,-0.1683,-0.1333,-0.0981,-0.0531,-0.0314,-0.0207,0.0,0.0,0.0,0.0,0.0,0.0,-0.0202,-0.0404,-0.0404,-0.0707,-0.1111,-0.1414,-0.1817,-0.2321,-0.2924,-0.3428,-0.3929,-0.4935,-0.5033,-0.5636,-0.6442,-0.7048,-0.7344,-0.764,-0.7839,-0.8038,-0.8038,-0.8038,-0.8038,-0.8038,-0.8038,-0.8038,-0.8007,-0.794,-0.7824,-0.7675,-0.7519,-0.7353,-0.7217,-0.7146,-0.7143,-0.7143,-0.7139,-0.7231,-0.7323,-0.7503,-0.7764,-0.8288,-0.8811,-0.968,-1.0467,-1.1413,-1.2015,-1.2363,-1.279,-1.3222,-1.3483,-1.3652,-1.3828,-1.4004,-1.4088,-1.4088,-1.4088,-1.4088,-1.4088,-1.4088,-1.4088,-1.4088,-1.399,-1.3931,-1.3473,-1.318,-1.3006,-1.2832,-1.2872,-1.2845,-1.3241,-1.3623,-1.4168,-1.4697,-1.5232,-1.5672,-1.607,-1.6421,-1.67,-1.6839,-1.6908,-1.6908,-1.6908,-1.6908,-1.6908,-1.6908,-1.6908,-1.6908,-1.6978,-1.7038,-1.7235,-1.7647,-1.8114,-1.8721,-1.932,-1.9911,-2.0302,-2.07,-0.1795,-0.1795,-0.1795,-0.157,-0.1346,-0.1234,-0.0889,-0.0438,-0.0431,-0.0212,0.0,0.0,0.0,0.0,0.0,0.0,0.0,0.0,-0.0202,-0.0303,-0.0404,-0.0606,-0.0808,-0.1111,-0.1615,-0.1917,-0.2421,-0.2925,-0.3831,-0.4234,-0.4937,-0.5741,-0.6442,-0.6742,-0.7141,-0.754,-0.7739,-0.7842,-0.7942,-0.7939,-0.8038,-0.8038,-0.8038,-0.8024,-0.7997,-0.7913,-0.7787,-0.7655,-0.7537,-0.7375,-0.7255,-0.7153,-0.7143,-0.7139,-0.7139,-0.7143,-0.7415,-0.7588,-0.7852,-0.8376,-0.8811,-0.9598,-1.0376,-1.1068,-1.1671,-1.2272,-1.279,-1.3222,-1.3483,-1.3737,-1.3997,-1.4082,-1.4088,-1.4088,-1.4088,-1.4088,-1.4088,-1.4088,-1.4088,-1.4082,-1.4082,-1.3821,-1.3534,-1.332,-1.3113,-1.2983,-1.3051,-1.3216,-1.365,-1.4076,-1.4631,-1.5122,-1.5618,-1.6034,-1.6377,-1.6632,-1.6769,-1.676,-1.6908,-1.6908,-1.6908,-1.6908,-1.6908,-1.6908,-1.6908,-1.6908,-1.6968,-1.7107,-1.7373,-1.7842,-1.8317,-1.8931,-1.9528,-1.9977,-2.0366,-0.1795,-0.1795,-0.1795,-0.157,-0.1234,-0.0785,-0.0559,-0.0333,-0.0219,0.0,0.0,0.0,0.0,0.0,0.0,0.0,0.0,0.0,0.0,0.0,0.0,0.0,-0.0505,-0.0707,-0.101,-0.1313,-0.1615,-0.2019,-0.2924,-0.3429,-0.4135,-0.4839,-0.5539,-0.6039,-0.6442,-0.6842,-0.7244,-0.7643,-0.7743,-0.7942,-0.7939,-0.7942,-0.7939,-0.8038,-0.8038,-0.7957,-0.7845,-0.7773,-0.767,-0.7461,-0.7312,-0.7272,-0.7143,-0.7139,-0.7139,-0.7139,-0.7231,-0.7319,-0.7588,-0.794,-0.8292,-0.8815,-0.9598,-1.0381,-1.1068,-1.1757,-1.2357,-1.2875,-1.3222,-1.3483,-1.3828,-1.3913,-1.3997,-1.4004,-1.4088,-1.4088,-1.4088,-1.4088,-1.4088,-1.4088,-1.4088,-1.3995,-1.3734,-1.3634,-1.342,-1.3272,-1.3202,-1.3374,-1.3634,-1.4089,-1.4607,-1.5184,-1.5675,-1.6096,-1.6305,-1.6572,-1.6641,-1.6691,-1.676,-1.6908,-1.6908,-1.6908,-1.6908,-1.6908,-1.6908,-1.6908,-1.6908,-1.7038,-1.7235,-1.7442,-1.7852,-1.8462,-1.9065,-1.9584,-2.0031,-0.1795,-0.1795,-0.1683,-0.1346,-0.0897,-0.0448,-0.0224,-0.0223,-0.011,0.0,0.0,0.0,0.0,0.0,0.0,0.0,0.0,0.0,0.0,0.0,0.0,0.0,-0.0202,0.0,-0.0505,-0.0707,-0.101,-0.1313,-0.2018,-0.2823,-0.353,-0.4133,-0.4734,-0.5138,-0.5539,-0.6039,-0.6439,-0.6842,-0.7241,-0.7643,-0.7842,-0.7842,-0.7942,-0.7939,-0.7939,-0.7977,-0.7902,-0.7862,-0.7682,-0.7478,-0.7431,-0.7295,-0.7173,-0.7139,-0.7139,-0.7139,-0.7139,-0.7231,-0.7319,-0.7591,-0.794,-0.8376,-0.8899,-0.9598,-1.0381,-1.1154,-1.1843,-1.2534,-1.2881,-1.3222,-1.3568,-1.3737,-1.3828,-1.3913,-1.4004,-1.4088,-1.4088,-1.4088,-1.4088,-1.4088,-1.4048,-1.3995,-1.3901,-1.3834,-1.3728,-1.3494,-1.3454,-1.3586,-1.3766,-1.4106,-1.4721,-1.5307,-1.5759,-1.6221,-1.6334,-1.6454,-1.6564,-1.6641,-1.6682,-1.676,-1.683,-1.6908,-1.6908,-1.6908,-1.6908,-1.6908,-1.6839,-1.6968,-1.7107,-1.7314,-1.751,-1.8056,-1.8664,-1.9198,-1.9649,-0.1795,-0.1683,-0.1346,-0.0897,-0.0448,0.0,0.0,0.0,0.0,0.0,0.0,0.0,0.0,0.0,0.0,0.0,0.0,0.0,0.0,0.0,0.0,0.0,0.0,0.0,0.0,-0.0303,-0.0505,-0.0707,-0.1212,-0.2018,-0.2723,-0.3428,-0.3729,-0.4131,-0.4634,-0.5135,-0.5436,-0.5636,-0.6342,-0.7045,-0.7447,-0.7547,-0.7746,-0.7942,-0.7942,-0.8024,-0.7994,-0.7902,-0.7763,-0.7617,-0.7475,-0.7333,-0.7197,-0.7139,-0.7139,-0.7139,-0.7139,-0.7139,-0.7231,-0.7411,-0.7591,-0.794,-0.8376,-0.8899,-0.9767,-1.0636,-1.1327,-1.2015,-1.2448,-1.279,-1.3137,-1.3392,-1.3568,-1.3652,-1.3743,-1.3913,-1.3997,-1.3997,-1.4088,-1.4088,-1.4075,-1.4021,-1.4021,-1.3948,-1.3915,-1.3734,-1.3681,-1.3831,-1.3987,-1.4193,-1.4697,-1.524,-1.5787,-1.6162,-1.6313,-1.6456,-1.6597,-1.6634,-1.6632,-1.6682,-1.6751,-1.683,-1.6899,-1.683,-1.683,-1.683,-1.683,-1.683,-1.689,-1.7028,-1.7304,-1.7647,-1.8192,-1.8798,-1.9264,-0.1683,-0.1346,-0.0897,-0.0561,-0.0336,-0.0112,0.0,0.0,0.0,0.0,0.0,0.0,0.0,0.0,0.0,0.0,0.0,0.0,0.0,0.0,0.0,0.0,0.0,0.0,0.0,-0.0101,-0.0101,-0.0303,-0.0707,-0.1312,-0.1817,-0.2421,-0.2723,-0.3127,-0.363,-0.4131,-0.4433,-0.4533,-0.5238,-0.6145,-0.6745,-0.7344,-0.7643,-0.7743,-0.7842,-0.7942,-0.7922,-0.8004,-0.7889,-0.7767,-0.7624,-0.7417,-0.7166,-0.7146,-0.7139,-0.7139,-0.7139,-0.7139,-0.7143,-0.7323,-0.7503,-0.7768,-0.8113,-0.8548,-0.9157,-1.0028,-1.0722,-1.1413,-1.1929,-1.2363,-1.2705,-1.3045,-1.3222,-1.3392,-1.3568,-1.3652,-1.3822,-1.3913,-1.4082,-1.4088,-1.4088,-1.4088,-1.4088,-1.4075,-1.4048,-1.4015,-1.3995,-1.4052,-1.4108,-1.4317,-1.4508,-1.5072,-1.5848,-1.6149,-1.6276,-1.633,-1.6461,-1.6473,-1.644,-1.6562,-1.6682,-1.6751,-1.683,-1.6682,-1.6682,-1.6621,-1.6621,-1.6612,-1.6682,-1.689,-1.7097,-1.7442,-1.7774,-1.8317,-1.8854,-0.1346,-0.1009,-0.0561,-0.0336,-0.0224,0.0,0.0,0.0,0.0,0.0,0.0,0.0,0.0,0.0,0.0,0.0,0.0,0.0,0.0,0.0,0.0,0.0,0.0,0.0,0.0,0.0,0.0,-0.0202,-0.0404,-0.0606,-0.1111,-0.1615,-0.1817,-0.212,-0.2624,-0.3127,-0.3327,-0.353,-0.4236,-0.4937,-0.5739,-0.6439,-0.7141,-0.7241,-0.7543,-0.7743,-0.7842,-0.7932,-0.7943,-0.7784,-0.76,-0.7394,-0.7197,-0.7143,-0.7139,-0.7139,-0.7139,-0.7139,-0.7143,-0.7231,-0.7415,-0.7588,-0.7764,-0.8113,-0.8632,-0.9506,-0.9941,-1.0549,-1.1068,-1.1499,-1.2015,-1.2443,-1.2619,-1.2796,-1.3137,-1.3398,-1.3568,-1.3737,-1.3822,-1.3913,-1.3913,-1.4088,-1.4088,-1.4088,-1.4068,-1.4068,-1.4082,-1.399,-1.4082,-1.4166,-1.4419,-1.4741,-1.5372,-1.5873,-1.5968,-1.6114,-1.6204,-1.6237,-1.626,-1.6378,-1.6412,-1.6612,-1.6682,-1.6542,-1.6473,-1.6482,-1.6412,-1.6412,-1.6542,-1.6682,-1.6899,-1.7176,-1.751,-1.791,-1.8385,-0.0897,-0.0785,-0.0448,-0.0224,0.0,0.0,0.0,0.0,0.0,0.0,0.0,0.0,0.0,0.0,0.0,0.0,0.0,0.0,0.0,0.0,0.0,0.0,0.0,0.0,0.0,0.0,0.0,0.0,-0.0303,-0.0404,-0.0606,-0.101,-0.1212,-0.1313,-0.1817,-0.2119,-0.2321,-0.2724,-0.3228,-0.3731,-0.4433,-0.5436,-0.6239,-0.6842,-0.7144,-0.7447,-0.7643,-0.772,-0.7851,-0.7807,-0.7607,-0.7397,-0.7241,-0.717,-0.7139,-0.7139,-0.7139,-0.7139,-0.7139,-0.7139,-0.7234,-0.7411,-0.7415,-0.7768,-0.8285,-0.8723,-0.9244,-0.968,-1.0115,-1.0722,-1.1322,-1.1671,-1.1935,-1.2277,-1.2619,-1.3052,-1.3222,-1.3476,-1.3561,-1.3652,-1.3822,-1.3997,-1.3997,-1.3997,-1.3997,-1.3997,-1.3997,-1.3828,-1.3828,-1.3828,-1.3997,-1.4243,-1.4552,-1.5032,-1.5587,-1.5756,-1.5902,-1.6021,-1.6054,-1.6102,-1.6211,-1.6412,-1.6482,-1.6342,-1.6272,-1.6281,-1.6281,-1.6211,-1.6342,-1.6473,-1.6621,-1.683,-1.7176,-1.751,-1.7862,-0.0673,-0.0224,-0.0112,0.0112,0.0336,0.0112,0.0,0.0,0.0,0.0,0.0,0.0,0.0,0.0,0.0,0.0,0.0,0.0,0.0,0.0,0.0,0.0,0.0,0.0,0.0,0.0,0.0,0.0,0.0,0.0,-0.0202,-0.0606,-0.0606,-0.0707,-0.101,-0.1313,-0.1515,-0.1918,-0.222,-0.2723,-0.3325,-0.4331,-0.5639,-0.6242,-0.6645,-0.7042,-0.7238,-0.7543,-0.7627,-0.7625,-0.7627,-0.7499,-0.7333,-0.7217,-0.7173,-0.7139,-0.7139,-0.7139,-0.7139,-0.7139,-0.7231,-0.7231,-0.7323,-0.7503,-0.7852,-0.8028,-0.8464,-0.8723,-0.9244,-1.0028,-1.0549,-1.0722,-1.0982,-1.1499,-1.1929,-1.2357,-1.2699,-1.296,-1.3222,-1.3392,-1.3568,-1.3652,-1.3574,-1.3652,-1.3737,-1.3737,-1.3659,-1.3568,-1.3483,-1.3489,-1.3574,-1.373,-1.3971,-1.4482,-1.5065,-1.5264,-1.5419,-1.563,-1.579,-1.5977,-1.607,-1.6281,-1.6272,-1.614,-1.607,-1.607,-1.607,-1.607,-1.614,-1.6272,-1.6342,-1.6482,-1.683,-1.7176,-1.7451]}]]